[[{"header":{"parameterUnit":"m.s-1","parameterCategory":1,"la1":31.0,"la2":29.5877,"lo1":-88.7671,"lo2":-86.6584,"dy":0.0162,"dx":0.0185,"nx":115,"ny":88,"refTime":"2024-02-02T06:00:00:Z","depth":0,"parameterNumber":2,"parameterNumberName":"U-component_of_WINDS"},"data":[0.0,0.0,0.0,0.0,0.0,0.0,0.0,0.0,0.0,0.0,0.0,0.0,0.0,0.0,0.0,0.0,0.0,0.0,0.0,0.0,0.0,0.0,0.0,0.0,0.0,0.0,0.0,0.0,0.0,0.0,0.0,0.0,0.0,0.0,0.0,0.0,0.0,0.0,0.0,0.0,0.0,0.0,0.0,0.0,0.0,0.0,0.0,0.0,0.0,0.0,0.0,0.0,0.0,0.0,0.0,0.0,0.0,0.0,0.0,0.0,0.0,0.0,0.0,0.0,0.0,0.0,0.0,0.0,0.0,0.0,0.0,0.0,0.0,0.0,0.0,0.0,0.0,0.0,0.0,0.0,0.0,0.0,0.0,0.0,0.0,0.0,0.0,0.0,0.0,0.0,0.0,0.0,0.0,0.0,0.0,0.0,0.0,0.0,0.0,0.0,0.0,0.0,0.0,0.0,0.0,0.0,0.0,0.0,0.0,0.0,0.0,0.0,0.0,0.0,0.0,0.0,0.0,0.0,0.0,0.0,0.0,0.0,0.0,0.0,0.0,0.0,0.0,0.0,0.0,0.0,0.0,0.0,0.0,0.0,0.0,0.0,0.0,0.0,0.0,0.0,0.0,0.0,0.0,0.0,0.0,0.0,0.0,0.0,0.0,0.0,0.0,0.0,0.0,0.0,0.0,0.0,0.0,0.0,0.0,0.0,0.0,0.0,0.0,0.0,0.0,0.0,0.0,0.0,0.0,0.0,0.0,0.0,0.0,0.0,0.0,0.0,0.0,0.0,0.0,0.0,0.0,0.0,0.0,0.0,0.0,0.0,0.0,0.0,0.0,0.0,0.0,0.0,0.0,0.0,0.0,0.0,0.0,0.0,0.0,0.0,0.0,0.0,0.0,0.0,0.0,0.0,0.0,0.0,0.0,0.0,0.0,0.0,0.0,0.0,0.0,0.0,0.0,0.0,0.0,0.0,0.0,0.0,0.0,0.0,0.0,0.0,0.0,0.0,0.0,0.0,0.0,0.0,0.0,0.0,0.0,0.0,0.0,0.0,0.0,0.0,0.0,0.0,0.0,0.0,0.0,0.0,0.0,0.0,0.0,0.0,0.0,0.0,0.0,0.0,0.0,0.0,0.0,0.0,0.0,0.0,0.0,0.0,0.0,0.0,0.0,0.0,0.0,0.0,0.0,0.0,0.0,0.0,0.0,0.0,0.0,0.0,0.0,0.0,0.0,0.0,0.0,0.0,0.0,0.0,0.0,0.0,0.0,0.0,0.0,0.0,0.0,0.0,0.0,0.0,0.0,0.0,0.0,0.0,0.0,0.0,0.0,0.0,0.0,0.0,0.0,0.0,0.0,0.0,0.0,0.0,0.0,0.0,0.0,0.0,0.0,0.0,0.0,0.0,0.0,0.0,0.0,0.0,0.0,0.0,0.0,0.0,0.0,0.0,0.0,0.0,0.0,0.0,0.0,0.0,0.0,0.0,0.0,0.0,0.0,0.0,0.0,0.0,0.0,0.0,0.0,0.0,0.0,0.0,0.0,0.0,0.0,0.0,0.0,0.0,0.0,0.0,0.0,0.0,0.0,0.0,0.0,0.0,0.0,0.0,0.0,0.0,0.0,0.0,0.0,0.0,0.0,0.0,0.0,0.0,0.0,0.0,0.0,0.0,0.0,0.0,0.0,0.0,0.0,0.0,0.0,0.0,0.0,0.0,0.0,0.0,0.0,0.0,0.0,0.0,0.0,0.0,0.0,0.0,0.0,0.0,0.0,0.0,0.0,0.0,0.0,0.0,0.0,0.0,0.0,0.0,0.0,0.0,0.0,0.0,0.0,0.0,0.0,0.0,0.0,0.0,0.0,0.0,0.0,0.0,0.0,0.0,0.0,0.0,0.0,0.0,0.0,0.0,0.0,0.0,0.0,0.0,0.0,0.0,0.0,0.0,0.0,0.0,0.0,0.0,0.0,0.0,0.0,0.0,0.0,0.0,0.0,0.0,0.0,0.0,0.0,0.0,0.0,0.0,0.0,0.0,0.0,0.0,0.0,0.0,0.0,0.0,0.0,0.0,0.0,0.0,0.0,0.0,0.0,0.0,0.0,0.0,0.0,0.0,0.0,0.0,0.0,0.0,0.0,0.0,0.0,0.0,0.0,0.0,0.0,0.0,0.0,0.0,0.0,0.0,0.0,0.0,0.0,0.0,0.0,0.0,0.0,0.0,0.0,0.0,0.0,0.0,0.0,0.0,0.0,0.0,0.0,0.0,0.0,0.0,0.0,0.0,0.0,0.0,0.0,0.0,0.0,0.0,0.0,0.0,0.0,0.0,0.0,0.0,0.0,0.0,0.0,0.0,0.0,0.0,0.0,0.0,0.0,0.0,0.0,0.0,0.0,0.0,0.0,0.0,0.0,0.0,0.0,0.0,0.0,0.0,0.0,0.0,0.0,0.0,0.0,0.0,0.0,0.0,0.0,0.0,0.0,0.0,0.0,0.0,0.0,0.0,0.0,0.0,0.0,0.0,0.0,0.0,0.0,0.0,0.0,0.0,0.0,0.0,0.0,0.0,0.0,0.0,0.0,0.0,0.0,0.0,0.0,0.0,0.0,0.0,0.0,0.0,0.0,0.0,0.0,0.0,0.0,0.0,0.0,0.0,0.0,0.0,0.0,0.0,0.0,0.0,0.0,0.0,0.0,0.0,0.0,0.0,0.0,0.0,0.0,0.0,0.0,0.0,0.0,0.0,0.0,0.0,0.0,0.0,0.0,0.0,0.0,0.0,0.0,0.0,0.0,0.0,0.0,0.0,0.0,0.0,0.0,0.0,0.0,0.0,0.0,0.0,0.0,0.0,0.0,0.0,0.0,0.0,0.0,0.0,0.0,0.0,0.0,0.0,0.0,0.0,0.0,0.0,0.0,0.0,0.0,0.0,0.0,0.0,0.0,0.0,0.0,0.0,0.0,0.0,0.0,0.0,0.0,0.0,0.0,0.0,0.0,0.0,0.0,0.0,0.0,0.0,0.0,0.0,0.0,0.0,0.0,0.0,0.0,0.0,0.0,0.0,0.0,0.0,0.0,0.0,0.0,0.0,0.0,0.0,0.0,0.0,0.0,0.0,0.0,0.0,0.0,0.0,0.0,0.0,0.0,0.0,0.0,0.0,0.0,0.0,0.0,0.0,0.0,0.0,0.0,0.0,0.0,0.0,0.0,0.0,0.0,0.0,0.0,0.0,0.0,0.0,0.0,0.0,0.0,0.0,0.0,0.0,0.0,0.0,0.0,0.0,0.0,0.0,0.0,0.0,0.0,0.0,0.0,0.0,0.0,0.0,0.0,0.0,0.0,0.0,0.0,0.0,0.0,0.0,0.0,0.0,0.0,0.0,0.0,0.0,0.0,0.0,0.0,0.0,0.0,0.0,0.0,0.0,0.0,0.0,0.0,0.0,0.0,0.0,0.0,0.0,0.0,0.0,0.0,0.0,0.0,0.0,0.0,0.0,0.0,0.0,0.0,0.0,0.0,0.0,0.0,0.0,0.0,0.0,0.0,0.0,0.0,0.0,0.0,0.0,0.0,0.0,0.0,0.0,0.0,0.0,0.0,0.0,0.0,0.0,0.0,0.0,0.0,0.0,0.0,0.0,0.0,0.0,0.0,0.0,0.0,0.0,0.0,0.0,0.0,0.0,0.0,0.0,0.0,0.0,0.0,0.0,0.0,0.0,0.0,0.0,0.0,0.0,0.0,0.0,0.0,0.0,0.0,0.0,0.0,0.0,0.0,0.0,0.0,0.0,0.0,0.0,0.0,0.0,0.0,0.0,0.0,0.0,0.0,0.0,0.0,0.0,0.0,0.0,0.0,0.0,0.0,0.0,0.0,0.0,0.0,0.0,0.0,0.0,0.0,0.0,0.0,0.0,0.0,0.0,0.0,0.0,0.0,0.0,0.0,0.0,0.0,0.0,0.0,0.0,0.0,0.0,0.0,0.0,0.0,0.0,0.0,0.0,0.0,0.0,0.0,0.0,0.0,0.0,0.0,0.0,0.0,0.0,0.0,0.0,0.0,0.0,0.0,0.0,0.0,0.0,0.0,0.0,0.0,0.0,0.0,0.0,0.0,0.0,0.0,0.0,0.0,0.0,0.0,0.0,0.0,0.0,0.0,0.0,0.0,0.0,0.0,0.0,0.0,0.0,0.0,0.0,0.0,0.0,0.0,0.0,0.0,0.0,0.0,0.0,0.0,0.0,0.0,0.0,0.0,0.0,0.0,0.0,0.0,0.0,-1.6345,0.0,0.0,0.0,0.0,0.0,0.0,0.0,0.0,0.0,0.0,0.0,0.0,0.0,0.0,0.0,0.0,0.0,0.0,0.0,0.0,0.0,0.0,0.0,0.0,0.0,0.0,0.0,0.0,0.0,0.0,0.0,0.0,0.0,0.0,0.0,0.0,0.0,0.0,0.0,0.0,0.0,0.0,0.0,0.0,0.0,0.0,0.0,0.0,0.0,0.0,0.0,0.0,0.0,0.0,0.0,0.0,0.0,0.0,0.0,0.0,0.0,0.0,0.0,0.0,0.0,0.0,0.0,0.0,0.0,0.0,0.0,0.0,0.0,0.0,0.0,0.0,0.0,0.0,0.0,0.0,0.0,0.0,0.0,0.0,0.0,0.0,0.0,0.0,0.0,0.0,0.0,0.0,0.0,0.0,0.0,0.0,0.0,0.0,0.0,0.0,0.0,0.0,0.0,0.0,0.0,0.0,0.0,0.0,0.0,0.0,-1.6779,-1.655,-1.6398,-1.6267,-1.6218,0.0,0.0,0.0,0.0,0.0,0.0,0.0,0.0,0.0,0.0,0.0,0.0,0.0,0.0,0.0,0.0,0.0,0.0,0.0,0.0,0.0,0.0,0.0,0.0,0.0,0.0,0.0,0.0,0.0,0.0,0.0,0.0,0.0,0.0,0.0,0.0,0.0,0.0,0.0,0.0,0.0,0.0,0.0,0.0,0.0,0.0,0.0,0.0,0.0,0.0,0.0,0.0,0.0,0.0,0.0,0.0,0.0,0.0,0.0,0.0,0.0,0.0,0.0,0.0,0.0,0.0,0.0,0.0,0.0,0.0,0.0,0.0,0.0,0.0,0.0,0.0,0.0,0.0,0.0,0.0,0.0,0.0,0.0,0.0,0.0,0.0,0.0,0.0,0.0,0.0,0.0,0.0,0.0,0.0,0.0,0.0,0.0,0.0,0.0,0.0,0.0,0.0,0.0,0.0,0.0,0.0,0.0,0.0,0.0,0.0,0.0,0.0,-1.6588,-1.6383,-1.6146,0.0,0.0,0.0,0.0,0.0,0.0,0.0,0.0,0.0,0.0,0.0,0.0,0.0,0.0,0.0,0.0,0.0,0.0,0.0,0.0,0.0,0.0,0.0,0.0,0.0,0.0,0.0,0.0,0.0,0.0,0.0,0.0,0.0,0.0,0.0,0.0,0.0,0.0,0.0,0.0,0.0,0.0,0.0,0.0,0.0,0.0,0.0,0.0,0.0,0.0,0.0,0.0,0.0,0.0,0.0,0.0,0.0,0.0,0.0,0.0,0.0,0.0,0.0,0.0,0.0,0.0,0.0,0.0,0.0,0.0,0.0,0.0,0.0,0.0,0.0,0.0,0.0,0.0,0.0,0.0,0.0,0.0,0.0,0.0,0.0,0.0,0.0,0.0,0.0,0.0,0.0,0.0,0.0,0.0,0.0,0.0,0.0,0.0,0.0,0.0,0.0,0.0,0.0,0.0,0.0,0.0,0.0,0.0,0.0,0.0,-1.6744,-1.6272,-1.6272,0.0,-1.6231,0.0,0.0,0.0,0.0,0.0,0.0,0.0,0.0,0.0,0.0,0.0,0.0,0.0,0.0,0.0,0.0,0.0,0.0,0.0,0.0,0.0,0.0,0.0,0.0,0.0,0.0,0.0,0.0,0.0,0.0,0.0,0.0,0.0,0.0,0.0,0.0,0.0,0.0,0.0,0.0,0.0,0.0,0.0,0.0,0.0,0.0,0.0,0.0,0.0,0.0,0.0,0.0,0.0,0.0,0.0,0.0,0.0,0.0,0.0,0.0,0.0,0.0,0.0,0.0,0.0,0.0,0.0,0.0,0.0,0.0,0.0,0.0,0.0,0.0,0.0,0.0,0.0,0.0,0.0,0.0,0.0,0.0,0.0,0.0,0.0,0.0,0.0,0.0,0.0,0.0,0.0,0.0,0.0,0.0,0.0,0.0,0.0,0.0,0.0,0.0,0.0,0.0,0.0,0.0,0.0,0.0,0.0,0.0,0.0,0.0,-1.6641,-1.6224,-1.6021,-1.6035,0.0,0.0,0.0,0.0,0.0,0.0,0.0,0.0,0.0,0.0,0.0,0.0,0.0,0.0,0.0,0.0,0.0,0.0,0.0,0.0,0.0,0.0,0.0,0.0,0.0,0.0,0.0,0.0,0.0,0.0,0.0,0.0,0.0,0.0,0.0,0.0,0.0,0.0,0.0,0.0,0.0,0.0,0.0,0.0,0.0,0.0,0.0,0.0,0.0,0.0,0.0,0.0,0.0,0.0,0.0,0.0,0.0,0.0,0.0,0.0,0.0,0.0,0.0,0.0,0.0,0.0,0.0,0.0,0.0,0.0,0.0,0.0,0.0,0.0,0.0,0.0,0.0,0.0,0.0,0.0,0.0,0.0,0.0,0.0,0.0,0.0,0.0,0.0,0.0,0.0,0.0,0.0,0.0,0.0,0.0,0.0,0.0,0.0,0.0,0.0,0.0,0.0,0.0,0.0,0.0,0.0,0.0,0.0,0.0,0.0,-1.6635,-1.6395,-1.6096,-1.5879,-1.5879,-1.6069,0.0,0.0,0.0,0.0,0.0,0.0,0.0,0.0,0.0,0.0,0.0,0.0,0.0,0.0,0.0,0.0,0.0,0.0,0.0,0.0,0.0,0.0,0.0,0.0,0.0,0.0,0.0,0.0,0.0,0.0,0.0,0.0,0.0,0.0,0.0,0.0,0.0,0.0,0.0,0.0,0.0,0.0,0.0,0.0,0.0,0.0,0.0,0.0,0.0,0.0,0.0,0.0,0.0,0.0,0.0,0.0,0.0,0.0,0.0,0.0,0.0,0.0,0.0,0.0,0.0,0.0,0.0,0.0,0.0,0.0,0.0,0.0,0.0,0.0,0.0,0.0,0.0,0.0,0.0,0.0,0.0,0.0,0.0,0.0,0.0,0.0,0.0,0.0,0.0,0.0,0.0,0.0,0.0,0.0,0.0,0.0,0.0,0.0,0.0,0.0,0.0,0.0,0.0,0.0,0.0,0.0,0.0,0.0,-1.6272,-1.6238,-1.6096,-1.5845,-1.5832,-1.5832,0.0,0.0,0.0,0.0,0.0,0.0,0.0,0.0,0.0,0.0,0.0,0.0,0.0,0.0,0.0,0.0,0.0,0.0,0.0,0.0,0.0,0.0,0.0,0.0,0.0,0.0,0.0,0.0,0.0,0.0,0.0,0.0,0.0,0.0,0.0,0.0,0.0,0.0,0.0,0.0,0.0,0.0,0.0,0.0,0.0,0.0,0.0,0.0,0.0,0.0,0.0,0.0,0.0,0.0,0.0,0.0,0.0,0.0,0.0,0.0,0.0,0.0,0.0,0.0,0.0,0.0,0.0,0.0,0.0,0.0,0.0,0.0,0.0,0.0,0.0,0.0,0.0,0.0,0.0,0.0,0.0,0.0,0.0,0.0,0.0,0.0,0.0,0.0,0.0,0.0,0.0,0.0,0.0,0.0,0.0,0.0,0.0,0.0,0.0,0.0,0.0,0.0,0.0,0.0,0.0,0.0,0.0,0.0,0.0,-1.6177,-1.6021,-1.6067,-1.6353,-1.6032,-1.5832,0.0,0.0,0.0,0.0,0.0,0.0,0.0,0.0,0.0,0.0,0.0,0.0,0.0,0.0,0.0,0.0,0.0,0.0,0.0,0.0,0.0,0.0,0.0,0.0,0.0,0.0,0.0,0.0,0.0,0.0,0.0,0.0,0.0,0.0,0.0,0.0,0.0,0.0,0.0,0.0,0.0,0.0,0.0,0.0,0.0,0.0,0.0,0.0,0.0,0.0,0.0,0.0,0.0,0.0,0.0,0.0,0.0,0.0,0.0,0.0,0.0,0.0,0.0,0.0,0.0,0.0,0.0,0.0,0.0,0.0,0.0,0.0,0.0,0.0,0.0,0.0,0.0,0.0,0.0,0.0,0.0,0.0,0.0,0.0,0.0,0.0,0.0,0.0,0.0,0.0,0.0,0.0,0.0,0.0,0.0,0.0,0.0,0.0,0.0,0.0,0.0,0.0,0.0,0.0,0.0,0.0,0.0,0.0,0.0,-1.6218,0.0,-1.6259,-1.654,-1.6179,-1.5925,0.0,0.0,0.0,0.0,0.0,0.0,0.0,0.0,0.0,0.0,0.0,0.0,0.0,0.0,0.0,0.0,0.0,0.0,0.0,0.0,0.0,0.0,0.0,0.0,0.0,0.0,0.0,0.0,0.0,0.0,0.0,0.0,0.0,0.0,0.0,0.0,0.0,0.0,0.0,0.0,0.0,0.0,0.0,0.0,0.0,0.0,0.0,0.0,0.0,0.0,0.0,0.0,0.0,0.0,0.0,0.0,0.0,0.0,0.0,0.0,0.0,0.0,0.0,0.0,0.0,0.0,0.0,0.0,0.0,0.0,0.0,0.0,0.0,0.0,0.0,0.0,0.0,0.0,0.0,0.0,0.0,0.0,0.0,0.0,0.0,0.0,0.0,0.0,0.0,0.0,0.0,0.0,0.0,0.0,0.0,0.0,0.0,0.0,0.0,0.0,0.0,0.0,0.0,0.0,0.0,0.0,0.0,0.0,-1.6259,-1.6335,-1.6567,-1.658,-1.6299,-1.6299,-1.6139,0.0,0.0,0.0,0.0,0.0,0.0,0.0,0.0,0.0,0.0,0.0,0.0,0.0,0.0,0.0,0.0,0.0,0.0,0.0,0.0,0.0,0.0,0.0,0.0,0.0,0.0,0.0,0.0,0.0,0.0,0.0,0.0,0.0,0.0,0.0,0.0,0.0,0.0,0.0,0.0,0.0,0.0,0.0,0.0,0.0,0.0,0.0,0.0,0.0,0.0,0.0,0.0,0.0,0.0,0.0,0.0,0.0,0.0,0.0,0.0,0.0,0.0,0.0,0.0,0.0,0.0,0.0,0.0,0.0,0.0,0.0,0.0,0.0,0.0,0.0,0.0,0.0,0.0,0.0,0.0,0.0,0.0,0.0,0.0,0.0,0.0,0.0,0.0,0.0,0.0,0.0,0.0,0.0,0.0,0.0,0.0,0.0,0.0,0.0,0.0,0.0,0.0,0.0,0.0,0.0,0.0,0.0,0.0,0.0,-1.7168,-1.7125,-1.7061,-1.7206,-1.678,-1.6433,0.0,0.0,0.0,0.0,0.0,0.0,0.0,0.0,0.0,0.0,0.0,0.0,0.0,0.0,0.0,0.0,0.0,0.0,0.0,0.0,0.0,0.0,0.0,0.0,0.0,0.0,0.0,0.0,0.0,0.0,0.0,0.0,0.0,0.0,0.0,0.0,0.0,0.0,0.0,0.0,0.0,0.0,0.0,0.0,0.0,0.0,0.0,0.0,0.0,0.0,0.0,0.0,0.0,0.0,0.0,0.0,0.0,0.0,0.0,0.0,0.0,0.0,0.0,0.0,0.0,0.0,0.0,0.0,0.0,0.0,0.0,0.0,0.0,0.0,0.0,0.0,0.0,0.0,0.0,0.0,0.0,0.0,0.0,0.0,0.0,0.0,0.0,0.0,0.0,0.0,0.0,0.0,0.0,0.0,0.0,0.0,0.0,0.0,0.0,0.0,0.0,0.0,0.0,0.0,0.0,0.0,0.0,0.0,0.0,-1.815,-1.7955,-1.7836,-1.7916,-1.7462,-1.6967,-1.6446,0.0,0.0,0.0,0.0,0.0,0.0,0.0,0.0,0.0,0.0,0.0,0.0,0.0,0.0,0.0,0.0,0.0,0.0,0.0,0.0,0.0,0.0,0.0,0.0,0.0,0.0,0.0,0.0,0.0,0.0,0.0,0.0,0.0,0.0,0.0,0.0,0.0,0.0,0.0,0.0,0.0,0.0,0.0,0.0,0.0,0.0,0.0,0.0,0.0,0.0,0.0,0.0,0.0,0.0,0.0,0.0,0.0,0.0,0.0,0.0,0.0,0.0,0.0,0.0,0.0,0.0,0.0,0.0,0.0,0.0,0.0,0.0,0.0,0.0,0.0,0.0,0.0,0.0,0.0,0.0,0.0,0.0,0.0,0.0,0.0,0.0,0.0,0.0,0.0,0.0,0.0,0.0,0.0,0.0,0.0,0.0,0.0,0.0,0.0,0.0,0.0,0.0,0.0,0.0,0.0,0.0,0.0,0.0,-1.9257,-1.9055,-1.8875,-1.8555,-1.8209,-1.7622,0.0,0.0,0.0,0.0,0.0,0.0,0.0,0.0,0.0,0.0,0.0,0.0,0.0,0.0,0.0,0.0,0.0,0.0,0.0,0.0,0.0,0.0,0.0,0.0,0.0,0.0,0.0,0.0,0.0,0.0,0.0,0.0,0.0,0.0,0.0,0.0,0.0,0.0,0.0,0.0,0.0,0.0,0.0,0.0,0.0,0.0,0.0,0.0,0.0,0.0,0.0,0.0,0.0,0.0,0.0,0.0,0.0,0.0,0.0,0.0,0.0,0.0,0.0,0.0,0.0,0.0,0.0,0.0,0.0,0.0,0.0,0.0,0.0,0.0,0.0,0.0,0.0,0.0,0.0,0.0,0.0,0.0,0.0,0.0,0.0,0.0,0.0,0.0,0.0,0.0,0.0,0.0,0.0,0.0,0.0,0.0,0.0,0.0,0.0,0.0,0.0,0.0,0.0,0.0,0.0,0.0,0.0,0.0,0.0,-1.9775,-1.9952,-1.9843,-1.9384,-1.8677,-1.8003,0.0,0.0,0.0,0.0,0.0,0.0,0.0,0.0,0.0,0.0,0.0,0.0,0.0,0.0,0.0,0.0,0.0,0.0,0.0,0.0,0.0,0.0,0.0,0.0,0.0,0.0,0.0,0.0,0.0,0.0,0.0,0.0,0.0,0.0,0.0,0.0,0.0,0.0,0.0,0.0,0.0,0.0,0.0,0.0,0.0,0.0,0.0,0.0,0.0,0.0,0.0,0.0,0.0,0.0,0.0,0.0,0.0,0.0,0.0,0.0,0.0,0.0,0.0,0.0,0.0,0.0,0.0,0.0,0.0,0.0,0.0,0.0,0.0,0.0,0.0,0.0,0.0,0.0,0.0,0.0,0.0,0.0,0.0,0.0,0.0,0.0,0.0,0.0,0.0,0.0,0.0,0.0,0.0,0.0,0.0,0.0,0.0,0.0,0.0,0.0,0.0,0.0,0.0,0.0,0.0,0.0,0.0,0.0,-1.9318,-2.01,-2.0447,-2.0476,-2.0323,-1.9408,-1.8599,0.0,0.0,0.0,0.0,0.0,0.0,0.0,0.0,0.0,0.0,0.0,0.0,0.0,0.0,0.0,0.0,0.0,0.0,0.0,0.0,0.0,0.0,0.0,0.0,0.0,0.0,0.0,0.0,0.0,0.0,0.0,0.0,0.0,0.0,0.0,0.0,0.0,0.0,0.0,0.0,0.0,0.0,0.0,0.0,0.0,0.0,0.0,0.0,0.0,0.0,0.0,0.0,0.0,0.0,0.0,0.0,0.0,0.0,0.0,0.0,0.0,0.0,0.0,0.0,0.0,0.0,0.0,0.0,0.0,0.0,0.0,0.0,0.0,0.0,0.0,0.0,0.0,0.0,0.0,0.0,0.0,0.0,0.0,0.0,0.0,0.0,0.0,0.0,0.0,0.0,0.0,0.0,0.0,0.0,0.0,0.0,0.0,0.0,0.0,0.0,0.0,0.0,0.0,0.0,0.0,0.0,0.0,0.0,-1.9688,-2.0367,-2.0634,-2.0947,-2.1151,-2.0246,-1.9205,0.0,0.0,0.0,0.0,0.0,0.0,0.0,0.0,0.0,0.0,0.0,0.0,0.0,0.0,0.0,0.0,0.0,0.0,0.0,0.0,0.0,0.0,0.0,0.0,0.0,0.0,0.0,0.0,0.0,0.0,0.0,0.0,0.0,0.0,0.0,0.0,0.0,0.0,0.0,0.0,0.0,0.0,0.0,0.0,0.0,0.0,0.0,0.0,0.0,0.0,0.0,0.0,0.0,0.0,0.0,0.0,0.0,0.0,0.0,0.0,0.0,0.0,0.0,0.0,0.0,0.0,0.0,0.0,0.0,0.0,0.0,0.0,0.0,0.0,0.0,0.0,0.0,0.0,0.0,0.0,0.0,0.0,0.0,0.0,0.0,0.0,0.0,0.0,0.0,0.0,0.0,0.0,0.0,0.0,0.0,0.0,0.0,0.0,0.0,0.0,0.0,0.0,0.0,0.0,0.0,0.0,0.0,0.0,-2.0397,-2.0914,-2.1207,-2.1268,-2.112,-2.0298,-1.9499,0.0,0.0,0.0,0.0,0.0,0.0,0.0,0.0,0.0,0.0,0.0,0.0,0.0,0.0,0.0,0.0,0.0,0.0,0.0,0.0,0.0,0.0,0.0,0.0,0.0,0.0,0.0,0.0,0.0,0.0,0.0,0.0,0.0,0.0,0.0,0.0,0.0,0.0,0.0,0.0,0.0,0.0,0.0,0.0,0.0,0.0,0.0,0.0,-2.0605,0.0,0.0,0.0,0.0,0.0,0.0,0.0,0.0,0.0,0.0,0.0,0.0,0.0,0.0,0.0,0.0,0.0,0.0,0.0,0.0,0.0,0.0,0.0,0.0,0.0,0.0,0.0,0.0,0.0,0.0,0.0,0.0,0.0,0.0,0.0,0.0,0.0,0.0,0.0,0.0,0.0,0.0,0.0,0.0,0.0,0.0,0.0,0.0,0.0,0.0,0.0,0.0,0.0,0.0,0.0,0.0,0.0,0.0,0.0,-2.0784,-2.1098,-2.145,-2.1535,-2.1316,-2.061,-1.9869,0.0,0.0,0.0,0.0,0.0,0.0,0.0,0.0,0.0,0.0,0.0,0.0,0.0,0.0,0.0,0.0,0.0,0.0,0.0,0.0,0.0,0.0,0.0,0.0,0.0,0.0,0.0,0.0,0.0,0.0,0.0,0.0,0.0,0.0,0.0,0.0,0.0,0.0,0.0,0.0,0.0,0.0,0.0,0.0,0.0,0.0,0.0,0.0,0.0,0.0,0.0,0.0,0.0,0.0,0.0,0.0,0.0,0.0,0.0,0.0,0.0,0.0,0.0,0.0,0.0,0.0,0.0,0.0,0.0,0.0,0.0,0.0,0.0,0.0,0.0,0.0,0.0,0.0,0.0,0.0,0.0,0.0,0.0,0.0,0.0,0.0,0.0,0.0,0.0,0.0,0.0,0.0,0.0,0.0,0.0,0.0,0.0,0.0,0.0,0.0,0.0,0.0,0.0,0.0,0.0,0.0,0.0,-2.0398,-2.1034,-2.1171,-2.1655,-2.1788,-2.1486,-2.0955,-2.0276,-1.9271,0.0,0.0,0.0,0.0,0.0,0.0,0.0,0.0,0.0,0.0,0.0,0.0,0.0,0.0,0.0,0.0,0.0,0.0,0.0,0.0,0.0,0.0,0.0,0.0,0.0,0.0,0.0,0.0,0.0,0.0,0.0,0.0,0.0,0.0,0.0,0.0,0.0,0.0,-2.209,-2.291,0.0,0.0,0.0,0.0,0.0,0.0,0.0,0.0,-2.2031,0.0,0.0,0.0,0.0,0.0,0.0,0.0,0.0,0.0,0.0,0.0,0.0,0.0,0.0,0.0,0.0,0.0,0.0,0.0,0.0,0.0,0.0,0.0,0.0,0.0,0.0,0.0,0.0,0.0,0.0,0.0,0.0,0.0,0.0,0.0,0.0,0.0,0.0,0.0,0.0,0.0,0.0,0.0,0.0,0.0,0.0,0.0,0.0,0.0,0.0,0.0,0.0,0.0,0.0,0.0,0.0,-1.9561,-2.0892,-2.152,-2.1474,-2.1933,-2.2043,-2.1486,-2.0955,-2.0362,-1.9537,0.0,0.0,0.0,0.0,0.0,0.0,0.0,0.0,0.0,0.0,0.0,0.0,0.0,0.0,0.0,0.0,0.0,0.0,0.0,0.0,0.0,0.0,0.0,0.0,0.0,0.0,0.0,0.0,0.0,0.0,0.0,0.0,0.0,0.0,0.0,0.0,0.0,0.0,0.0,-2.4219,-2.4863,0.0,0.0,0.0,0.0,0.0,0.0,0.0,0.0,-2.2363,0.0,0.0,0.0,0.0,0.0,0.0,0.0,0.0,0.0,0.0,0.0,0.0,0.0,0.0,0.0,0.0,0.0,0.0,0.0,0.0,0.0,0.0,0.0,0.0,0.0,0.0,0.0,0.0,0.0,0.0,0.0,0.0,0.0,0.0,0.0,0.0,0.0,0.0,0.0,0.0,0.0,0.0,0.0,0.0,0.0,0.0,0.0,0.0,0.0,0.0,0.0,0.0,0.0,0.0,0.0,-2.0055,-2.1094,-2.1645,-2.174,-2.2054,-2.2017,-2.1486,-2.0822,-2.0239,0.0,0.0,0.0,0.0,0.0,0.0,0.0,0.0,0.0,0.0,0.0,0.0,0.0,0.0,0.0,0.0,0.0,0.0,0.0,0.0,0.0,0.0,0.0,0.0,0.0,0.0,0.0,0.0,0.0,0.0,0.0,0.0,0.0,0.0,0.0,0.0,0.0,0.0,0.0,0.0,-2.5816,-2.6478,-2.6912,0.0,0.0,0.0,0.0,0.0,0.0,-2.4776,-2.4171,0.0,0.0,0.0,0.0,0.0,0.0,0.0,0.0,0.0,0.0,0.0,0.0,0.0,0.0,0.0,0.0,0.0,0.0,0.0,0.0,0.0,0.0,0.0,0.0,0.0,0.0,0.0,0.0,0.0,0.0,0.0,0.0,0.0,0.0,0.0,0.0,0.0,0.0,0.0,0.0,0.0,0.0,0.0,0.0,0.0,0.0,0.0,0.0,0.0,0.0,0.0,0.0,0.0,0.0,0.0,-2.0381,-2.1177,-2.1699,-2.1922,-2.22,-2.2005,-2.1486,-2.0702,-2.0013,0.0,0.0,0.0,0.0,0.0,0.0,0.0,0.0,0.0,0.0,0.0,0.0,0.0,0.0,0.0,0.0,0.0,0.0,0.0,0.0,0.0,0.0,0.0,0.0,0.0,0.0,0.0,0.0,0.0,0.0,0.0,0.0,0.0,0.0,0.0,0.0,0.0,0.0,0.0,0.0,0.0,-2.8038,-2.8787,-2.8787,0.0,0.0,0.0,0.0,-2.7895,-2.7152,0.0,0.0,0.0,0.0,0.0,0.0,0.0,0.0,0.0,0.0,0.0,0.0,0.0,0.0,0.0,0.0,0.0,0.0,0.0,0.0,0.0,0.0,0.0,0.0,0.0,0.0,0.0,0.0,0.0,0.0,0.0,0.0,0.0,0.0,0.0,0.0,0.0,0.0,0.0,0.0,0.0,0.0,0.0,0.0,0.0,0.0,0.0,0.0,0.0,0.0,0.0,0.0,0.0,0.0,0.0,0.0,-2.0327,-2.1207,-2.1687,-2.1922,-2.2126,-2.2079,-2.1486,-2.0702,-1.9927,0.0,0.0,0.0,0.0,0.0,0.0,0.0,0.0,0.0,0.0,0.0,0.0,0.0,0.0,0.0,0.0,0.0,0.0,0.0,0.0,0.0,0.0,0.0,0.0,0.0,0.0,0.0,0.0,0.0,0.0,0.0,0.0,0.0,0.0,0.0,0.0,0.0,0.0,0.0,0.0,0.0,-2.9359,-3.1204,-3.112,-3.0978,0.0,0.0,-3.0247,-3.0186,-2.8946,0.0,0.0,0.0,0.0,0.0,0.0,0.0,0.0,0.0,0.0,0.0,0.0,0.0,0.0,0.0,0.0,0.0,0.0,0.0,0.0,0.0,0.0,0.0,0.0,0.0,0.0,0.0,0.0,0.0,0.0,0.0,0.0,0.0,0.0,0.0,0.0,0.0,0.0,0.0,0.0,0.0,0.0,0.0,0.0,0.0,0.0,0.0,0.0,0.0,0.0,0.0,0.0,0.0,0.0,0.0,-1.9575,-2.0533,-2.1175,-2.1703,-2.2152,-2.2273,-2.2017,-2.1486,-2.0702,-1.9915,0.0,0.0,0.0,0.0,0.0,0.0,0.0,0.0,0.0,0.0,0.0,0.0,0.0,0.0,0.0,0.0,0.0,0.0,0.0,0.0,0.0,0.0,0.0,0.0,0.0,0.0,0.0,0.0,0.0,0.0,0.0,0.0,0.0,0.0,0.0,0.0,0.0,0.0,0.0,0.0,0.0,0.0,-3.2948,-3.3313,0.0,0.0,0.0,-3.3433,-3.3346,0.0,0.0,0.0,0.0,0.0,0.0,0.0,0.0,0.0,0.0,0.0,0.0,0.0,0.0,0.0,0.0,0.0,0.0,0.0,0.0,0.0,0.0,0.0,0.0,0.0,0.0,0.0,0.0,0.0,0.0,0.0,0.0,0.0,0.0,0.0,0.0,0.0,0.0,0.0,0.0,0.0,0.0,0.0,0.0,0.0,0.0,0.0,0.0,0.0,0.0,0.0,0.0,0.0,0.0,0.0,0.0,0.0,-2.0681,-2.1242,-2.174,-2.2321,-2.2346,-2.2079,-2.1486,-2.0702,0.0,0.0,0.0,0.0,0.0,0.0,0.0,0.0,0.0,0.0,0.0,0.0,0.0,0.0,0.0,0.0,0.0,0.0,0.0,0.0,0.0,0.0,0.0,0.0,0.0,0.0,0.0,-1.5259,0.0,0.0,0.0,0.0,0.0,0.0,0.0,0.0,0.0,0.0,0.0,0.0,0.0,0.0,-3.2096,-3.4739,-3.5621,-3.6234,0.0,0.0,-3.6444,-3.6265,-3.48,-3.2992,0.0,0.0,0.0,0.0,0.0,0.0,0.0,0.0,0.0,0.0,0.0,0.0,0.0,0.0,0.0,0.0,0.0,0.0,0.0,0.0,0.0,0.0,0.0,0.0,0.0,0.0,0.0,0.0,0.0,0.0,0.0,0.0,0.0,0.0,0.0,0.0,0.0,0.0,0.0,0.0,0.0,0.0,0.0,0.0,0.0,0.0,0.0,0.0,0.0,0.0,0.0,0.0,0.0,0.0,-1.9961,-2.0674,-2.1268,-2.174,-2.2321,-2.2346,-2.2017,-2.1486,-2.0702,-2.0104,0.0,0.0,0.0,0.0,0.0,0.0,0.0,0.0,0.0,0.0,0.0,0.0,0.0,0.0,0.0,0.0,0.0,0.0,0.0,0.0,0.0,0.0,0.0,0.0,0.0,0.0,0.0,0.0,0.0,0.0,0.0,0.0,0.0,0.0,0.0,0.0,0.0,0.0,0.0,0.0,0.0,-3.3638,-3.6864,-3.8001,-3.8869,0.0,-3.9179,-3.8579,-3.8538,-3.6462,-3.4452,-3.3194,0.0,0.0,0.0,0.0,0.0,0.0,0.0,0.0,0.0,0.0,0.0,0.0,0.0,0.0,0.0,0.0,0.0,0.0,0.0,0.0,0.0,0.0,0.0,0.0,0.0,0.0,0.0,0.0,-1.8616,0.0,0.0,0.0,0.0,0.0,0.0,0.0,0.0,0.0,0.0,0.0,0.0,0.0,0.0,0.0,0.0,0.0,0.0,0.0,0.0,0.0,0.0,0.0,0.0,-1.9866,-2.0953,-2.145,-2.2054,-2.2782,-2.2661,-2.2406,-2.1969,-2.1256,-2.0471,0.0,0.0,0.0,0.0,0.0,0.0,0.0,0.0,0.0,0.0,0.0,0.0,0.0,0.0,0.0,0.0,0.0,0.0,0.0,0.0,0.0,0.0,0.0,0.0,0.0,0.0,0.0,0.0,-1.8254,-1.8706,-1.8505,0.0,0.0,0.0,0.0,0.0,0.0,0.0,0.0,0.0,0.0,-3.5326,-3.8352,-3.9537,0.0,0.0,-4.0696,-3.9992,-3.9702,-3.8212,-3.6432,-3.4635,-3.2212,0.0,0.0,0.0,0.0,0.0,0.0,0.0,0.0,0.0,0.0,0.0,0.0,0.0,0.0,0.0,0.0,0.0,0.0,0.0,0.0,0.0,0.0,0.0,0.0,0.0,0.0,-1.9148,-1.921,0.0,0.0,0.0,0.0,0.0,0.0,0.0,0.0,0.0,0.0,0.0,0.0,0.0,0.0,0.0,0.0,0.0,0.0,0.0,0.0,0.0,0.0,0.0,0.0,-1.9879,-2.1122,-2.1667,-2.2406,-2.3109,-2.2939,-2.2685,-2.2259,-2.1704,-2.1008,0.0,0.0,0.0,0.0,0.0,0.0,0.0,0.0,0.0,0.0,0.0,0.0,0.0,0.0,0.0,0.0,0.0,0.0,0.0,0.0,0.0,0.0,0.0,0.0,0.0,0.0,0.0,0.0,-1.901,-1.9346,-1.8955,0.0,0.0,0.0,0.0,0.0,0.0,0.0,0.0,0.0,0.0,-3.6765,-3.9363,-4.0749,-4.1752,-4.2538,-4.1876,-4.1131,-4.0533,-3.9343,-3.7785,-3.596,0.0,0.0,0.0,0.0,0.0,0.0,0.0,0.0,0.0,0.0,0.0,0.0,0.0,0.0,0.0,0.0,0.0,0.0,0.0,0.0,0.0,0.0,0.0,0.0,0.0,0.0,0.0,-2.007,0.0,0.0,-1.854,0.0,0.0,0.0,0.0,0.0,0.0,0.0,0.0,0.0,0.0,0.0,0.0,0.0,0.0,0.0,0.0,0.0,0.0,0.0,0.0,0.0,0.0,-2.0258,-2.1122,-2.1934,-2.26,-2.3121,-2.3121,-2.2879,-2.2307,-2.2067,-2.1699,-2.1285,0.0,0.0,0.0,0.0,0.0,0.0,0.0,0.0,0.0,0.0,0.0,0.0,0.0,0.0,0.0,0.0,0.0,0.0,0.0,0.0,0.0,0.0,0.0,0.0,0.0,0.0,-1.9486,-1.954,-1.9264,0.0,0.0,0.0,0.0,0.0,0.0,0.0,0.0,0.0,-3.2909,-3.5541,-3.7928,-3.9973,-4.1727,-4.2939,-4.3415,-4.2807,-4.1915,-4.1077,-3.9774,-3.8418,0.0,0.0,0.0,0.0,0.0,0.0,0.0,0.0,0.0,0.0,0.0,0.0,0.0,0.0,0.0,0.0,0.0,0.0,0.0,0.0,0.0,0.0,0.0,0.0,0.0,0.0,0.0,-2.1513,-2.1295,0.0,0.0,0.0,0.0,0.0,0.0,0.0,0.0,0.0,0.0,0.0,-2.4363,-2.4087,0.0,0.0,0.0,0.0,0.0,0.0,0.0,0.0,0.0,0.0,0.0,0.0,-2.05,-2.1643,-2.2455,-2.3116,-2.3804,-2.3671,-2.349,-2.3309,-2.3022,-2.2531,-2.2001,0.0,0.0,0.0,0.0,0.0,0.0,0.0,0.0,0.0,0.0,0.0,0.0,0.0,0.0,0.0,0.0,0.0,0.0,0.0,0.0,0.0,0.0,0.0,0.0,0.0,-1.9925,0.0,0.0,0.0,0.0,0.0,0.0,0.0,0.0,0.0,0.0,-2.931,-3.2123,-3.5416,-3.741,-3.9198,-4.1009,-4.1988,-4.2668,0.0,0.0,0.0,0.0,0.0,0.0,0.0,0.0,0.0,0.0,0.0,0.0,0.0,0.0,-3.4268,-3.1552,-3.1462,-3.1948,-3.225,0.0,0.0,0.0,0.0,0.0,0.0,0.0,0.0,0.0,0.0,0.0,0.0,0.0,0.0,-2.347,-2.3142,-2.2647,0.0,0.0,0.0,0.0,0.0,0.0,0.0,0.0,-2.4508,-2.5107,-2.5493,-2.5065,-2.5213,-2.5718,-2.4894,-2.4058,0.0,0.0,0.0,0.0,0.0,0.0,0.0,0.0,-2.0965,-2.2337,-2.3153,-2.3989,-2.4743,-2.4702,-2.4485,-2.4443,-2.4055,-2.3513,-2.2806,-2.1988,-2.1144,0.0,0.0,0.0,0.0,0.0,0.0,0.0,0.0,0.0,0.0,0.0,0.0,0.0,0.0,0.0,0.0,0.0,0.0,0.0,0.0,0.0,0.0,0.0,-2.0734,0.0,0.0,0.0,0.0,0.0,0.0,0.0,0.0,0.0,-2.891,-3.1321,-3.4154,-3.7291,-3.8806,-4.0062,-4.1283,0.0,0.0,0.0,0.0,0.0,0.0,0.0,-4.1236,-4.0643,-4.1118,-4.148,-4.1336,-4.0627,-4.0091,-4.0021,0.0,0.0,-3.5956,-3.5832,-3.6332,-3.6519,-3.6768,-3.7079,-3.7656,-3.7833,-3.8111,0.0,0.0,0.0,0.0,-2.1221,0.0,0.0,0.0,-2.542,-2.5579,0.0,-2.5034,0.0,0.0,0.0,0.0,-2.1882,-2.3275,0.0,0.0,-2.5862,-2.6266,-2.6266,-2.6001,-2.6253,-2.6808,-2.5995,-2.5918,-2.6279,-2.3821,-2.1844,0.0,0.0,0.0,0.0,0.0,-2.1921,-2.3341,-2.4174,-2.5019,-2.5956,-2.5969,-2.5924,-2.5618,-2.5205,-2.4602,-2.3778,-2.3519,-2.3011,-2.2226,-2.1033,0.0,0.0,0.0,0.0,0.0,0.0,0.0,0.0,0.0,0.0,0.0,0.0,0.0,0.0,0.0,0.0,0.0,0.0,0.0,0.0,-2.1199,0.0,0.0,0.0,0.0,0.0,0.0,0.0,0.0,0.0,-2.9168,-3.0982,-3.3425,-3.5934,-3.8365,0.0,0.0,0.0,0.0,-4.3036,-4.3036,-4.3036,-4.2739,-4.1989,-4.2185,-4.2444,-4.2487,0.0,0.0,-4.436,-4.4377,-4.4369,-4.4424,-4.5121,-4.4635,-4.116,-4.0707,-4.0968,-4.0989,-4.0989,-4.1262,-4.1852,-4.1726,-4.1794,-2.5321,0.0,0.0,0.0,0.0,-2.4544,-2.5594,-2.6576,-2.6941,-2.6918,-2.6568,-2.6145,0.0,0.0,0.0,0.0,0.0,0.0,-2.5983,-2.6485,-2.7017,-2.7449,-2.7618,-2.7536,-2.7631,-2.7966,-2.7689,-2.763,-2.7589,-2.6239,-2.4569,-2.2624,0.0,0.0,0.0,0.0,-2.3216,-2.4313,-2.5135,-2.5823,-2.6249,-2.6262,-2.6452,-2.6809,-2.6242,-2.6074,-2.6212,-2.5281,-2.4497,-2.3842,-2.2655,0.0,0.0,0.0,0.0,0.0,0.0,0.0,0.0,0.0,0.0,0.0,0.0,0.0,0.0,0.0,0.0,0.0,0.0,0.0,-2.3656,-2.3395,-2.2894,0.0,0.0,0.0,0.0,0.0,0.0,0.0,0.0,0.0,-3.4511,-3.5684,-3.7166,0.0,0.0,-4.1229,-4.1935,-4.2603,-4.3118,-4.3037,-4.3293,0.0,-4.2839,-4.356,-4.4321,-4.4765,-4.6352,-4.7444,-4.7237,-4.7175,-4.7315,-4.7568,-4.7852,-4.7874,-4.7437,-4.6139,-4.5254,-4.5137,-4.536,-4.5753,-4.6153,-4.6093,-4.6123,-2.8392,-2.6441,-2.6285,-2.6127,-2.6116,-2.6896,-2.7733,-2.85,-2.8679,-2.8555,-2.825,-2.7751,-2.7149,-2.6288,-2.5536,0.0,0.0,0.0,-2.7322,-2.7819,-2.82,-2.8463,-2.85,-2.8654,-2.8774,-2.8932,-2.8821,-2.8754,-2.8831,-2.7963,-2.6756,-2.5242,0.0,-2.35,-2.3392,-2.3832,-2.4556,-2.5512,-2.6143,-2.669,-2.7116,-2.7297,-2.7569,-2.8017,-2.7553,-2.7341,-2.7459,-2.6603,-2.5876,-2.5286,-2.4309,-2.3275,0.0,0.0,0.0,0.0,0.0,0.0,0.0,0.0,0.0,0.0,0.0,-1.8133,-1.8702,0.0,0.0,0.0,-2.3202,-2.4619,-2.5887,-2.5324,0.0,0.0,0.0,0.0,0.0,0.0,0.0,-2.9211,-3.1774,-3.4504,-3.7194,-3.833,-3.9414,-4.1007,-4.1676,-4.2187,-4.2832,0.0,-4.3652,-4.3828,-4.4219,-4.4453,-4.4375,-4.5326,-4.6337,-4.7287,-4.8572,-4.9494,-4.9245,-4.9355,-4.9528,-4.9786,-5.0145,-5.0501,-5.0786,-4.9871,-4.8894,-4.8395,-4.8444,-4.8759,-4.915,-4.914,-4.9189,-3.0882,-3.0988,-2.9165,-2.8538,-2.8854,-2.8843,-2.9571,-3.0577,-3.0243,-3.0231,-3.0169,-2.9663,-2.88,-2.7664,-2.6944,0.0,-2.7664,-2.7923,-2.845,-2.9091,-2.932,-2.9308,-2.9067,-2.9356,-2.955,-2.9721,-2.9495,-2.9544,-2.99,-2.9112,-2.8525,-2.8102,-2.6265,-2.5205,-2.4995,-2.5251,-2.5796,-2.683,-2.7144,-2.7588,-2.8332,-2.8683,-2.8952,-2.9116,-2.8807,-2.8358,-2.7819,-2.7481,-2.7041,-2.6544,-2.5827,-2.4994,-2.3839,0.0,0.0,0.0,0.0,0.0,0.0,0.0,0.0,0.0,0.0,0.0,0.0,0.0,0.0,-2.3489,-2.5643,0.0,-2.7536,-2.7186,0.0,0.0,0.0,-2.6896,-2.6896,-2.882,-3.0865,-3.2741,0.0,0.0,-3.9357,-4.1057,-4.2245,-4.2606,-4.3016,-4.3379,-4.3808,-4.4297,-4.4746,-4.5117,-4.5547,-4.5957,-4.6298,-4.7153,-4.829,-4.9547,-5.0239,-5.0508,-5.0508,-5.0772,-5.1144,-5.119,-5.1911,-5.2347,-5.2003,-5.2063,-5.2075,-5.0595,-5.0415,-5.0578,-5.094,-5.0966,-5.1006,-3.2121,-3.2157,-3.1666,-3.0952,-3.0186,-3.0387,-3.066,-3.0915,-3.0854,-3.072,-3.0514,-3.0392,-2.9864,-2.9219,-2.9061,-2.8953,-2.8944,-2.9195,-2.945,-2.961,-2.967,-2.967,-2.9586,-3.0018,-3.0126,-3.0039,-3.0462,-3.0583,-3.0247,-2.982,-2.9397,-2.9158,-2.8379,-2.7561,-2.6583,-2.6635,-2.6996,-2.7839,-2.8484,-2.9012,-2.9577,-2.9676,-2.9663,-2.9542,-2.9229,-2.8919,-2.8602,-2.8052,-2.7546,-2.7231,-2.659,-2.5761,-2.4809,-2.3515,0.0,0.0,0.0,0.0,0.0,0.0,0.0,0.0,0.0,-2.096,-2.229,0.0,-2.4732,0.0,-2.8216,-2.9727,-3.0371,-2.9952,0.0,0.0,-3.0107,-3.0607,-3.0623,-3.2538,-3.4556,-3.6272,-3.7704,-3.9363,-4.1511,-4.2926,-4.4095,-4.4722,-4.4706,-4.4707,-4.5156,-4.5859,-4.6367,-4.6484,-4.6816,-4.7168,-4.7355,-4.8365,-4.9587,-5.06,-5.115,-5.146,-5.146,-5.1571,-5.175,-5.2066,-5.1993,-5.2182,-5.2712,-5.2412,-5.2021,-5.1947,-5.1703,-5.1524,-5.2,-5.2012,-5.2084,-3.2612,-3.293,-3.2809,-3.2398,-3.1642,-3.1592,-3.1469,-3.136,-3.136,-3.1203,-3.095,-3.0829,-3.0612,-3.0334,-3.0214,-3.0081,-2.9948,-2.9972,-2.9984,-2.9984,-2.9984,-2.9924,-2.9779,-3.0169,-3.032,-3.0331,-3.0681,-3.0876,-3.0742,-3.0327,-3.0034,-2.9873,-2.9446,-2.8905,-2.8182,-2.8036,-2.8207,-2.8879,-2.947,-3.0068,-3.0496,-3.0368,-3.0225,-3.0155,-2.9563,-2.9174,-2.89,-2.8286,-2.7803,-2.7481,-2.713,-2.6559,-2.574,-2.4785,-2.3833,0.0,0.0,0.0,0.0,0.0,0.0,0.0,0.0,0.0,0.0,0.0,-2.7276,-2.9457,-3.0825,-3.1856,-3.2691,-3.239,-3.2206,-3.23,-3.3037,-3.3754,-3.4325,-3.6174,-3.7914,-3.9276,-4.0525,-4.1933,-4.367,-4.4673,-4.5551,-4.6404,-4.6445,-4.6465,-4.6543,-4.6953,-4.7285,-4.748,-4.7695,-4.813,-4.865,-4.9452,-5.0247,-5.117,-5.1626,-5.1791,-5.1791,-5.1791,-5.1882,-5.2132,-5.2123,-5.214,-5.2461,-5.2389,-5.2175,-5.215,-5.195,-5.1918,-5.2125,-5.2215,-5.2511,-3.2773,-3.34,-3.3135,-3.3014,-3.2942,-3.2495,-3.2133,-3.1855,-3.1819,-3.1674,-3.1421,-3.1203,-3.1083,-3.1034,-3.0769,-3.0636,-3.0588,-3.0334,-3.0214,-3.0214,-3.0214,-3.0093,-2.9839,-3.0181,-3.0413,-3.0611,-3.0661,-3.0833,-3.1209,-3.0715,-3.0448,-3.0394,-2.99,-2.9646,-2.9646,-2.9392,-2.9481,-2.9923,-3.0399,-3.092,-3.1325,-3.1052,-3.0863,-3.0734,-2.9968,-2.9295,-2.8842,-2.8271,-2.7713,-2.7452,-2.7452,-2.7203,-2.6588,-2.6088,-2.5524,0.0,-2.4202,0.0,0.0,0.0,0.0,0.0,0.0,0.0,0.0,-2.7958,-3.006,-3.2638,-3.3204,-3.3722,-3.4501,-3.4728,-3.4789,-3.5061,-3.5749,-3.6765,-3.7836,-3.9431,-4.0833,-4.194,-4.3112,-4.4376,-4.5628,-4.6289,-4.6944,-4.7699,-4.8221,-4.828,-4.7993,-4.7844,-4.7891,-4.8242,-4.834,-4.8849,-5.0031,-5.0366,-5.0692,-5.1623,-5.1833,-5.1791,-5.1791,-5.1791,-5.1791,-5.1791,-5.2132,-5.2255,-5.1899,-5.2121,-5.2153,-5.1917,-5.1761,-5.1729,-5.1791,-5.2187,-5.252,-3.3553,-3.369,-3.3412,-3.3183,-3.2978,-3.2869,-3.2567,-3.2109,-3.1904,-3.1783,-3.1722,-3.1674,-3.1529,-3.13,-3.1034,-3.0805,-3.06,-3.0334,-3.0214,-3.0214,-3.0214,-3.0189,-3.0117,-3.0864,-3.1084,-3.0891,-3.1526,-3.1595,-3.1223,-3.1116,-3.0942,-3.0715,-3.0595,-3.0541,-3.0541,0.0,0.0,0.0,-3.1399,-3.1859,-3.2426,-3.2441,-3.1872,-3.0861,-3.0407,0.0,-2.8578,-2.8154,-2.7671,-2.713,-2.7335,0.0,0.0,0.0,0.0,0.0,0.0,0.0,0.0,0.0,0.0,0.0,-2.9984,-3.0269,-2.9641,-3.1379,-3.3141,-3.4307,-3.48,-3.5328,-3.6107,-3.6743,-3.7313,-3.7778,-3.9108,-4.0113,-4.0359,-4.1555,-4.2806,-4.3676,-4.4663,-4.5803,-4.7022,-4.7958,-4.8632,-4.9172,-4.9662,-4.9882,-4.9731,-4.9143,-4.8725,-4.875,-4.9023,-4.9787,-5.127,-5.1101,-5.1157,-5.2055,-5.204,-5.1833,-5.1791,-5.1791,-5.1791,-5.1791,-5.1882,-5.2041,-5.2276,-5.1892,-5.1456,-5.1785,-5.1509,-5.1371,-5.1707,-5.2103,-5.2415,-3.4362,-3.4228,-3.4419,-3.4308,0.0,-3.3924,-3.3627,-3.3134,-3.2324,-3.1928,-3.1807,-3.1807,-3.1735,-3.1578,-3.1179,-3.0926,-3.0781,-3.0395,-3.0214,-3.0214,-3.0214,-3.0315,-3.0607,-3.0839,-3.1148,-3.1359,-3.1561,-3.159,-3.145,-3.1289,-3.1156,-3.1009,-3.0862,-3.0795,-3.0795,-3.1058,-3.1368,-3.1881,-3.2217,-3.2598,-3.2923,-3.2851,-3.2222,-3.111,-3.0598,0.0,0.0,0.0,0.0,0.0,0.0,0.0,0.0,-2.8611,-2.8912,-2.9154,-2.9441,-2.9807,-3.0546,-3.1137,-3.1858,-3.2711,-3.4064,-3.4278,-3.2968,-3.418,-3.5443,-3.6492,-3.6726,-3.7232,-3.8272,-3.8735,-3.9286,-3.999,-4.0758,-4.1496,-4.2252,-4.3211,-4.4253,-4.5178,-4.6219,-4.7287,-4.8256,-4.8922,-4.9502,-4.9884,-5.0176,-5.0437,-5.0527,-5.0013,-4.9517,-4.9566,-4.9668,-5.0204,-5.1041,-5.141,-5.1428,-5.1965,-5.2105,-5.206,-5.1833,-5.1791,-5.1791,-5.1791,-5.1791,-5.1882,-5.2,-5.158,-5.1127,-5.1305,-5.106,-5.0866,-5.1097,-5.1601,-5.2187,-3.5129,-3.4994,-3.5383,-3.5418,-3.5138,-3.4922,-3.463,-3.419,-3.3011,0.0,0.0,-3.2127,-3.202,-3.1877,-3.1344,-3.1102,-3.0962,-3.0557,-3.0315,-3.0315,-3.0416,-3.072,-3.11,-3.0989,-3.1199,-3.1653,-3.1613,-3.1627,-3.1664,-3.1423,-3.1303,-3.1289,-3.1062,-3.0942,-3.0955,-3.1405,-3.196,-3.2407,-3.2839,-3.3139,-3.3332,-3.3158,-3.2559,-3.1593,-3.0993,-3.0364,-2.9661,-2.9325,-2.9198,-2.9233,-2.9277,-2.9464,-2.9964,-3.0344,-3.0809,-3.1345,-3.1752,-3.2445,-3.3545,-3.4071,-3.4938,-3.6371,-3.7342,-3.7301,-3.5974,-3.6557,-3.7361,-3.8433,-3.8588,-3.904,-4.0123,-4.0474,-4.0895,-4.1756,-4.1915,-4.2554,-4.3751,-4.4617,-4.542,-4.6388,-4.7581,-4.8623,-4.9142,-4.9663,-5.0156,-5.0611,-5.0752,-5.0863,-5.1174,-5.0883,-5.0516,-5.0629,-5.0653,-5.0787,-5.132,-5.1637,-5.1812,-5.1871,-5.2077,-5.2055,-5.1755,-5.1701,-5.1701,-5.1791,-5.1791,-5.1791,-5.175,-5.1417,-5.1119,-5.1078,-5.0755,-5.0485,-5.057,-5.1271,-5.1925,-3.5633,-3.5826,-3.5685,-3.5418,-3.5151,-3.5126,-3.4808,-3.4286,-3.3564,-3.3323,-3.3298,-3.3286,-3.2967,-3.241,-3.196,-3.1414,-3.1066,-3.0966,-3.091,-3.0923,-3.1315,-3.1617,-3.1706,-3.207,-3.2073,-3.1777,-3.2213,-3.2198,-3.1717,-3.1623,-3.161,-3.1597,-3.157,-3.1543,-3.1638,-3.2002,-3.2567,-3.3037,-3.3329,-3.3649,-3.408,-3.4036,-3.3554,-3.2617,-3.2193,-3.1563,-3.0656,-3.032,-3.0255,-3.039,-3.0644,-3.1037,-3.1457,-3.2104,-3.2799,-3.3426,-3.4291,-3.5048,-3.5757,-3.66,-3.7545,-3.8719,-3.901,-3.8708,-3.8006,-3.8275,-3.8737,-3.9297,-3.9666,-4.0,-4.0263,-4.1302,-4.2084,-4.2638,-4.3341,-4.4138,-4.5032,-4.5596,-4.6304,-4.7301,-4.8323,-4.9232,-5.0074,-5.0559,-5.1218,-5.1902,-5.2066,-5.2333,-5.2462,-5.2087,-5.1691,-5.1938,-5.2038,-5.2389,-5.2856,-5.264,-5.2276,-5.2279,-5.1727,-5.1382,-5.13,-5.1268,-5.1338,-5.1701,-5.1791,-5.1791,-5.1791,-5.1398,-5.1114,-5.112,-5.1015,-5.0854,-5.0899,-5.1614,-5.2132,-3.6718,-3.6678,-3.6723,-3.6662,-3.6361,-3.5903,-3.555,-3.5262,-3.47,-3.4028,-3.3498,-3.3498,-3.3392,-3.3023,-3.2483,-3.2128,-3.1896,-3.1565,-3.1416,-3.1416,-3.1718,-3.2008,-3.2209,-3.2511,-3.2489,-3.2406,-3.2674,-3.2478,-3.1957,-3.1904,-3.1824,-3.169,-3.1948,-3.2232,-3.2516,-3.2974,-3.3351,-3.354,-3.3679,-3.3908,-3.4227,-3.4212,-3.3846,-3.3056,-3.288,-3.2441,-3.1651,-3.1476,-3.1494,-3.1669,-3.1804,-3.2214,-3.2896,-3.356,-3.4251,-3.4823,-3.5793,-3.685,-3.7834,-3.9115,-4.0021,-4.0542,-4.0559,-4.0623,-4.0571,-4.0314,-4.0249,-4.0445,-4.1049,-4.162,-4.1924,-4.2712,-4.3398,-4.3815,-4.4197,-4.4745,-4.564,-4.625,-4.7002,-4.815,-4.914,-4.9944,-5.0649,-5.142,-5.1952,-5.2495,-5.2847,-5.3292,-5.3423,-5.3337,-5.3019,-5.2746,-5.2691,-5.2867,-5.3336,-5.3023,-5.2605,-5.2371,-5.1852,-5.1315,-5.1148,-5.1087,-5.1177,-5.1429,-5.161,-5.1791,-5.1791,-5.1419,-5.117,-5.1067,-5.0824,-5.073,-5.0777,-5.1302,-5.1657,-3.7734,-3.7548,-3.7715,-3.7609,-3.7208,-3.642,-3.6072,-3.6019,-3.5444,-3.4663,-3.3922,-3.3922,-3.3816,-3.3659,-3.3108,-3.2853,-3.2673,-3.2162,-3.2008,-3.2021,-3.2109,-3.2423,-3.2712,-3.2812,-3.2854,-3.3013,-3.2986,-3.2706,-3.2251,-3.2198,-3.2147,-3.2083,-3.2422,-3.2855,-3.3177,-3.3634,-3.3916,-3.3916,-3.401,-3.419,-3.4344,-3.4329,-3.4051,-3.3524,-3.3466,-3.3188,-3.2661,-3.2617,-3.2748,-3.3033,-3.3105,-3.3523,-3.4416,-3.4987,-3.5492,-3.5955,-3.7031,-3.8326,-3.9691,-4.1001,-4.1748,-4.1834,-4.1748,-4.1917,-4.2435,-4.208,-4.1769,-4.1786,-4.247,-4.3087,-4.3396,-4.3905,-4.4342,-4.4783,-4.482,-4.5334,-4.6234,-4.6701,-4.7592,-4.8973,-5.0002,-5.0701,-5.1393,-5.2137,-5.2702,-5.2909,-5.3489,-5.3965,-5.4048,-5.4222,-5.4122,-5.3569,-5.3377,-5.3377,-5.3281,-5.3281,-5.2963,-5.2409,-5.1952,-5.1457,-5.1129,-5.1056,-5.1158,-5.1229,-5.1581,-5.1721,-5.1771,-5.1543,-5.1336,-5.1294,-5.1067,-5.0886,-5.1084,-5.1136,-5.1498,-3.7966,-3.8122,-3.7956,-3.7489,-3.6954,-3.634,-3.6086,-3.5992,-3.5458,-3.5191,-3.4993,-3.5085,-3.4768,-3.4162,-3.3733,-3.3266,-3.2814,-3.2568,-3.2611,-3.2611,-3.3013,-3.3314,-3.3314,-3.3314,-3.3154,-3.3013,-3.3,-3.2839,-3.2616,-3.2589,-3.2649,-3.2859,-3.331,-3.3443,-3.3299,-3.3728,-3.3916,-3.3916,-3.4414,-3.4587,-3.4666,-3.4651,-3.449,-3.4139,-3.4124,-3.3963,-3.3583,-3.3597,-3.4036,-3.4833,-3.4862,-3.5342,-3.6205,-3.6374,-3.6638,-3.6956,-3.8266,-3.9724,-4.1229,-4.1569,-4.1885,-4.2159,-4.1919,-4.2072,-4.2929,-4.297,-4.3001,-4.3111,-4.3608,-4.3884,-4.3994,-4.4416,-4.4801,-4.5205,-4.5242,-4.5742,-4.6969,-4.7307,-4.8018,-4.9894,-5.0603,-5.1267,-5.2014,-5.2755,-5.3282,-5.3613,-5.4048,-5.4399,-5.4399,-5.4366,-5.4449,-5.4354,-5.4354,-5.4258,-5.4238,-5.3951,-5.3386,-5.2524,-5.1908,-5.1459,-5.1175,-5.1076,-5.1105,-5.1331,-5.1696,-5.1874,-5.1791,-5.175,-5.1708,-5.1626,-5.1584,-5.1695,-5.2123,-5.1962,-5.1984,-3.8419,-3.8504,-3.821,-3.7742,-3.7155,-3.658,-3.6233,-3.6032,-3.5631,-3.5364,-3.5204,-3.552,-3.5507,-3.5256,-3.508,-3.4795,-3.455,-3.4172,-3.4,-3.4,-3.3914,-3.39,-3.3814,-3.3514,-3.3347,-3.324,-3.324,-3.3278,-3.3304,-3.3406,-3.363,-3.3987,-3.4106,-3.4236,-3.4377,-3.4407,-3.4414,-3.4399,-3.4601,-3.471,-3.471,-3.471,-3.4636,-3.4519,-3.4505,-3.4344,-3.4051,-3.4282,-3.4651,-3.5212,-3.5452,-3.5887,-3.6606,-3.6797,-3.7158,-3.789,-3.9653,-4.1059,-4.2022,-4.2262,-4.245,-4.2621,-4.2769,-4.3131,-4.3726,-4.4168,-4.4454,-4.4717,-4.4815,-4.4762,-4.4799,-4.5149,-4.5462,-4.5608,-4.5645,-4.6093,-4.727,-4.761,-4.8382,-4.9939,-5.0943,-5.163,-5.2299,-5.3126,-5.3643,-5.4151,-5.4441,-5.4544,-5.4544,-5.4544,-5.4544,-5.4544,-5.4544,-5.4544,-5.4449,-5.4142,-5.3658,-5.3113,-5.2299,-5.1543,-5.1404,-5.1403,-5.1436,-5.1339,-5.1851,-5.206,-5.1833,-5.1812,-5.1791,-5.1791,-5.1791,-5.1882,-5.2062,-5.1917,-5.2045,-3.8718,-3.8664,-3.8303,-3.7849,-3.7342,-3.6754,-3.634,-3.6046,-3.5752,-3.5577,-3.552,-3.6033,-3.6348,-3.6384,-3.6195,-3.6019,-3.5865,-3.5375,-3.5081,-3.5025,-3.4612,-3.4399,-3.4399,-3.4,-3.3814,-3.3814,-3.39,-3.3991,-3.4182,-3.4465,-3.4686,-3.4961,-3.4866,-3.4951,-3.5134,-3.4856,-3.471,-3.471,-3.471,-3.471,-3.471,-3.471,-3.471,-3.471,-3.471,-3.4592,-3.4373,-3.4792,-3.5241,-3.5471,-3.5895,-3.644,-3.6908,-3.7226,-3.7899,-3.8998,-4.0674,-4.1856,-4.2433,-4.2707,-4.2765,-4.2861,-4.334,-4.3817,-4.437,-4.4845,-4.5318,-4.5753,-4.5627,-4.5462,-4.5498,-4.5718,-4.5883,-4.5883,-4.5978,-4.6484,-4.7478,-4.795,-4.8744,-5.02,-5.1121,-5.2,-5.2686,-5.3443,-5.4172,-5.4441,-5.4524,-5.4544,-5.4544,-5.4544,-5.4544,-5.4544,-5.4544,-5.4544,-5.4449,-5.4238,-5.3951,-5.3603,-5.2786,-5.2263,-5.2088,-5.2033,-5.1892,-5.1962,-5.2292,-5.2238,-5.1915,-5.1791,-5.1833,-5.1812,-5.1812,-5.1833,-5.1882,-5.1771,-5.1951,-3.8718,-3.8638,-3.809,-3.7676,-3.7342,-3.6767,-3.6353,-3.6086,-3.5778,-3.5803,-3.5982,-3.6572,-3.7187,-3.7472,-3.682,-3.6215,-3.5907,-3.5686,-3.5377,-3.5124,-3.4997,-3.5011,-3.5011,-3.4897,-3.4911,-3.4812,-3.4812,-3.4883,-3.4955,-3.5451,-3.5605,-3.5304,-3.5473,-3.5456,-3.5178,-3.4871,-3.471,-3.471,-3.471,-3.471,-3.471,-3.471,-3.471,-3.471,-3.471,-3.4695,-3.4759,-3.5118,-3.5647,-3.6112,-3.6575,-3.713,-3.7655,-3.7957,-3.8904,-4.045,-4.1297,-4.1975,-4.2663,-4.2748,-4.2861,-4.2861,-4.334,-4.3817,-4.4388,-4.4939,-4.5412,-4.5902,-4.5883,-4.5865,-4.5959,-4.6014,-4.6033,-4.6033,-4.639,-4.7047,-4.7951,-4.8556,-4.9355,-5.0488,-5.1277,-5.2219,-5.3481,-5.4197,-5.4366,-5.4428,-5.4544,-5.4544,-5.4544,-5.4544,-5.4544,-5.4544,-5.4544,-5.4544,-5.4544,-5.4449,-5.4238,-5.3931,-5.3583,-5.3371,-5.3174,-5.2876,-5.2714,-5.2474,-5.2652,-5.2445,-5.2019,-5.1833,-5.1915,-5.1936,-5.1915,-5.1915,-5.1812,-5.1791,-5.1882,-3.8718,-3.8664,-3.8076,-3.7756,-3.7595,-3.7034,-3.662,-3.6353,-3.668,-3.6571,-3.6481,-3.7364,-3.7791,-3.7681,-3.7789,-3.7443,-3.6954,-3.6623,-3.6306,-3.6032,-3.5706,-3.5508,-3.5508,-3.521,-3.5011,-3.5011,-3.5011,-3.521,-3.5508,-3.6004,-3.6243,-3.6068,-3.5798,-3.5669,-3.5397,-3.4958,-3.471,-3.471,-3.471,-3.471,-3.471,-3.471,-3.471,-3.471,-3.471,-3.471,-3.471,-3.5428,-3.6078,-3.6478,-3.7242,-3.7913,-3.8322,-3.9318,-4.0289,-4.1219,-4.1947,-4.2516,-4.2731,-4.2765,-4.2957,-4.334,-4.3817,-4.4275,-4.4845,-4.5318,-4.5695,-4.5938,-4.614,-4.6345,-4.6742,-4.6837,-4.6837,-4.6874,-4.7458,-4.8102,-4.8786,-4.9301,-5.001,-5.0781,-5.1497,-5.2427,-5.3391,-5.3951,-5.4142,-5.4449,-5.4544,-5.4544,-5.4544,-5.4544,-5.4544,-5.4544,-5.4544,-5.4544,-5.4544,-5.4544,-5.4449,-5.4258,-5.4026,-5.3719,-5.3562,-5.3542,-5.3365,-5.2956,-5.3002,-5.3054,-5.264,-5.2495,-5.2474,-5.2267,-5.2247,-5.204,-5.1853,-5.1853,-5.1812,-3.8718,-3.8624,-3.8063,-3.7809,-3.7742,-3.7417,-3.7001,-3.6855,-3.7374,-3.7533,-3.7424,-3.7907,-3.8158,-3.8167,-3.8379,-3.8192,-3.7607,-3.7344,-3.7022,-3.6626,-3.6202,-3.6004,-3.6004,-3.5706,-3.5508,-3.5508,-3.5508,-3.5706,-3.6004,-3.64,-3.6539,-3.6407,-3.5895,-3.5684,-3.5699,-3.5241,-3.4976,-3.5163,-3.4976,-3.4882,-3.4882,-3.4803,-3.4789,-3.4882,-3.4882,-3.4882,-3.4976,-3.5813,-3.6526,-3.6929,-3.7821,-3.8607,-3.9132,-4.0152,-4.1112,-4.1706,-4.242,-4.2765,-4.2861,-4.2957,-4.3244,-4.3626,-4.4293,-4.4768,-4.5129,-4.5601,-4.5938,-4.6103,-4.6495,-4.6983,-4.7436,-4.7853,-4.8081,-4.7892,-4.8462,-4.9072,-4.9588,-5.005,-5.0455,-5.1016,-5.1714,-5.2451,-5.3165,-5.3548,-5.3951,-5.4238,-5.4354,-5.4544,-5.4544,-5.4544,-5.4544,-5.4544,-5.4544,-5.4544,-5.4544,-5.4544,-5.4544,-5.4354,-5.4258,-5.4047,-5.3951,-5.3951,-5.3903,-5.3534,-5.3382,-5.3478,-5.3406,-5.324,-5.3013,-5.2764,-5.2495,-5.2288,-5.2102,-5.1895,-5.1853,-3.8718,-3.8638,-3.8076,-3.7809,-3.7842,-3.7751,-3.7675,-3.7551,-3.8069,-3.8429,-3.8426,-3.8339,-3.8513,-3.8833,-3.8556,-3.8192,-3.7695,-3.7592,-3.7212,-3.6641,-3.6513,-3.6528,-3.6542,-3.6513,-3.6612,-3.6612,-3.6597,-3.6597,-3.6696,-3.6696,-3.6564,-3.6256,-3.5933,-3.5912,-3.5951,-3.5637,-3.56,-3.5894,-3.56,-3.5428,-3.5335,-3.5114,-3.5143,-3.5394,-3.5488,-3.5503,-3.5473,-3.6306,-3.6959,-3.7429,-3.8261,-3.9148,-3.9947,-4.0618,-4.1228,-4.1975,-4.2556,-4.2765,-4.2895,-4.3279,-4.36,-4.394,-4.4631,-4.516,-4.5386,-4.5747,-4.614,-4.6529,-4.7057,-4.7569,-4.8038,-4.9166,-4.9531,-4.8919,-4.9206,-4.9704,-5.0146,-5.0532,-5.0976,-5.1289,-5.1814,-5.2181,-5.2491,-5.3068,-5.376,-5.3951,-5.4238,-5.4544,-5.4544,-5.4544,-5.4544,-5.4544,-5.4544,-5.4544,-5.4544,-5.4544,-5.4544,-5.4449,-5.4449,-5.4354,-5.4354,-5.4333,-5.4135,-5.3941,-5.3879,-5.3903,-5.3758,-5.3592,-5.3447,-5.3199,-5.2888,-5.2557,-5.2309,-5.2102,-5.1874,-3.8718,-3.8651,-3.8063,-3.8049,-3.8307,-3.7974,-3.7991,-3.8347,-3.8895,-3.9147,-3.9063,-3.9068,-3.914,-3.8877,-3.8675,-3.8309,-3.7929,-3.7885,-3.7446,-3.6729,-3.6626,-3.6744,-3.696,-3.711,-3.7401,-3.7598,-3.7712,-3.7697,-3.7598,-3.7303,-3.7243,-3.7373,-3.6587,-3.6481,-3.6682,-3.6291,-3.608,-3.6173,-3.608,-3.6093,-3.6306,-3.6148,-3.6254,-3.656,-3.667,-3.678,-3.7159,-3.7225,-3.7474,-3.8084,-3.8703,-3.9596,-4.0672,-4.1428,-4.1958,-4.2539,-4.2669,-4.2981,-4.3203,-4.3721,-4.4325,-4.4808,-4.5555,-4.6037,-4.6439,-4.6594,-4.6764,-4.7025,-4.7632,-4.8279,-4.8894,-4.9816,-5.0242,-4.9704,-5.0378,-5.0745,-5.0862,-5.1114,-5.1289,-5.1387,-5.1523,-5.1911,-5.2607,-5.3185,-5.3569,-5.4142,-5.4333,-5.4544,-5.4544,-5.4544,-5.4544,-5.4544,-5.4544,-5.4544,-5.4544,-5.4544,-5.4544,-5.4544,-5.4544,-5.4544,-5.4544,-5.4524,-5.442,-5.4337,-5.4296,-5.4213,-5.4089,-5.3965,-5.384,-5.3613,-5.3302,-5.293,-5.2557,-5.2267,-5.204,-3.8718,-3.8664,-3.8183,-3.8257,-3.8687,-3.8417,-3.8584,-3.905,-3.9695,-3.9813,-3.9676,-3.9485,-3.9407,-3.9143,-3.8748,-3.8368,-3.809,-3.8061,-3.7665,-3.7051,-3.6963,-3.7195,-3.7543,-3.7979,-3.8181,-3.8288,-3.8386,-3.831,-3.8203,-3.7893,-3.7833,-3.7831,-3.7151,-3.6913,-3.7157,-3.6759,-3.6591,-3.6901,-3.6745,-3.6806,-3.7082,-3.697,-3.7062,-3.7451,-3.7482,-3.783,-3.8386,-3.8213,-3.8292,-3.878,-3.9339,-4.0206,-4.1208,-4.1904,-4.2471,-4.2891,-4.3221,-4.3409,-4.3695,-4.4296,-4.4869,-4.5488,-4.6125,-4.6707,-4.6997,-4.7112,-4.7149,-4.7642,-4.8312,-4.9023,-4.9776,-5.0473,-5.0804,-5.0591,-5.1056,-5.1328,-5.1445,-5.1445,-5.1426,-5.1426,-5.162,-5.2008,-5.2491,-5.3185,-5.3473,-5.4142,-5.4354,-5.4544,-5.4544,-5.4544,-5.4544,-5.4544,-5.4544,-5.4544,-5.4544,-5.4544,-5.4544,-5.4544,-5.4544,-5.4544,-5.4544,-5.4544,-5.4482,-5.4482,-5.4441,-5.442,-5.4317,-5.4358,-5.4275,-5.3985,-5.3696,-5.3323,-5.293,-5.2454,-5.2164,-3.8718,-3.8678,-3.8384,-3.8432,-3.8868,-3.9001,-3.9264,-3.9781,-4.0315,-4.0519,-4.0343,-3.9787,-3.9509,-3.9363,-3.8821,-3.8382,-3.8148,-3.8134,-3.809,-3.7811,-3.7825,-3.8027,-3.853,-3.9033,-3.9066,-3.8875,-3.8844,-3.8691,-3.8513,-3.8301,-3.8148,-3.7985,-3.7648,-3.7375,-3.7632,-3.7258,-3.7569,-3.8179,-3.7836,-3.7915,-3.8244,-3.7784,-3.783,-3.8259,-3.829,-3.8607,-3.9196,-3.9163,-3.926,-3.9403,-4.0045,-4.0788,-4.1403,-4.2154,-4.2889,-4.3426,-4.3786,-4.3923,-4.4205,-4.4892,-4.5532,-4.5718,-4.6615,-4.7167,-4.7277,-4.7332,-4.7539,-4.8285,-4.8944,-4.9679,-5.0491,-5.1114,-5.1406,-5.1426,-5.1387,-5.1445,-5.1426,-5.1426,-5.1523,-5.162,-5.1911,-5.2278,-5.2491,-5.3261,-5.3664,-5.3951,-5.4238,-5.4449,-5.4544,-5.4544,-5.4544,-5.4544,-5.4544,-5.4544,-5.4544,-5.4544,-5.4544,-5.4544,-5.4544,-5.4544,-5.4544,-5.4544,-5.4544,-5.4544,-5.4544,-5.4544,-5.4544,-5.4544,-5.4544,-5.4358,-5.4027,-5.3696,-5.322,-5.2702,-5.2226,-3.8718,-3.8691,-3.8384,-3.8796,-3.9598,-3.9532,-3.9895,-4.0635,-4.0731,-4.0694,-4.0387,-3.9802,-3.9509,-3.9436,-3.8836,-3.8485,-3.8412,-3.8397,-3.8708,-3.8914,-3.8899,-3.9215,-3.955,-3.9961,-4.0062,-3.9877,-3.9814,-3.9724,-3.9394,-3.8987,-3.8925,-3.9236,-3.8473,-3.8462,-3.9101,-3.886,-3.914,-3.9691,-3.9597,-3.9682,-3.9896,-3.9866,-4.0091,-4.0334,-4.0029,-3.9885,-4.011,-4.0074,-4.0059,-4.0207,-4.0755,-4.1436,-4.2171,-4.2809,-4.3385,-4.382,-4.394,-4.4128,-4.4532,-4.5375,-4.5992,-4.6474,-4.731,-4.7974,-4.7974,-4.7974,-4.8128,-4.8534,-4.9124,-4.998,-5.0618,-5.1423,-5.1933,-5.2246,-5.1855,-5.1504,-5.1465,-5.1717,-5.2008,-5.2104,-5.2394,-5.2876,-5.3261,-5.3569,-5.3951,-5.4258,-5.4354,-5.4544,-5.4544,-5.4544,-5.4544,-5.4544,-5.4544,-5.4544,-5.4544,-5.4544,-5.4544,-5.4544,-5.4544,-5.4544,-5.4544,-5.4544,-5.4544,-5.4544,-5.4544,-5.4544,-5.4544,-5.4544,-5.4544,-5.4544,-5.4234,-5.382,-5.3302,-5.2785,-5.2329,-3.8718,-3.8718,-3.8748,-3.9302,-4.0092,-4.0123,-4.0473,-4.092,-4.0973,-4.0782,-4.0402,-3.9802,-3.9524,-3.9451,-3.8836,-3.8647,-3.8855,-3.8841,-3.9256,-3.967,-3.995,-4.0164,-4.0443,-4.0857,-4.0879,-4.0562,-4.0499,-4.0213,-3.9847,-3.9475,-3.9557,-3.9591,-3.9113,-3.9244,-3.9851,-3.9671,-3.9842,-4.0318,-4.054,-4.0722,-4.0958,-4.0991,-4.1073,-4.1175,-4.1014,-4.0853,-4.0756,-4.0801,-4.0898,-4.1016,-4.149,-4.2061,-4.2832,-4.3509,-4.3974,-4.4214,-4.4368,-4.4573,-4.491,-4.576,-4.6363,-4.6858,-4.769,-4.8187,-4.8267,-4.8286,-4.8403,-4.9021,-4.9634,-5.0356,-5.1057,-5.1848,-5.2362,-5.2558,-5.2266,-5.1894,-5.1738,-5.2029,-5.2104,-5.2394,-5.2876,-5.3377,-5.376,-5.3951,-5.4238,-5.4449,-5.4449,-5.4544,-5.4544,-5.4544,-5.4565,-5.4606,-5.4586,-5.4586,-5.4565,-5.4565,-5.4544,-5.4544,-5.4544,-5.4544,-5.4544,-5.4544,-5.4544,-5.4544,-5.4544,-5.4544,-5.4544,-5.4544,-5.4544,-5.4461,-5.4118,-5.3882,-5.3364,-5.2992,-5.2516,-3.8834,-3.895,-3.9515,-3.9941,-4.0304,-4.0818,-4.1054,-4.0993,-4.106,-4.0841,-4.0416,-3.9831,-3.9626,-3.9524,-3.9026,-3.8973,-3.9509,-3.9465,-3.994,-4.0459,-4.0842,-4.1146,-4.1027,-4.1463,-4.1335,-4.0912,-4.0817,-4.0419,-3.999,-3.9816,-3.9768,-3.9704,-3.9434,-3.9596,-3.998,-3.9896,-4.0165,-4.0855,-4.1207,-4.134,-4.1478,-4.1527,-4.1657,-4.1594,-4.1613,-4.1456,-4.1473,-4.1601,-4.1863,-4.1912,-4.2245,-4.2757,-4.3318,-4.4152,-4.4422,-4.4642,-4.4899,-4.5138,-4.5291,-4.6132,-4.677,-4.7042,-4.7808,-4.8414,-4.8506,-4.8561,-4.887,-4.9629,-5.0265,-5.0972,-5.1897,-5.2513,-5.283,-5.2969,-5.2851,-5.2578,-5.2345,-5.2266,-5.2337,-5.2394,-5.3261,-5.376,-5.3951,-5.4142,-5.4544,-5.4449,-5.4544,-5.4544,-5.4606,-5.4689,-5.471,-5.4731,-5.4689,-5.4648,-5.4627,-5.4586,-5.4565,-5.4544,-5.4544,-5.4544,-5.4544,-5.4544,-5.4544,-5.4544,-5.4544,-5.4544,-5.4544,-5.4544,-5.4544,-5.4524,-5.4379,-5.3923,-5.3427,-5.3199,-5.2826,-4.0208,-4.0194,-4.031,-4.0742,-4.1159,-4.136,-4.1357,-4.1353,-4.1338,-4.1002,-4.049,-4.0051,-3.989,-3.986,-3.9451,-3.9608,-4.0077,-4.0183,-4.0665,-4.1686,-4.1958,-4.1744,-4.1562,-4.1683,-4.1509,-4.1113,-4.0912,-4.0578,-4.0213,-3.9943,-3.9768,-3.9768,-3.9786,-3.9932,-4.0287,-4.0625,-4.1186,-4.1749,-4.215,-4.2279,-4.233,-4.2381,-4.2381,-4.2432,-4.2395,-4.2473,-4.2592,-4.269,-4.3072,-4.3457,-4.3356,-4.347,-4.4087,-4.4388,-4.4693,-4.5001,-4.531,-4.5532,-4.5686,-4.6385,-4.7105,-4.7562,-4.8136,-4.8835,-4.9239,-4.9184,-4.946,-5.0075,-5.0698,-5.1572,-5.2762,-5.3434,-5.3613,-5.3574,-5.3398,-5.3183,-5.3188,-5.3172,-5.3027,-5.3133,-5.3725,-5.4354,-5.4374,-5.4436,-5.4627,-5.4565,-5.4565,-5.4565,-5.4689,-5.4834,-5.4938,-5.5,-5.5041,-5.502,-5.4813,-5.471,-5.4565,-5.4544,-5.4544,-5.4544,-5.4544,-5.4544,-5.4544,-5.4544,-5.4544,-5.4544,-5.4544,-5.4544,-5.4544,-5.4544,-5.4482,-5.3985,-5.3551,-5.3344,-5.2909,-4.075,-4.0852,-4.0956,-4.1245,-4.1475,-4.1805,-4.1685,-4.1416,-4.1441,-4.1075,-4.0519,-4.0138,-4.0007,-3.9977,-3.967,-3.9814,-4.0346,-4.0983,-4.1618,-4.2309,-4.2362,-4.1906,-4.151,-4.1323,-4.1027,-4.0662,-4.0646,-4.0463,-4.0232,-4.0114,-4.0022,-3.999,-3.9863,-4.0156,-4.0659,-4.1082,-4.1552,-4.2231,-4.2521,-4.276,-4.2799,-4.2765,-4.2981,-4.301,-4.3126,-4.3172,-4.329,-4.3523,-4.3791,-4.4144,-4.4126,-4.4274,-4.4644,-4.4813,-4.4984,-4.5327,-4.5515,-4.5772,-4.6029,-4.6612,-4.7248,-4.7899,-4.8394,-4.8886,-4.9293,-4.9514,-4.993,-5.0447,-5.1131,-5.2093,-5.343,-5.3828,-5.4023,-5.4004,-5.3828,-5.3594,-5.3522,-5.347,-5.3604,-5.3656,-5.4337,-5.4821,-5.4973,-5.5041,-5.4958,-5.5,-5.4917,-5.4917,-5.4917,-5.5082,-5.5289,-5.5393,-5.5476,-5.5393,-5.5124,-5.4875,-5.4586,-5.4544,-5.4544,-5.4544,-5.4544,-5.4544,-5.4544,-5.4544,-5.4544,-5.4544,-5.4544,-5.4544,-5.4544,-5.4544,-5.4379,-5.3965,-5.3613,-5.3323,-5.2764,-4.1277,-4.1337,-4.1545,-4.1647,-4.1704,-4.2148,-4.207,-4.1572,-4.1455,-4.1119,-4.0592,-4.0212,-4.0124,-4.0021,-3.9831,-3.9991,-4.0632,-4.1499,-4.2199,-4.2501,-4.218,-4.1736,-4.1278,-4.0765,-4.0327,-3.9662,-4.0106,-4.021,-4.0162,-4.0164,-4.0273,-4.0324,-4.0117,-4.0346,-4.09,-4.1145,-4.1539,-4.2226,-4.2321,-4.2479,-4.2647,-4.2709,-4.2993,-4.3585,-4.3699,-4.389,-4.3992,-4.4211,-4.4397,-4.4414,-4.4869,-4.519,-4.519,-4.5207,-4.5361,-4.5721,-4.5858,-4.6063,-4.6286,-4.682,-4.7407,-4.7956,-4.8488,-4.9103,-4.953,-4.9808,-5.0364,-5.1107,-5.1871,-5.268,-5.3882,-5.4023,-5.4023,-5.4023,-5.4023,-5.3848,-5.3617,-5.3526,-5.3847,-5.4121,-5.4569,-5.5114,-5.5468,-5.5621,-5.5517,-5.5414,-5.5331,-5.5289,-5.5289,-5.5434,-5.5683,-5.5848,-5.5931,-5.5579,-5.5248,-5.4875,-5.4606,-5.4544,-5.4544,-5.4544,-5.4544,-5.4544,-5.4544,-5.4544,-5.4544,-5.4544,-5.4544,-5.4544,-5.4544,-5.4544,-5.442,-5.4151,-5.3737,-5.3282,-5.2702,-4.2876,-4.2629,-4.2701,-4.2526,-4.2292,-4.2392,-4.2172,-4.1821,-4.1543,-4.1236,-4.087,-4.0548,-4.0373,-4.0358,-4.0358,-4.0626,-4.1079,-4.1696,-4.2158,-4.2327,-4.1943,-4.1454,-4.0816,-4.0378,-3.9838,-3.9375,-3.9683,-3.9979,-4.0202,-4.0209,-4.0369,-4.0606,-4.0594,-4.0725,-4.0972,-4.1303,-4.1518,-4.1866,-4.1982,-4.2078,-4.2174,-4.2516,-4.316,-4.3982,-4.4172,-4.4393,-4.4732,-4.4851,-4.5003,-4.5055,-4.5412,-4.5532,-4.5584,-4.5584,-4.5789,-4.608,-4.6354,-4.6525,-4.668,-4.7076,-4.7844,-4.8525,-4.8959,-4.9498,-5.0139,-5.0468,-5.0845,-5.1847,-5.2846,-5.3639,-5.3902,-5.4023,-5.4023,-5.4023,-5.4023,-5.3984,-5.3887,-5.3832,-5.4042,-5.4324,-5.4856,-5.5406,-5.5921,-5.6138,-5.5993,-5.589,-5.5786,-5.5766,-5.5766,-5.5973,-5.6283,-5.6387,-5.6449,-5.589,-5.5331,-5.4917,-5.4586,-5.4544,-5.4544,-5.4544,-5.4544,-5.4544,-5.4544,-5.4544,-5.4544,-5.4544,-5.4544,-5.4544,-5.4544,-5.4544,-5.4461,-5.4358,-5.3903,-5.3427,-5.2992,-4.3519,-4.3343,-4.3021,-4.2787,-4.2626,-4.245,-4.2202,-4.188,-4.1572,-4.1265,-4.0943,-4.0636,-4.0475,-4.0475,-4.0475,-4.0803,-4.1239,-4.155,-4.1876,-4.2033,-4.1695,-4.1252,-4.063,-4.0193,-3.974,-3.9458,-3.9568,-3.9836,-4.0202,-4.0512,-4.0553,-4.0636,-4.0711,-4.0864,-4.1023,-4.1272,-4.1573,-4.1725,-4.1879,-4.1981,-4.2064,-4.2476,-4.3239,-4.3856,-4.4327,-4.4631,-4.5053,-4.5121,-4.5121,-4.519,-4.5464,-4.5738,-4.5926,-4.6149,-4.632,-4.6508,-4.6697,-4.6902,-4.7144,-4.749,-4.8158,-4.8894,-4.9226,-4.9872,-5.0394,-5.0792,-5.1244,-5.2176,-5.2999,-5.3717,-5.3921,-5.4023,-5.4023,-5.4023,-5.4023,-5.4023,-5.4023,-5.4023,-5.4237,-5.4484,-5.5045,-5.5663,-5.6478,-5.6635,-5.6469,-5.6366,-5.6262,-5.6242,-5.6221,-5.6407,-5.6676,-5.6838,-5.6775,-5.6355,-5.5752,-5.5295,-5.4743,-5.466,-5.4544,-5.4544,-5.4544,-5.4544,-5.4544,-5.4544,-5.4544,-5.4544,-5.4544,-5.4544,-5.4544,-5.4544,-5.4503,-5.4358,-5.3985,-5.3592,-5.3178,-4.3884,-4.3782,-4.3285,-4.2992,-4.2831,-4.2597,-4.2304,-4.1982,-4.169,-4.1426,-4.1133,-4.0855,-4.0709,-4.0665,-4.0731,-4.0796,-4.1204,-4.1189,-4.1442,-4.155,-4.1303,-4.0936,-4.0606,-4.0286,-3.9831,-3.9626,-3.966,-3.9755,-4.0138,-4.0523,-4.0646,-4.0707,-4.0841,-4.0964,-4.1186,-4.142,-4.1639,-4.1826,-4.1948,-4.2056,-4.2342,-4.2557,-4.3138,-4.3724,-4.4093,-4.4532,-4.4954,-4.5055,-4.5121,-4.5241,-4.5532,-4.5909,-4.6234,-4.6645,-4.6885,-4.6885,-4.6885,-4.7091,-4.735,-4.7876,-4.8404,-4.8912,-4.9559,-5.0081,-5.0602,-5.0914,-5.1226,-5.2157,-5.2878,-5.339,-5.3717,-5.3921,-5.4023,-5.4023,-5.4023,-5.4023,-5.4023,-5.4023,-5.4329,-5.4719,-5.5243,-5.587,-5.653,-5.7008,-5.6821,-5.678,-5.6697,-5.6697,-5.6697,-5.6697,-5.6962,-5.7144,-5.7119,-5.6759,-5.6238,-5.5738,-5.5279,-5.485,-5.4639,-5.4544,-5.4544,-5.4544,-5.4544,-5.4544,-5.4544,-5.4544,-5.4544,-5.4544,-5.4544,-5.4544,-5.4544,-5.4441,-5.4192,-5.3903,-5.353,-4.4089,-4.3826,-4.3753,-4.3402,-4.2933,-4.2831,-4.2626,-4.2304,-4.1968,-4.1836,-4.169,-4.1455,-4.128,-4.1207,-4.0987,-4.1024,-4.0922,-4.0826,-4.0693,-4.0803,-4.0679,-4.0438,-4.0159,-4.0115,-4.0036,-3.9948,-3.9934,-4.0065,-4.027,-4.0362,-4.0559,-4.0688,-4.1038,-4.1318,-4.1052,-4.1415,-4.1786,-4.1722,-4.1585,-4.1714,-4.2085,-4.2234,-4.2896,-4.3615,-4.4106,-4.4514,-4.492,-4.509,-4.514,-4.5275,-4.5823,-4.6149,-4.6337,-4.6936,-4.7228,-4.7296,-4.7313,-4.7313,-4.7576,-4.7999,-4.8509,-4.9122,-4.9663,-5.0081,-5.0602,-5.1018,-5.133,-5.1518,-5.2447,-5.3185,-5.339,-5.3717,-5.3921,-5.4023,-5.4023,-5.4023,-5.4023,-5.4023,-5.4227,-5.4736,-5.5224,-5.583,-5.6352,-5.6794,-5.7194,-5.7173,-5.7132,-5.7111,-5.709,-5.7128,-5.7206,-5.7468,-5.7661,-5.7319,-5.6815,-5.6332,-5.5775,-5.5219,-5.4925,-5.4639,-5.4544,-5.4544,-5.4544,-5.4544,-5.4544,-5.4544,-5.4544,-5.4544,-5.4544,-5.4544,-5.4544,-5.4544,-5.4503,-5.4192,-5.384,-4.4397,-4.4089,-4.3914,-4.368,-4.3387,-4.3036,-4.2787,-4.2567,-4.2114,-4.1894,-4.1836,-4.1587,-4.1441,-4.1411,-4.1119,-4.0973,-4.0899,-4.0651,-4.0271,-4.0037,-4.0023,-3.9951,-3.9864,-3.982,-3.9944,-4.0147,-4.0255,-4.0349,-4.0453,-4.0461,-4.0572,-4.0469,-4.0813,-4.0927,-4.0862,-4.1208,-4.1336,-4.1376,-4.1486,-4.1729,-4.1965,-4.2227,-4.2673,-4.3496,-4.3855,-4.4383,-4.4949,-4.5258,-4.5431,-4.5738,-4.6303,-4.6525,-4.6662,-4.7039,-4.7365,-4.7365,-4.7365,-4.7576,-4.7893,-4.8404,-4.8929,-4.9454,-4.9977,-5.0517,-5.0706,-5.0914,-5.1226,-5.1518,-5.1932,-5.2447,-5.3083,-5.339,-5.3717,-5.3819,-5.4023,-5.4023,-5.4023,-5.4023,-5.4227,-5.4736,-5.5224,-5.583,-5.6313,-5.6815,-5.7115,-5.7194,-5.7173,-5.7173,-5.7273,-5.7572,-5.765,-5.7891,-5.7999,-5.802,-5.747,-5.6941,-5.6188,-5.5672,-5.5209,-5.4925,-5.4544,-5.4544,-5.4544,-5.4544,-5.4544,-5.4544,-5.4544,-5.4544,-5.4544,-5.4544,-5.4544,-5.4544,-5.4544,-5.4503,-5.4151,-4.4777,-4.4528,-4.4221,-4.3987,-4.3782,-4.3226,-4.2948,-4.2802,-4.2275,-4.2026,-4.1968,-4.1807,-4.1704,-4.1602,-4.1397,-4.1221,-4.109,-4.0643,-4.0124,-3.9738,-3.9475,-3.9351,-3.9432,-3.9461,-3.979,-4.0271,-4.0431,-4.0416,-4.0482,-4.0537,-4.0472,-4.0267,-4.0635,-4.0725,-4.0647,-4.0835,-4.0945,-4.1099,-4.151,-4.1865,-4.1992,-4.2215,-4.2749,-4.3165,-4.364,-4.4188,-4.5002,-4.5389,-4.5683,-4.5837,-4.6421,-4.6714,-4.6799,-4.7108,-4.7347,-4.7365,-4.7365,-4.7788,-4.8193,-4.8807,-4.9331,-4.9872,-5.029,-5.0621,-5.0725,-5.0706,-5.081,-5.1226,-5.1518,-5.2138,-5.2775,-5.3102,-5.3493,-5.3819,-5.4023,-5.4023,-5.4023,-5.4023,-5.4227,-5.4736,-5.5224,-5.583,-5.6313,-5.6815,-5.7115,-5.7215,-5.7215,-5.7215,-5.7414,-5.7634,-5.7933,-5.8111,-5.8324,-5.8562,-5.846,-5.771,-5.6932,-5.601,-5.5641,-5.5114,-5.4639,-5.4544,-5.4544,-5.4544,-5.4544,-5.4544,-5.4544,-5.4544,-5.4544,-5.4544,-5.4544,-5.4544,-5.4544,-5.4544,-5.4379,-4.5245,-4.5201,-4.4865,-4.4397,-4.3841,-4.3475,-4.3153,-4.2889,-4.2494,-4.2319,-4.2304,-4.2289,-4.2231,-4.2187,-4.1865,-4.1602,-4.1382,-4.052,-3.9967,-3.9547,-3.9036,-3.8912,-3.9036,-3.9256,-3.9599,-3.9928,-4.0271,-4.049,-4.0475,-4.054,-4.032,-4.0085,-4.0461,-4.0525,-4.0513,-4.0633,-4.0866,-4.1111,-4.158,-4.2016,-4.2294,-4.2501,-4.2723,-4.3316,-4.36,-4.3883,-4.4264,-4.503,-4.5557,-4.5782,-4.6488,-4.6851,-4.6954,-4.7262,-4.745,-4.7467,-4.7536,-4.8067,-4.879,-4.8982,-4.9331,-4.9872,-5.029,-5.0725,-5.0725,-5.0725,-5.0725,-5.0829,-5.1122,-5.1744,-5.2382,-5.2897,-5.3307,-5.3819,-5.4023,-5.4023,-5.4023,-5.4125,-5.4329,-5.4736,-5.5325,-5.5931,-5.6413,-5.6915,-5.7115,-5.7215,-5.7215,-5.7215,-5.7215,-5.7535,-5.8032,-5.833,-5.8627,-5.8963,-5.9333,-5.8716,-5.7581,-5.6634,-5.5894,-5.5177,-5.4639,-5.4544,-5.4544,-5.4544,-5.4544,-5.4544,-5.4544,-5.4544,-5.4544,-5.4544,-5.4544,-5.4544,-5.4544,-5.4544,-5.4358,-4.4363,-4.4334,-4.4007,-4.4108,-4.4367,-4.3665,-4.3285,-4.3094,-4.2611,-4.2377,-4.2377,-4.2377,-4.2377,-4.2289,-4.2041,-4.1733,-4.1314,-4.0897,-4.001,-3.9231,-3.8802,-3.8692,-3.8816,-3.9036,-3.9366,-3.9928,-4.0366,-4.0475,-4.0475,-4.0475,-4.0446,-4.0393,-4.0434,-4.0272,-4.025,-4.0452,-4.083,-4.1472,-4.1828,-4.2162,-4.2675,-4.293,-4.3152,-4.3327,-4.3704,-4.4114,-4.4547,-4.521,-4.5689,-4.6112,-4.674,-4.7002,-4.7193,-4.7519,-4.769,-4.7741,-4.7861,-4.8606,-4.9336,-4.9424,-4.9454,-5.0186,-5.0621,-5.0725,-5.0725,-5.0725,-5.0725,-5.0829,-5.0951,-5.1489,-5.2298,-5.2588,-5.2999,-5.3615,-5.4023,-5.4023,-5.4125,-5.4227,-5.4736,-5.5224,-5.5729,-5.6333,-5.6735,-5.7015,-5.7115,-5.7215,-5.7215,-5.7215,-5.7215,-5.7414,-5.7912,-5.833,-5.8726,-5.8972,-5.9463,-5.8846,-5.8135,-5.7111,-5.6115,-5.5356,-5.4681,-5.4544,-5.4544,-5.4544,-5.4544,-5.4544,-5.4544,-5.4544,-5.4544,-5.4544,-5.4544,-5.4544,-5.4544,-5.4544,-5.4379,-4.3872,-4.376,-4.3438,-4.362,-4.41,-4.3277,-4.2858,-4.2788,-4.2426,-4.235,-4.2392,-4.2377,-4.2377,-4.2304,-4.2158,-4.188,-4.1475,-4.0945,-4.0168,-3.9483,-3.8887,-3.872,-3.8802,-3.9036,-3.9475,-4.0147,-4.049,-4.0475,-4.0475,-4.0475,-4.046,-4.0387,-4.027,-4.0168,-4.0281,-4.0353,-4.0876,-4.1543,-4.204,-4.2345,-4.2935,-4.3232,-4.3486,-4.3565,-4.3788,-4.3975,-4.4527,-4.5137,-4.5793,-4.6252,-4.6885,-4.7412,-4.7656,-4.7844,-4.8049,-4.8186,-4.8414,-4.9019,-4.9688,-5.008,-4.9999,-5.0535,-5.0621,-5.0725,-5.0725,-5.0743,-5.0743,-5.0927,-5.1135,-5.1515,-5.2571,-5.292,-5.3217,-5.3916,-5.3941,-5.4023,-5.4329,-5.4533,-5.5122,-5.5729,-5.6333,-5.6835,-5.7235,-5.7414,-5.7314,-5.7314,-5.7215,-5.7215,-5.7215,-5.7414,-5.7813,-5.8231,-5.8627,-5.8929,-5.928,-5.8676,-5.7978,-5.7144,-5.6146,-5.5461,-5.4934,-5.4681,-5.4544,-5.4544,-5.4544,-5.4544,-5.4544,-5.4544,-5.4544,-5.4544,-5.4544,-5.4544,-5.4544,-5.4544,-5.4544,-4.3901,-4.3732,-4.3424,-4.313,-4.2808,-4.2206,-4.1877,-4.1846,-4.1931,-4.2079,-4.2292,-4.2377,-4.2377,-4.2377,-4.2304,-4.2114,-4.1694,-4.1065,-4.0412,-3.9889,-3.9135,-3.883,-3.8912,-3.9256,-3.9585,-3.9709,-4.0147,-4.0475,-4.0475,-4.0475,-4.0475,-4.0584,-4.0526,-4.0511,-4.0526,-4.068,-4.0889,-4.1286,-4.1816,-4.2517,-4.3237,-4.3454,-4.3629,-4.3788,-4.3883,-4.4038,-4.4468,-4.5111,-4.5786,-4.6206,-4.728,-4.772,-4.7964,-4.8272,-4.846,-4.8495,-4.8546,-4.9088,-5.0062,-5.0772,-5.1028,-5.0859,-5.1,-5.0945,-5.0817,-5.0817,-5.1086,-5.1485,-5.1837,-5.2343,-5.2969,-5.347,-5.3899,-5.4214,-5.436,-5.4549,-5.4875,-5.5021,-5.5628,-5.6132,-5.6714,-5.7335,-5.7734,-5.7933,-5.7614,-5.7414,-5.7215,-5.7215,-5.7235,-5.7335,-5.7614,-5.8011,-5.8429,-5.8663,-5.8843,-5.8468,-5.7792,-5.698,-5.6248,-5.5616,-5.5017,-5.4722,-5.4586,-5.4565,-5.4544,-5.4544,-5.4544,-5.4544,-5.4544,-5.4544,-5.4544,-5.4544,-5.4544,-5.4544,-5.4544,-4.2674,-4.2375,-4.2077,-4.1779,-4.1575,-4.1846,-4.1884,-4.1821,-4.184,-4.1877,-4.1862,-4.2163,-4.2377,-4.2377,-4.2363,-4.2216,-4.1909,-4.1475,-4.0819,-4.0072,-3.9536,-3.9394,-3.9366,-3.9585,-3.9818,-4.0147,-4.049,-4.0584,-4.0475,-4.0584,-4.0584,-4.0584,-4.0941,-4.0803,-4.057,-4.067,-4.0877,-4.1666,-4.2204,-4.2573,-4.3633,-4.3756,-4.3819,-4.3962,-4.3978,-4.4102,-4.4549,-4.5317,-4.5935,-4.653,-4.7659,-4.7993,-4.8306,-4.8649,-4.8854,-4.894,-4.9008,-4.9642,-5.0449,-5.1172,-5.1508,-5.1448,-5.1458,-5.144,-5.1513,-5.1532,-5.1835,-5.2189,-5.2562,-5.3089,-5.3805,-5.4433,-5.4941,-5.54,-5.5611,-5.568,-5.5867,-5.587,-5.6212,-5.6534,-5.7035,-5.7834,-5.833,-5.833,-5.8132,-5.7713,-5.7514,-5.7314,-5.7235,-5.7235,-5.7414,-5.7813,-5.8132,-5.8429,-5.8401,-5.8049,-5.7817,-5.7046,-5.6424,-5.5763,-5.5225,-5.471,-5.4586,-5.4544,-5.4544,-5.4544,-5.4544,-5.4544,-5.4544,-5.4544,-5.4544,-5.4544,-5.4544,-5.4544,-5.4544,-4.1991,-4.1617,-4.1416,-4.1109,-4.0857,-4.1193,-4.1413,-4.1374,-4.1357,-4.1312,-4.1532,-4.1934,-4.2263,-4.2263,-4.2363,-4.2319,-4.2041,-4.1748,-4.1329,-4.0549,-4.0246,-4.0072,-3.9971,-3.9928,-4.0147,-4.0475,-4.0693,-4.0803,-4.0912,-4.1021,-4.113,-4.1363,-4.1561,-4.1636,-4.1388,-4.1422,-4.1629,-4.2342,-4.2666,-4.3006,-4.3731,-4.4026,-4.4121,-4.4185,-4.4248,-4.4545,-4.5179,-4.5735,-4.634,-4.7205,-4.784,-4.8409,-4.8717,-4.8991,-4.9231,-4.9351,-4.9733,-5.0226,-5.0929,-5.153,-5.2001,-5.2286,-5.2155,-5.1954,-5.1935,-5.2056,-5.2398,-5.281,-5.3291,-5.4033,-5.4877,-5.5488,-5.5952,-5.6414,-5.6505,-5.6574,-5.674,-5.6863,-5.688,-5.7162,-5.7556,-5.8351,-5.8945,-5.8825,-5.8627,-5.8231,-5.7834,-5.7535,-5.7235,-5.7235,-5.7314,-5.7514,-5.7713,-5.7813,-5.7969,-5.7844,-5.7514,-5.7185,-5.6523,-5.58,-5.5329,-5.4793,-5.4668,-5.4544,-5.4544,-5.4544,-5.4544,-5.4544,-5.4544,-5.4544,-5.4544,-5.4544,-5.4544,-5.4544,-5.4544,-4.1871,-4.1376,-4.135,-4.1016,-4.0535,-4.0576,-4.0615,-4.0534,-4.0233,-4.063,-4.1374,-4.1475,-4.1819,-4.2263,-4.2377,-4.2363,-4.226,-4.1997,-4.1719,-4.1329,-4.0911,-4.0745,-4.0636,-4.0548,-4.0752,-4.0817,-4.1021,-4.1333,-4.1442,-4.1659,-4.1985,-4.2309,-4.2507,-4.2629,-4.2599,-4.2647,-4.2742,-4.31,-4.3208,-4.3534,-4.4124,-4.436,-4.4471,-4.455,-4.4771,-4.5321,-4.5883,-4.6461,-4.7072,-4.7801,-4.8458,-4.8865,-4.918,-4.9419,-4.9539,-4.9753,-5.0231,-5.0726,-5.1371,-5.2032,-5.249,-5.2745,-5.2449,-5.2137,-5.2295,-5.2745,-5.3196,-5.3754,-5.4364,-5.5109,-5.5851,-5.6406,-5.6976,-5.711,-5.722,-5.7389,-5.7637,-5.7802,-5.7778,-5.8034,-5.8399,-5.891,-5.9546,-5.9546,-5.9108,-5.8974,-5.8457,-5.7834,-5.7535,-5.7235,-5.7215,-5.7215,-5.7314,-5.7314,-5.7373,-5.7509,-5.7327,-5.7119,-5.6417,-5.5815,-5.5269,-5.4896,-5.4668,-5.4544,-5.4544,-5.4544,-5.4544,-5.4544,-5.4544,-5.4544,-5.4544,-5.4544,-5.4544,-5.4544,-5.4544,-4.1871,-4.1226,-4.084,-4.0633,-4.0521,-4.0481,-4.0254,-3.9969,-4.0188,-4.0357,-4.0208,-4.113,-4.1604,-4.1819,-4.2148,-4.2377,-4.226,-4.2085,-4.1894,-4.166,-4.1426,-4.1341,-4.1355,-4.1457,-4.1557,-4.164,-4.1891,-4.2,-4.1985,-4.2202,-4.2696,-4.3115,-4.3363,-4.3738,-4.4051,-4.4176,-4.4035,-4.3879,-4.3863,-4.4145,-4.4504,-4.4757,-4.4836,-4.501,-4.542,-4.5956,-4.6489,-4.7037,-4.776,-4.8577,-4.8882,-4.9145,-4.9471,-4.9573,-4.9659,-5.0036,-5.0449,-5.1071,-5.1914,-5.2054,-5.2447,-5.3238,-5.3017,-5.3087,-5.3338,-5.3606,-5.4074,-5.4667,-5.5241,-5.595,-5.6694,-5.7395,-5.7881,-5.8179,-5.8289,-5.8478,-5.8582,-5.8418,-5.8394,-5.8381,-5.8746,-5.9541,-6.0177,-6.0026,-5.9589,-5.9498,-5.918,-5.8514,-5.7933,-5.7634,-5.7235,-5.7215,-5.7215,-5.7215,-5.7215,-5.7273,-5.7231,-5.6987,-5.6366,-5.5848,-5.5559,-5.5186,-5.4751,-5.4544,-5.4544,-5.4544,-5.4544,-5.4544,-5.4544,-5.4544,-5.4544,-5.4544,-5.4544,-5.4544,-5.4544,-4.1494,-4.088,-4.0219,-4.0018,-4.0157,-4.0104,-3.9946,-3.98,-3.9996,-3.9957,-3.9788,-4.067,-4.1245,-4.159,-4.2163,-4.2377,-4.2363,-4.2216,-4.2041,-4.1836,-4.1944,-4.2,-4.2014,-4.2212,-4.2376,-4.2507,-4.2587,-4.2681,-4.2712,-4.3038,-4.3535,-4.3894,-4.4098,-4.4617,-4.5043,-4.5186,-4.5281,-4.5043,-4.4917,-4.4806,-4.4917,-4.5233,-4.5281,-4.5644,-4.604,-4.6674,-4.7336,-4.7885,-4.8494,-4.9121,-4.9265,-4.9351,-4.9642,-4.9728,-5.0002,-5.0344,-5.0515,-5.1314,-5.2179,-5.2297,-5.2806,-5.3401,-5.3732,-5.3947,-5.4124,-5.4337,-5.4895,-5.5345,-5.6008,-5.6776,-5.7521,-5.8284,-5.8792,-5.9297,-5.9447,-5.947,-5.9367,-5.9119,-5.8929,-5.8771,-5.9263,-6.0161,-6.0372,-6.0199,-6.0211,-6.0221,-5.9838,-5.9185,-5.8528,-5.8032,-5.7514,-5.7215,-5.7215,-5.7215,-5.7215,-5.7215,-5.7194,-5.6966,-5.6366,-5.5931,-5.5745,-5.5289,-5.4689,-5.4544,-5.4544,-5.4544,-5.4544,-5.4544,-5.4544,-5.4544,-5.4544,-5.4544,-5.4544,-5.4544,-5.4544,-4.0726,-4.0206,-3.967,-3.946,-3.9413,-3.9605,-3.9798,-3.9907,-3.976,-3.9659,-3.9754,-4.0324,-4.09,-4.136,-4.2048,-4.2377,-4.2377,-4.2319,-4.2316,-4.2066,-4.2533,-4.2678,-4.2901,-4.3017,-4.3262,-4.3173,-4.3301,-4.3566,-4.3564,-4.4,-4.4532,-4.4659,-4.5217,-4.5535,-4.5551,-4.587,-4.6158,-4.6206,-4.5917,-4.5676,-4.5582,-4.571,-4.5886,-4.6491,-4.7004,-4.7535,-4.8317,-4.8779,-4.9035,-4.9369,-4.9591,-4.9573,-4.9779,-5.0139,-5.0481,-5.0704,-5.0892,-5.1661,-5.2437,-5.267,-5.3112,-5.3693,-5.4357,-5.4647,-5.4863,-5.509,-5.5612,-5.6298,-5.709,-5.7713,-5.8479,-5.8844,-5.9332,-5.9651,-5.978,-5.9802,-5.9699,-5.9616,-5.9672,-5.9575,-6.009,-6.0913,-6.1234,-6.1203,-6.1038,-6.1007,-6.0483,-5.9928,-5.9305,-5.8691,-5.8032,-5.7514,-5.7215,-5.7215,-5.7215,-5.7215,-5.7215,-5.6904,-5.6387,-5.6014,-5.5848,-5.5269,-5.4586,-5.4544,-5.4544,-5.4544,-5.4544,-5.4544,-5.4544,-5.4544,-5.4544,-5.4544,-5.4544,-5.4544,-5.4544,-3.993,-3.9683,-3.9505,-3.9247,-3.89,-3.9861,-4.0187,-4.004,-3.996,-3.9705,-3.943,-4.0217,-4.0655,-4.1015,-4.2048,-4.2377,-4.2377,-4.2377,-4.2691,-4.2845,-4.3156,-4.3542,-4.3876,-4.415,-4.4283,-4.4428,-4.4379,-4.4312,-4.4585,-4.5195,-4.572,-4.5527,-4.601,-4.6189,-4.6078,-4.6479,-4.68,-4.712,-4.7086,-4.6985,-4.7034,-4.7132,-4.7374,-4.7598,-4.7937,-4.8272,-4.8813,-4.9147,-4.9369,-4.9591,-4.9591,-4.9745,-5.0036,-5.0669,-5.1029,-5.1183,-5.1486,-5.2244,-5.2895,-5.3209,-5.3561,-5.4315,-5.4913,-5.5299,-5.5662,-5.5943,-5.648,-5.7295,-5.8069,-5.8693,-5.9187,-5.9532,-5.9727,-5.988,-5.9988,-5.9988,-5.9988,-6.0135,-6.0355,-6.0612,-6.0985,-6.1489,-6.1856,-6.2013,-6.197,-6.1686,-6.115,-6.0647,-6.0057,-5.9477,-5.8748,-5.8132,-5.7435,-5.7215,-5.7215,-5.7215,-5.7215,-5.707,-5.6656,-5.6283,-5.5931,-5.5207,-5.4544,-5.4544,-5.4544,-5.4544,-5.4544,-5.4544,-5.4544,-5.4544,-5.4544,-5.4544,-5.4544,-5.4544,-5.4544,-3.9112,-3.8936,-3.8877,-3.8822,-3.8809,-3.967,-4.0132,-4.0227,-4.0094,-3.9973,-3.9966,-4.0508,-4.081,-4.1043,-4.2034,-4.2377,-4.2377,-4.2377,-4.272,-4.3192,-4.3762,-4.4223,-4.468,-4.5037,-4.5057,-4.5202,-4.5022,-4.5027,-4.5438,-4.5932,-4.6309,-4.651,-4.6776,-4.6941,-4.6816,-4.7153,-4.7489,-4.7713,-4.8049,-4.8272,-4.8384,-4.816,-4.8049,-4.8272,-4.8479,-4.8813,-4.9147,-4.9497,-4.948,-4.9676,-4.9762,-5.0241,-5.0601,-5.1046,-5.1354,-5.1658,-5.2061,-5.2679,-5.3398,-5.3847,-5.4183,-5.5019,-5.5693,-5.6137,-5.6535,-5.6853,-5.7458,-5.8259,-5.8702,-5.931,-5.9832,-6.0178,-6.0186,-6.0318,-6.0259,-6.0093,-6.0386,-6.0739,-6.0999,-6.1212,-6.1554,-6.2031,-6.2335,-6.2341,-6.2276,-6.2123,-6.1686,-6.1205,-6.0613,-6.0122,-5.9391,-5.8726,-5.8032,-5.7414,-5.7215,-5.7215,-5.7215,-5.7049,-5.6863,-5.6262,-5.5703,-5.5041,-5.4544,-5.4544,-5.4544,-5.4544,-5.4544,-5.4544,-5.4544,-5.4544,-5.4544,-5.4544,-5.4544,-5.4544,-5.4544,-3.8236,-3.8187,-3.8213,-3.8485,-3.8941,-3.9543,-4.0048,-4.0481,-4.0348,-4.0547,-4.1009,-4.1249,-4.144,-4.1747,-4.2163,-4.2377,-4.2506,-4.2621,-4.2978,-4.3663,-4.4118,-4.4753,-4.5206,-4.5626,-4.5726,-4.5853,-4.5843,-4.602,-4.6398,-4.6947,-4.7406,-4.7535,-4.7689,-4.7825,-4.7842,-4.7937,-4.8049,-4.8367,-4.8701,-4.9035,-4.8941,-4.8607,-4.8607,-4.8701,-4.8813,-4.9147,-4.9386,-4.977,-4.977,-4.9993,-5.038,-5.0748,-5.1012,-5.1337,-5.1773,-5.2095,-5.2395,-5.314,-5.3813,-5.4466,-5.5064,-5.5803,-5.6497,-5.7034,-5.734,-5.7853,-5.8462,-5.8971,-5.9507,-5.9949,-6.0475,-6.0679,-6.0686,-6.0674,-6.0363,-6.0302,-6.0782,-6.1384,-6.1644,-6.1856,-6.2189,-6.2588,-6.2684,-6.2712,-6.2581,-6.2428,-6.2101,-6.1598,-6.1084,-6.0527,-5.9992,-5.9426,-5.8825,-5.8111,-5.7514,-5.7414,-5.7414,-5.7252,-5.7123,-5.6298,-5.5517,-5.4958,-5.4606,-5.4544,-5.4544,-5.4544,-5.4544,-5.4544,-5.4544,-5.4544,-5.4544,-5.4544,-5.4544,-5.4544,-5.4544,-3.7622,-3.761,-3.8674,-3.916,-3.9482,-4.0212,-4.0706,-4.0897,-4.1101,-4.1338,-4.173,-4.2303,-4.242,-4.1963,-4.225,-4.2621,-4.2964,-4.3093,-4.3875,-4.4671,-4.4671,-4.5237,-4.5689,-4.6012,-4.6142,-4.641,-4.6813,-4.7482,-4.7483,-4.8079,-4.8316,-4.812,-4.8311,-4.8367,-4.7953,-4.816,-4.859,-4.8924,-4.9147,-4.948,-4.9497,-4.9275,-4.9386,-4.9386,-4.9369,-4.9497,-4.9787,-5.0473,-5.0689,-5.1044,-5.1314,-5.1502,-5.1681,-5.179,-5.2193,-5.2609,-5.291,-5.3601,-5.4272,-5.4959,-5.5705,-5.6516,-5.7154,-5.7828,-5.8141,-5.8494,-5.907,-5.9604,-6.0147,-6.0773,-6.1155,-6.1156,-6.1189,-6.0904,-6.0614,-6.0908,-6.1301,-6.1922,-6.2351,-6.2653,-6.2901,-6.3091,-6.3069,-6.3062,-6.3062,-6.2865,-6.2581,-6.2079,-6.1555,-6.1007,-6.0418,-5.9906,-5.934,-5.8726,-5.8032,-5.7933,-5.7912,-5.7692,-5.7384,-5.6696,-5.5836,-5.5,-5.471,-5.4586,-5.4544,-5.4544,-5.4544,-5.4544,-5.4544,-5.4544,-5.4544,-5.4544,-5.4544,-5.4449,-5.4449]},{"header":{"parameterUnit":"m.s-1","parameterCategory":1,"la1":31.0,"la2":29.5877,"lo1":-88.7671,"lo2":-86.6584,"dy":0.0162,"dx":0.0185,"nx":115,"ny":88,"refTime":"2024-02-02T06:00:00:Z","depth":0,"parameterNumber":3,"parameterNumberName":"V-component_of_WINDS"},"data":[0.0,0.0,0.0,0.0,0.0,0.0,0.0,0.0,0.0,0.0,0.0,0.0,0.0,0.0,0.0,0.0,0.0,0.0,0.0,0.0,0.0,0.0,0.0,0.0,0.0,0.0,0.0,0.0,0.0,0.0,0.0,0.0,0.0,0.0,0.0,0.0,0.0,0.0,0.0,0.0,0.0,0.0,0.0,0.0,0.0,0.0,0.0,0.0,0.0,0.0,0.0,0.0,0.0,0.0,0.0,0.0,0.0,0.0,0.0,0.0,0.0,0.0,0.0,0.0,0.0,0.0,0.0,0.0,0.0,0.0,0.0,0.0,0.0,0.0,0.0,0.0,0.0,0.0,0.0,0.0,0.0,0.0,0.0,0.0,0.0,0.0,0.0,0.0,0.0,0.0,0.0,0.0,0.0,0.0,0.0,0.0,0.0,0.0,0.0,0.0,0.0,0.0,0.0,0.0,0.0,0.0,0.0,0.0,0.0,0.0,0.0,0.0,0.0,0.0,0.0,0.0,0.0,0.0,0.0,0.0,0.0,0.0,0.0,0.0,0.0,0.0,0.0,0.0,0.0,0.0,0.0,0.0,0.0,0.0,0.0,0.0,0.0,0.0,0.0,0.0,0.0,0.0,0.0,0.0,0.0,0.0,0.0,0.0,0.0,0.0,0.0,0.0,0.0,0.0,0.0,0.0,0.0,0.0,0.0,0.0,0.0,0.0,0.0,0.0,0.0,0.0,0.0,0.0,0.0,0.0,0.0,0.0,0.0,0.0,0.0,0.0,0.0,0.0,0.0,0.0,0.0,0.0,0.0,0.0,0.0,0.0,0.0,0.0,0.0,0.0,0.0,0.0,0.0,0.0,0.0,0.0,0.0,0.0,0.0,0.0,0.0,0.0,0.0,0.0,0.0,0.0,0.0,0.0,0.0,0.0,0.0,0.0,0.0,0.0,0.0,0.0,0.0,0.0,0.0,0.0,0.0,0.0,0.0,0.0,0.0,0.0,0.0,0.0,0.0,0.0,0.0,0.0,0.0,0.0,0.0,0.0,0.0,0.0,0.0,0.0,0.0,0.0,0.0,0.0,0.0,0.0,0.0,0.0,0.0,0.0,0.0,0.0,0.0,0.0,0.0,0.0,0.0,0.0,0.0,0.0,0.0,0.0,0.0,0.0,0.0,0.0,0.0,0.0,0.0,0.0,0.0,0.0,0.0,0.0,0.0,0.0,0.0,0.0,0.0,0.0,0.0,0.0,0.0,0.0,0.0,0.0,0.0,0.0,0.0,0.0,0.0,0.0,0.0,0.0,0.0,0.0,0.0,0.0,0.0,0.0,0.0,0.0,0.0,0.0,0.0,0.0,0.0,0.0,0.0,0.0,0.0,0.0,0.0,0.0,0.0,0.0,0.0,0.0,0.0,0.0,0.0,0.0,0.0,0.0,0.0,0.0,0.0,0.0,0.0,0.0,0.0,0.0,0.0,0.0,0.0,0.0,0.0,0.0,0.0,0.0,0.0,0.0,0.0,0.0,0.0,0.0,0.0,0.0,0.0,0.0,0.0,0.0,0.0,0.0,0.0,0.0,0.0,0.0,0.0,0.0,0.0,0.0,0.0,0.0,0.0,0.0,0.0,0.0,0.0,0.0,0.0,0.0,0.0,0.0,0.0,0.0,0.0,0.0,0.0,0.0,0.0,0.0,0.0,0.0,0.0,0.0,0.0,0.0,0.0,0.0,0.0,0.0,0.0,0.0,0.0,0.0,0.0,0.0,0.0,0.0,0.0,0.0,0.0,0.0,0.0,0.0,0.0,0.0,0.0,0.0,0.0,0.0,0.0,0.0,0.0,0.0,0.0,0.0,0.0,0.0,0.0,0.0,0.0,0.0,0.0,0.0,0.0,0.0,0.0,0.0,0.0,0.0,0.0,0.0,0.0,0.0,0.0,0.0,0.0,0.0,0.0,0.0,0.0,0.0,0.0,0.0,0.0,0.0,0.0,0.0,0.0,0.0,0.0,0.0,0.0,0.0,0.0,0.0,0.0,0.0,0.0,0.0,0.0,0.0,0.0,0.0,0.0,0.0,0.0,0.0,0.0,0.0,0.0,0.0,0.0,0.0,0.0,0.0,0.0,0.0,0.0,0.0,0.0,0.0,0.0,0.0,0.0,0.0,0.0,0.0,0.0,0.0,0.0,0.0,0.0,0.0,0.0,0.0,0.0,0.0,0.0,0.0,0.0,0.0,0.0,0.0,0.0,0.0,0.0,0.0,0.0,0.0,0.0,0.0,0.0,0.0,0.0,0.0,0.0,0.0,0.0,0.0,0.0,0.0,0.0,0.0,0.0,0.0,0.0,0.0,0.0,0.0,0.0,0.0,0.0,0.0,0.0,0.0,0.0,0.0,0.0,0.0,0.0,0.0,0.0,0.0,0.0,0.0,0.0,0.0,0.0,0.0,0.0,0.0,0.0,0.0,0.0,0.0,0.0,0.0,0.0,0.0,0.0,0.0,0.0,0.0,0.0,0.0,0.0,0.0,0.0,0.0,0.0,0.0,0.0,0.0,0.0,0.0,0.0,0.0,0.0,0.0,0.0,0.0,0.0,0.0,0.0,0.0,0.0,0.0,0.0,0.0,0.0,0.0,0.0,0.0,0.0,0.0,0.0,0.0,0.0,0.0,0.0,0.0,0.0,0.0,0.0,0.0,0.0,0.0,0.0,0.0,0.0,0.0,0.0,0.0,0.0,0.0,0.0,0.0,0.0,0.0,0.0,0.0,0.0,0.0,0.0,0.0,0.0,0.0,0.0,0.0,0.0,0.0,0.0,0.0,0.0,0.0,0.0,0.0,0.0,0.0,0.0,0.0,0.0,0.0,0.0,0.0,0.0,0.0,0.0,0.0,0.0,0.0,0.0,0.0,0.0,0.0,0.0,0.0,0.0,0.0,0.0,0.0,0.0,0.0,0.0,0.0,0.0,0.0,0.0,0.0,0.0,0.0,0.0,0.0,0.0,0.0,0.0,0.0,0.0,0.0,0.0,0.0,0.0,0.0,0.0,0.0,0.0,0.0,0.0,0.0,0.0,0.0,0.0,0.0,0.0,0.0,0.0,0.0,0.0,0.0,0.0,0.0,0.0,0.0,0.0,0.0,0.0,0.0,0.0,0.0,0.0,0.0,0.0,0.0,0.0,0.0,0.0,0.0,0.0,0.0,0.0,0.0,0.0,0.0,0.0,0.0,0.0,0.0,0.0,0.0,0.0,0.0,0.0,0.0,0.0,0.0,0.0,0.0,0.0,0.0,0.0,0.0,0.0,0.0,0.0,0.0,0.0,0.0,0.0,0.0,0.0,0.0,0.0,0.0,0.0,0.0,0.0,0.0,0.0,0.0,0.0,0.0,0.0,0.0,0.0,0.0,0.0,0.0,0.0,0.0,0.0,0.0,0.0,0.0,0.0,0.0,0.0,0.0,0.0,0.0,0.0,0.0,0.0,0.0,0.0,0.0,0.0,0.0,0.0,0.0,0.0,0.0,0.0,0.0,0.0,0.0,0.0,0.0,0.0,0.0,0.0,0.0,0.0,0.0,0.0,0.0,0.0,0.0,0.0,0.0,0.0,0.0,0.0,0.0,0.0,0.0,0.0,0.0,0.0,0.0,0.0,0.0,0.0,0.0,0.0,0.0,0.0,0.0,0.0,0.0,0.0,0.0,0.0,0.0,0.0,0.0,0.0,0.0,0.0,0.0,0.0,0.0,0.0,0.0,0.0,0.0,0.0,0.0,0.0,0.0,0.0,0.0,0.0,0.0,0.0,0.0,0.0,0.0,0.0,0.0,0.0,0.0,0.0,0.0,0.0,0.0,0.0,0.0,0.0,0.0,0.0,0.0,0.0,0.0,0.0,0.0,0.0,0.0,0.0,0.0,0.0,0.0,0.0,0.0,0.0,0.0,0.0,0.0,0.0,0.0,0.0,0.0,0.0,0.0,0.0,0.0,0.0,0.0,0.0,0.0,0.0,0.0,0.0,0.0,0.0,0.0,0.0,0.0,0.0,0.0,0.0,0.0,0.0,0.0,0.0,0.0,0.0,0.0,0.0,0.0,0.0,0.0,0.0,0.0,0.0,0.0,0.0,0.0,0.0,0.0,0.0,0.0,0.0,0.0,0.0,0.0,0.0,0.0,0.0,0.0,0.0,0.0,0.0,0.0,0.0,0.0,0.0,0.0,0.0,0.0,0.0,0.0,0.0,0.0,0.0,0.0,0.0,0.0,0.0,0.0,0.0,0.0,0.0,0.0,4.0329,0.0,0.0,0.0,0.0,0.0,0.0,0.0,0.0,0.0,0.0,0.0,0.0,0.0,0.0,0.0,0.0,0.0,0.0,0.0,0.0,0.0,0.0,0.0,0.0,0.0,0.0,0.0,0.0,0.0,0.0,0.0,0.0,0.0,0.0,0.0,0.0,0.0,0.0,0.0,0.0,0.0,0.0,0.0,0.0,0.0,0.0,0.0,0.0,0.0,0.0,0.0,0.0,0.0,0.0,0.0,0.0,0.0,0.0,0.0,0.0,0.0,0.0,0.0,0.0,0.0,0.0,0.0,0.0,0.0,0.0,0.0,0.0,0.0,0.0,0.0,0.0,0.0,0.0,0.0,0.0,0.0,0.0,0.0,0.0,0.0,0.0,0.0,0.0,0.0,0.0,0.0,0.0,0.0,0.0,0.0,0.0,0.0,0.0,0.0,0.0,0.0,0.0,0.0,0.0,0.0,0.0,0.0,0.0,0.0,0.0,4.1923,4.2014,4.2032,4.1831,4.1305,0.0,0.0,0.0,0.0,0.0,0.0,0.0,0.0,0.0,0.0,0.0,0.0,0.0,0.0,0.0,0.0,0.0,0.0,0.0,0.0,0.0,0.0,0.0,0.0,0.0,0.0,0.0,0.0,0.0,0.0,0.0,0.0,0.0,0.0,0.0,0.0,0.0,0.0,0.0,0.0,0.0,0.0,0.0,0.0,0.0,0.0,0.0,0.0,0.0,0.0,0.0,0.0,0.0,0.0,0.0,0.0,0.0,0.0,0.0,0.0,0.0,0.0,0.0,0.0,0.0,0.0,0.0,0.0,0.0,0.0,0.0,0.0,0.0,0.0,0.0,0.0,0.0,0.0,0.0,0.0,0.0,0.0,0.0,0.0,0.0,0.0,0.0,0.0,0.0,0.0,0.0,0.0,0.0,0.0,0.0,0.0,0.0,0.0,0.0,0.0,0.0,0.0,0.0,0.0,0.0,0.0,0.0,0.0,0.0,0.0,0.0,0.0,4.3214,4.2959,4.2338,0.0,0.0,0.0,0.0,0.0,0.0,0.0,0.0,0.0,0.0,0.0,0.0,0.0,0.0,0.0,0.0,0.0,0.0,0.0,0.0,0.0,0.0,0.0,0.0,0.0,0.0,0.0,0.0,0.0,0.0,0.0,0.0,0.0,0.0,0.0,0.0,0.0,0.0,0.0,0.0,0.0,0.0,0.0,0.0,0.0,0.0,0.0,0.0,0.0,0.0,0.0,0.0,0.0,0.0,0.0,0.0,0.0,0.0,0.0,0.0,0.0,0.0,0.0,0.0,0.0,0.0,0.0,0.0,0.0,0.0,0.0,0.0,0.0,0.0,0.0,0.0,0.0,0.0,0.0,0.0,0.0,0.0,0.0,0.0,0.0,0.0,0.0,0.0,0.0,0.0,0.0,0.0,0.0,0.0,0.0,0.0,0.0,0.0,0.0,0.0,0.0,0.0,0.0,0.0,0.0,0.0,0.0,0.0,0.0,0.0,4.3196,4.3376,4.3376,0.0,4.3267,0.0,0.0,0.0,0.0,0.0,0.0,0.0,0.0,0.0,0.0,0.0,0.0,0.0,0.0,0.0,0.0,0.0,0.0,0.0,0.0,0.0,0.0,0.0,0.0,0.0,0.0,0.0,0.0,0.0,0.0,0.0,0.0,0.0,0.0,0.0,0.0,0.0,0.0,0.0,0.0,0.0,0.0,0.0,0.0,0.0,0.0,0.0,0.0,0.0,0.0,0.0,0.0,0.0,0.0,0.0,0.0,0.0,0.0,0.0,0.0,0.0,0.0,0.0,0.0,0.0,0.0,0.0,0.0,0.0,0.0,0.0,0.0,0.0,0.0,0.0,0.0,0.0,0.0,0.0,0.0,0.0,0.0,0.0,0.0,0.0,0.0,0.0,0.0,0.0,0.0,0.0,0.0,0.0,0.0,0.0,0.0,0.0,0.0,0.0,0.0,0.0,0.0,0.0,0.0,0.0,0.0,0.0,0.0,0.0,0.0,4.378,4.3394,4.3428,4.3465,0.0,0.0,0.0,0.0,0.0,0.0,0.0,0.0,0.0,0.0,0.0,0.0,0.0,0.0,0.0,0.0,0.0,0.0,0.0,0.0,0.0,0.0,0.0,0.0,0.0,0.0,0.0,0.0,0.0,0.0,0.0,0.0,0.0,0.0,0.0,0.0,0.0,0.0,0.0,0.0,0.0,0.0,0.0,0.0,0.0,0.0,0.0,0.0,0.0,0.0,0.0,0.0,0.0,0.0,0.0,0.0,0.0,0.0,0.0,0.0,0.0,0.0,0.0,0.0,0.0,0.0,0.0,0.0,0.0,0.0,0.0,0.0,0.0,0.0,0.0,0.0,0.0,0.0,0.0,0.0,0.0,0.0,0.0,0.0,0.0,0.0,0.0,0.0,0.0,0.0,0.0,0.0,0.0,0.0,0.0,0.0,0.0,0.0,0.0,0.0,0.0,0.0,0.0,0.0,0.0,0.0,0.0,0.0,0.0,0.0,4.3907,4.3997,4.3484,4.348,4.348,4.341,0.0,0.0,0.0,0.0,0.0,0.0,0.0,0.0,0.0,0.0,0.0,0.0,0.0,0.0,0.0,0.0,0.0,0.0,0.0,0.0,0.0,0.0,0.0,0.0,0.0,0.0,0.0,0.0,0.0,0.0,0.0,0.0,0.0,0.0,0.0,0.0,0.0,0.0,0.0,0.0,0.0,0.0,0.0,0.0,0.0,0.0,0.0,0.0,0.0,0.0,0.0,0.0,0.0,0.0,0.0,0.0,0.0,0.0,0.0,0.0,0.0,0.0,0.0,0.0,0.0,0.0,0.0,0.0,0.0,0.0,0.0,0.0,0.0,0.0,0.0,0.0,0.0,0.0,0.0,0.0,0.0,0.0,0.0,0.0,0.0,0.0,0.0,0.0,0.0,0.0,0.0,0.0,0.0,0.0,0.0,0.0,0.0,0.0,0.0,0.0,0.0,0.0,0.0,0.0,0.0,0.0,0.0,0.0,4.3376,4.3431,4.3484,4.3534,4.3497,4.3497,0.0,0.0,0.0,0.0,0.0,0.0,0.0,0.0,0.0,0.0,0.0,0.0,0.0,0.0,0.0,0.0,0.0,0.0,0.0,0.0,0.0,0.0,0.0,0.0,0.0,0.0,0.0,0.0,0.0,0.0,0.0,0.0,0.0,0.0,0.0,0.0,0.0,0.0,0.0,0.0,0.0,0.0,0.0,0.0,0.0,0.0,0.0,0.0,0.0,0.0,0.0,0.0,0.0,0.0,0.0,0.0,0.0,0.0,0.0,0.0,0.0,0.0,0.0,0.0,0.0,0.0,0.0,0.0,0.0,0.0,0.0,0.0,0.0,0.0,0.0,0.0,0.0,0.0,0.0,0.0,0.0,0.0,0.0,0.0,0.0,0.0,0.0,0.0,0.0,0.0,0.0,0.0,0.0,0.0,0.0,0.0,0.0,0.0,0.0,0.0,0.0,0.0,0.0,0.0,0.0,0.0,0.0,0.0,0.0,4.3412,4.3428,4.3994,4.4929,4.4048,4.3497,0.0,0.0,0.0,0.0,0.0,0.0,0.0,0.0,0.0,0.0,0.0,0.0,0.0,0.0,0.0,0.0,0.0,0.0,0.0,0.0,0.0,0.0,0.0,0.0,0.0,0.0,0.0,0.0,0.0,0.0,0.0,0.0,0.0,0.0,0.0,0.0,0.0,0.0,0.0,0.0,0.0,0.0,0.0,0.0,0.0,0.0,0.0,0.0,0.0,0.0,0.0,0.0,0.0,0.0,0.0,0.0,0.0,0.0,0.0,0.0,0.0,0.0,0.0,0.0,0.0,0.0,0.0,0.0,0.0,0.0,0.0,0.0,0.0,0.0,0.0,0.0,0.0,0.0,0.0,0.0,0.0,0.0,0.0,0.0,0.0,0.0,0.0,0.0,0.0,0.0,0.0,0.0,0.0,0.0,0.0,0.0,0.0,0.0,0.0,0.0,0.0,0.0,0.0,0.0,0.0,0.0,0.0,0.0,0.0,4.3813,0.0,4.4672,4.5443,4.4452,4.3754,0.0,0.0,0.0,0.0,0.0,0.0,0.0,0.0,0.0,0.0,0.0,0.0,0.0,0.0,0.0,0.0,0.0,0.0,0.0,0.0,0.0,0.0,0.0,0.0,0.0,0.0,0.0,0.0,0.0,0.0,0.0,0.0,0.0,0.0,0.0,0.0,0.0,0.0,0.0,0.0,0.0,0.0,0.0,0.0,0.0,0.0,0.0,0.0,0.0,0.0,0.0,0.0,0.0,0.0,0.0,0.0,0.0,0.0,0.0,0.0,0.0,0.0,0.0,0.0,0.0,0.0,0.0,0.0,0.0,0.0,0.0,0.0,0.0,0.0,0.0,0.0,0.0,0.0,0.0,0.0,0.0,0.0,0.0,0.0,0.0,0.0,0.0,0.0,0.0,0.0,0.0,0.0,0.0,0.0,0.0,0.0,0.0,0.0,0.0,0.0,0.0,0.0,0.0,0.0,0.0,0.0,0.0,0.0,4.3923,4.4728,4.5516,4.5553,4.4782,4.4782,4.4342,0.0,0.0,0.0,0.0,0.0,0.0,0.0,0.0,0.0,0.0,0.0,0.0,0.0,0.0,0.0,0.0,0.0,0.0,0.0,0.0,0.0,0.0,0.0,0.0,0.0,0.0,0.0,0.0,0.0,0.0,0.0,0.0,0.0,0.0,0.0,0.0,0.0,0.0,0.0,0.0,0.0,0.0,0.0,0.0,0.0,0.0,0.0,0.0,0.0,0.0,0.0,0.0,0.0,0.0,0.0,0.0,0.0,0.0,0.0,0.0,0.0,0.0,0.0,0.0,0.0,0.0,0.0,0.0,0.0,0.0,0.0,0.0,0.0,0.0,0.0,0.0,0.0,0.0,0.0,0.0,0.0,0.0,0.0,0.0,0.0,0.0,0.0,0.0,0.0,0.0,0.0,0.0,0.0,0.0,0.0,0.0,0.0,0.0,0.0,0.0,0.0,0.0,0.0,0.0,0.0,0.0,0.0,0.0,0.0,4.7168,4.6892,4.6874,4.7113,4.6104,4.5149,0.0,0.0,0.0,0.0,0.0,0.0,0.0,0.0,0.0,0.0,0.0,0.0,0.0,0.0,0.0,0.0,0.0,0.0,0.0,0.0,0.0,0.0,0.0,0.0,0.0,0.0,0.0,0.0,0.0,0.0,0.0,0.0,0.0,0.0,0.0,0.0,0.0,0.0,0.0,0.0,0.0,0.0,0.0,0.0,0.0,0.0,0.0,0.0,0.0,0.0,0.0,0.0,0.0,0.0,0.0,0.0,0.0,0.0,0.0,0.0,0.0,0.0,0.0,0.0,0.0,0.0,0.0,0.0,0.0,0.0,0.0,0.0,0.0,0.0,0.0,0.0,0.0,0.0,0.0,0.0,0.0,0.0,0.0,0.0,0.0,0.0,0.0,0.0,0.0,0.0,0.0,0.0,0.0,0.0,0.0,0.0,0.0,0.0,0.0,0.0,0.0,0.0,0.0,0.0,0.0,0.0,0.0,0.0,0.0,5.0551,4.95,4.9003,4.9224,4.7976,4.6617,4.5186,0.0,0.0,0.0,0.0,0.0,0.0,0.0,0.0,0.0,0.0,0.0,0.0,0.0,0.0,0.0,0.0,0.0,0.0,0.0,0.0,0.0,0.0,0.0,0.0,0.0,0.0,0.0,0.0,0.0,0.0,0.0,0.0,0.0,0.0,0.0,0.0,0.0,0.0,0.0,0.0,0.0,0.0,0.0,0.0,0.0,0.0,0.0,0.0,0.0,0.0,0.0,0.0,0.0,0.0,0.0,0.0,0.0,0.0,0.0,0.0,0.0,0.0,0.0,0.0,0.0,0.0,0.0,0.0,0.0,0.0,0.0,0.0,0.0,0.0,0.0,0.0,0.0,0.0,0.0,0.0,0.0,0.0,0.0,0.0,0.0,0.0,0.0,0.0,0.0,0.0,0.0,0.0,0.0,0.0,0.0,0.0,0.0,0.0,0.0,0.0,0.0,0.0,0.0,0.0,0.0,0.0,0.0,0.0,5.4759,5.3256,5.2034,5.1153,5.0198,4.8582,0.0,0.0,0.0,0.0,0.0,0.0,0.0,0.0,0.0,0.0,0.0,0.0,0.0,0.0,0.0,0.0,0.0,0.0,0.0,0.0,0.0,0.0,0.0,0.0,0.0,0.0,0.0,0.0,0.0,0.0,0.0,0.0,0.0,0.0,0.0,0.0,0.0,0.0,0.0,0.0,0.0,0.0,0.0,0.0,0.0,0.0,0.0,0.0,0.0,0.0,0.0,0.0,0.0,0.0,0.0,0.0,0.0,0.0,0.0,0.0,0.0,0.0,0.0,0.0,0.0,0.0,0.0,0.0,0.0,0.0,0.0,0.0,0.0,0.0,0.0,0.0,0.0,0.0,0.0,0.0,0.0,0.0,0.0,0.0,0.0,0.0,0.0,0.0,0.0,0.0,0.0,0.0,0.0,0.0,0.0,0.0,0.0,0.0,0.0,0.0,0.0,0.0,0.0,0.0,0.0,0.0,0.0,0.0,0.0,5.7227,5.7537,5.6624,5.4549,5.2561,5.0314,0.0,0.0,0.0,0.0,0.0,0.0,0.0,0.0,0.0,0.0,0.0,0.0,0.0,0.0,0.0,0.0,0.0,0.0,0.0,0.0,0.0,0.0,0.0,0.0,0.0,0.0,0.0,0.0,0.0,0.0,0.0,0.0,0.0,0.0,0.0,0.0,0.0,0.0,0.0,0.0,0.0,0.0,0.0,0.0,0.0,0.0,0.0,0.0,0.0,0.0,0.0,0.0,0.0,0.0,0.0,0.0,0.0,0.0,0.0,0.0,0.0,0.0,0.0,0.0,0.0,0.0,0.0,0.0,0.0,0.0,0.0,0.0,0.0,0.0,0.0,0.0,0.0,0.0,0.0,0.0,0.0,0.0,0.0,0.0,0.0,0.0,0.0,0.0,0.0,0.0,0.0,0.0,0.0,0.0,0.0,0.0,0.0,0.0,0.0,0.0,0.0,0.0,0.0,0.0,0.0,0.0,0.0,0.0,5.6103,5.9427,6.067,6.0537,5.9021,5.5576,5.234,0.0,0.0,0.0,0.0,0.0,0.0,0.0,0.0,0.0,0.0,0.0,0.0,0.0,0.0,0.0,0.0,0.0,0.0,0.0,0.0,0.0,0.0,0.0,0.0,0.0,0.0,0.0,0.0,0.0,0.0,0.0,0.0,0.0,0.0,0.0,0.0,0.0,0.0,0.0,0.0,0.0,0.0,0.0,0.0,0.0,0.0,0.0,0.0,0.0,0.0,0.0,0.0,0.0,0.0,0.0,0.0,0.0,0.0,0.0,0.0,0.0,0.0,0.0,0.0,0.0,0.0,0.0,0.0,0.0,0.0,0.0,0.0,0.0,0.0,0.0,0.0,0.0,0.0,0.0,0.0,0.0,0.0,0.0,0.0,0.0,0.0,0.0,0.0,0.0,0.0,0.0,0.0,0.0,0.0,0.0,0.0,0.0,0.0,0.0,0.0,0.0,0.0,0.0,0.0,0.0,0.0,0.0,0.0,5.7999,6.1315,6.3037,6.3756,6.3442,5.8799,5.4612,0.0,0.0,0.0,0.0,0.0,0.0,0.0,0.0,0.0,0.0,0.0,0.0,0.0,0.0,0.0,0.0,0.0,0.0,0.0,0.0,0.0,0.0,0.0,0.0,0.0,0.0,0.0,0.0,0.0,0.0,0.0,0.0,0.0,0.0,0.0,0.0,0.0,0.0,0.0,0.0,0.0,0.0,0.0,0.0,0.0,0.0,0.0,0.0,0.0,0.0,0.0,0.0,0.0,0.0,0.0,0.0,0.0,0.0,0.0,0.0,0.0,0.0,0.0,0.0,0.0,0.0,0.0,0.0,0.0,0.0,0.0,0.0,0.0,0.0,0.0,0.0,0.0,0.0,0.0,0.0,0.0,0.0,0.0,0.0,0.0,0.0,0.0,0.0,0.0,0.0,0.0,0.0,0.0,0.0,0.0,0.0,0.0,0.0,0.0,0.0,0.0,0.0,0.0,0.0,0.0,0.0,0.0,0.0,6.0522,6.3891,6.5028,6.5213,6.4522,6.0885,5.7032,0.0,0.0,0.0,0.0,0.0,0.0,0.0,0.0,0.0,0.0,0.0,0.0,0.0,0.0,0.0,0.0,0.0,0.0,0.0,0.0,0.0,0.0,0.0,0.0,0.0,0.0,0.0,0.0,0.0,0.0,0.0,0.0,0.0,0.0,0.0,0.0,0.0,0.0,0.0,0.0,0.0,0.0,0.0,0.0,0.0,0.0,0.0,0.0,3.56,0.0,0.0,0.0,0.0,0.0,0.0,0.0,0.0,0.0,0.0,0.0,0.0,0.0,0.0,0.0,0.0,0.0,0.0,0.0,0.0,0.0,0.0,0.0,0.0,0.0,0.0,0.0,0.0,0.0,0.0,0.0,0.0,0.0,0.0,0.0,0.0,0.0,0.0,0.0,0.0,0.0,0.0,0.0,0.0,0.0,0.0,0.0,0.0,0.0,0.0,0.0,0.0,0.0,0.0,0.0,0.0,0.0,0.0,0.0,6.167,6.4693,6.6017,6.6277,6.5362,6.2963,5.9381,0.0,0.0,0.0,0.0,0.0,0.0,0.0,0.0,0.0,0.0,0.0,0.0,0.0,0.0,0.0,0.0,0.0,0.0,0.0,0.0,0.0,0.0,0.0,0.0,0.0,0.0,0.0,0.0,0.0,0.0,0.0,0.0,0.0,0.0,0.0,0.0,0.0,0.0,0.0,0.0,0.0,0.0,0.0,0.0,0.0,0.0,0.0,0.0,0.0,0.0,0.0,0.0,0.0,0.0,0.0,0.0,0.0,0.0,0.0,0.0,0.0,0.0,0.0,0.0,0.0,0.0,0.0,0.0,0.0,0.0,0.0,0.0,0.0,0.0,0.0,0.0,0.0,0.0,0.0,0.0,0.0,0.0,0.0,0.0,0.0,0.0,0.0,0.0,0.0,0.0,0.0,0.0,0.0,0.0,0.0,0.0,0.0,0.0,0.0,0.0,0.0,0.0,0.0,0.0,0.0,0.0,0.0,5.9449,6.241,6.4916,6.6648,6.7057,6.6128,6.4493,6.1263,5.6367,0.0,0.0,0.0,0.0,0.0,0.0,0.0,0.0,0.0,0.0,0.0,0.0,0.0,0.0,0.0,0.0,0.0,0.0,0.0,0.0,0.0,0.0,0.0,0.0,0.0,0.0,0.0,0.0,0.0,0.0,0.0,0.0,0.0,0.0,0.0,0.0,0.0,0.0,3.8261,3.9681,0.0,0.0,0.0,0.0,0.0,0.0,0.0,0.0,3.8159,0.0,0.0,0.0,0.0,0.0,0.0,0.0,0.0,0.0,0.0,0.0,0.0,0.0,0.0,0.0,0.0,0.0,0.0,0.0,0.0,0.0,0.0,0.0,0.0,0.0,0.0,0.0,0.0,0.0,0.0,0.0,0.0,0.0,0.0,0.0,0.0,0.0,0.0,0.0,0.0,0.0,0.0,0.0,0.0,0.0,0.0,0.0,0.0,0.0,0.0,0.0,0.0,0.0,0.0,0.0,0.0,5.7011,6.089,6.3854,6.5845,6.7503,6.759,6.6128,6.4493,6.1523,5.7143,0.0,0.0,0.0,0.0,0.0,0.0,0.0,0.0,0.0,0.0,0.0,0.0,0.0,0.0,0.0,0.0,0.0,0.0,0.0,0.0,0.0,0.0,0.0,0.0,0.0,0.0,0.0,0.0,0.0,0.0,0.0,0.0,0.0,0.0,0.0,0.0,0.0,0.0,0.0,4.1948,4.3064,0.0,0.0,0.0,0.0,0.0,0.0,0.0,0.0,3.8734,0.0,0.0,0.0,0.0,0.0,0.0,0.0,0.0,0.0,0.0,0.0,0.0,0.0,0.0,0.0,0.0,0.0,0.0,0.0,0.0,0.0,0.0,0.0,0.0,0.0,0.0,0.0,0.0,0.0,0.0,0.0,0.0,0.0,0.0,0.0,0.0,0.0,0.0,0.0,0.0,0.0,0.0,0.0,0.0,0.0,0.0,0.0,0.0,0.0,0.0,0.0,0.0,0.0,0.0,0.0,5.8452,6.2142,6.4924,6.6662,6.7874,6.7763,6.6128,6.4085,6.1152,0.0,0.0,0.0,0.0,0.0,0.0,0.0,0.0,0.0,0.0,0.0,0.0,0.0,0.0,0.0,0.0,0.0,0.0,0.0,0.0,0.0,0.0,0.0,0.0,0.0,0.0,0.0,0.0,0.0,0.0,0.0,0.0,0.0,0.0,0.0,0.0,0.0,0.0,0.0,0.0,4.4047,4.5289,4.6031,0.0,0.0,0.0,0.0,0.0,0.0,4.2166,4.1343,0.0,0.0,0.0,0.0,0.0,0.0,0.0,0.0,0.0,0.0,0.0,0.0,0.0,0.0,0.0,0.0,0.0,0.0,0.0,0.0,0.0,0.0,0.0,0.0,0.0,0.0,0.0,0.0,0.0,0.0,0.0,0.0,0.0,0.0,0.0,0.0,0.0,0.0,0.0,0.0,0.0,0.0,0.0,0.0,0.0,0.0,0.0,0.0,0.0,0.0,0.0,0.0,0.0,0.0,0.0,5.9827,6.3063,6.5565,6.7219,6.8073,6.7725,6.6128,6.3713,6.0692,0.0,0.0,0.0,0.0,0.0,0.0,0.0,0.0,0.0,0.0,0.0,0.0,0.0,0.0,0.0,0.0,0.0,0.0,0.0,0.0,0.0,0.0,0.0,0.0,0.0,0.0,0.0,0.0,0.0,0.0,0.0,0.0,0.0,0.0,0.0,0.0,0.0,0.0,0.0,0.0,0.0,4.7362,4.8507,4.8507,0.0,0.0,0.0,0.0,4.631,4.5526,0.0,0.0,0.0,0.0,0.0,0.0,0.0,0.0,0.0,0.0,0.0,0.0,0.0,0.0,0.0,0.0,0.0,0.0,0.0,0.0,0.0,0.0,0.0,0.0,0.0,0.0,0.0,0.0,0.0,0.0,0.0,0.0,0.0,0.0,0.0,0.0,0.0,0.0,0.0,0.0,0.0,0.0,0.0,0.0,0.0,0.0,0.0,0.0,0.0,0.0,0.0,0.0,0.0,0.0,0.0,0.0,6.0752,6.3382,6.5528,6.7219,6.8097,6.7701,6.6128,6.3713,6.0432,0.0,0.0,0.0,0.0,0.0,0.0,0.0,0.0,0.0,0.0,0.0,0.0,0.0,0.0,0.0,0.0,0.0,0.0,0.0,0.0,0.0,0.0,0.0,0.0,0.0,0.0,0.0,0.0,0.0,0.0,0.0,0.0,0.0,0.0,0.0,0.0,0.0,0.0,0.0,0.0,0.0,4.9349,5.1932,5.1664,5.143,0.0,0.0,5.0092,4.9991,4.8413,0.0,0.0,0.0,0.0,0.0,0.0,0.0,0.0,0.0,0.0,0.0,0.0,0.0,0.0,0.0,0.0,0.0,0.0,0.0,0.0,0.0,0.0,0.0,0.0,0.0,0.0,0.0,0.0,0.0,0.0,0.0,0.0,0.0,0.0,0.0,0.0,0.0,0.0,0.0,0.0,0.0,0.0,0.0,0.0,0.0,0.0,0.0,0.0,0.0,0.0,0.0,0.0,0.0,0.0,0.0,5.746,6.1589,6.4216,6.6304,6.7924,6.8296,6.7763,6.6128,6.3713,6.0395,0.0,0.0,0.0,0.0,0.0,0.0,0.0,0.0,0.0,0.0,0.0,0.0,0.0,0.0,0.0,0.0,0.0,0.0,0.0,0.0,0.0,0.0,0.0,0.0,0.0,0.0,0.0,0.0,0.0,0.0,0.0,0.0,0.0,0.0,0.0,0.0,0.0,0.0,0.0,0.0,0.0,0.0,5.4164,5.4628,0.0,0.0,0.0,5.4692,5.415,0.0,0.0,0.0,0.0,0.0,0.0,0.0,0.0,0.0,0.0,0.0,0.0,0.0,0.0,0.0,0.0,0.0,0.0,0.0,0.0,0.0,0.0,0.0,0.0,0.0,0.0,0.0,0.0,0.0,0.0,0.0,0.0,0.0,0.0,0.0,0.0,0.0,0.0,0.0,0.0,0.0,0.0,0.0,0.0,0.0,0.0,0.0,0.0,0.0,0.0,0.0,0.0,0.0,0.0,0.0,0.0,0.0,6.2487,6.4893,6.6908,6.8444,6.8518,6.7701,6.6128,6.3713,0.0,0.0,0.0,0.0,0.0,0.0,0.0,0.0,0.0,0.0,0.0,0.0,0.0,0.0,0.0,0.0,0.0,0.0,0.0,0.0,0.0,0.0,0.0,0.0,0.0,0.0,0.0,3.975,0.0,0.0,0.0,0.0,0.0,0.0,0.0,0.0,0.0,0.0,0.0,0.0,0.0,0.0,5.2762,5.6412,5.7703,5.884,0.0,0.0,5.8893,5.8177,5.6649,5.4503,0.0,0.0,0.0,0.0,0.0,0.0,0.0,0.0,0.0,0.0,0.0,0.0,0.0,0.0,0.0,0.0,0.0,0.0,0.0,0.0,0.0,0.0,0.0,0.0,0.0,0.0,0.0,0.0,0.0,0.0,0.0,0.0,0.0,0.0,0.0,0.0,0.0,0.0,0.0,0.0,0.0,0.0,0.0,0.0,0.0,0.0,0.0,0.0,0.0,0.0,0.0,0.0,0.0,0.0,5.9227,6.3393,6.5213,6.6908,6.8444,6.8518,6.7763,6.6128,6.3713,6.0744,0.0,0.0,0.0,0.0,0.0,0.0,0.0,0.0,0.0,0.0,0.0,0.0,0.0,0.0,0.0,0.0,0.0,0.0,0.0,0.0,0.0,0.0,0.0,0.0,0.0,0.0,0.0,0.0,0.0,0.0,0.0,0.0,0.0,0.0,0.0,0.0,0.0,0.0,0.0,0.0,0.0,5.5162,5.9138,6.0962,6.2354,0.0,6.2851,6.189,6.1824,5.9066,5.6358,5.4837,0.0,0.0,0.0,0.0,0.0,0.0,0.0,0.0,0.0,0.0,0.0,0.0,0.0,0.0,0.0,0.0,0.0,0.0,0.0,0.0,0.0,0.0,0.0,0.0,0.0,0.0,0.0,0.0,6.4923,0.0,0.0,0.0,0.0,0.0,0.0,0.0,0.0,0.0,0.0,0.0,0.0,0.0,0.0,0.0,0.0,0.0,0.0,0.0,0.0,0.0,0.0,0.0,0.0,5.9588,6.4248,6.6017,6.7874,6.9855,6.9484,6.8704,6.7614,6.5176,6.2309,0.0,0.0,0.0,0.0,0.0,0.0,0.0,0.0,0.0,0.0,0.0,0.0,0.0,0.0,0.0,0.0,0.0,0.0,0.0,0.0,0.0,0.0,0.0,0.0,0.0,0.0,0.0,0.0,4.3005,4.3279,4.2813,0.0,0.0,0.0,0.0,0.0,0.0,0.0,0.0,0.0,0.0,5.793,6.1525,6.3272,0.0,0.0,6.5127,6.4001,6.3537,6.175,5.9452,5.6658,5.3742,0.0,0.0,0.0,0.0,0.0,0.0,0.0,0.0,0.0,0.0,0.0,0.0,0.0,0.0,0.0,0.0,0.0,0.0,0.0,0.0,0.0,0.0,0.0,0.0,0.0,0.0,6.6233,6.6174,0.0,0.0,0.0,0.0,0.0,0.0,0.0,0.0,0.0,0.0,0.0,0.0,0.0,0.0,0.0,0.0,0.0,0.0,0.0,0.0,0.0,0.0,0.0,0.0,6.0283,6.4768,6.6685,6.8704,7.0858,7.0338,6.9558,6.8506,6.655,6.3942,0.0,0.0,0.0,0.0,0.0,0.0,0.0,0.0,0.0,0.0,0.0,0.0,0.0,0.0,0.0,0.0,0.0,0.0,0.0,0.0,0.0,0.0,0.0,0.0,0.0,0.0,0.0,0.0,4.4381,4.4492,4.3724,0.0,0.0,0.0,0.0,0.0,0.0,0.0,0.0,0.0,0.0,6.0438,6.361,6.5371,6.6817,6.8076,6.7016,6.5823,6.5183,6.3577,6.1509,5.8825,0.0,0.0,0.0,0.0,0.0,0.0,0.0,0.0,0.0,0.0,0.0,0.0,0.0,0.0,0.0,0.0,0.0,0.0,0.0,0.0,0.0,0.0,0.0,0.0,0.0,0.0,0.0,6.7754,0.0,0.0,6.6852,0.0,0.0,0.0,0.0,0.0,0.0,0.0,0.0,0.0,0.0,0.0,0.0,0.0,0.0,0.0,0.0,0.0,0.0,0.0,0.0,0.0,0.0,6.1434,6.4768,6.7256,6.9298,7.0895,7.0895,7.0152,6.8654,6.7664,6.5565,6.2036,0.0,0.0,0.0,0.0,0.0,0.0,0.0,0.0,0.0,0.0,0.0,0.0,0.0,0.0,0.0,0.0,0.0,0.0,0.0,0.0,0.0,0.0,0.0,0.0,0.0,0.0,4.6046,4.5344,4.457,0.0,0.0,0.0,0.0,0.0,0.0,0.0,0.0,0.0,5.6008,5.9443,6.2657,6.539,6.743,6.8884,6.9647,6.8506,6.7405,6.6867,6.4275,6.2082,0.0,0.0,0.0,0.0,0.0,0.0,0.0,0.0,0.0,0.0,0.0,0.0,0.0,0.0,0.0,0.0,0.0,0.0,0.0,0.0,0.0,0.0,0.0,0.0,0.0,0.0,0.0,7.1481,7.02,0.0,0.0,0.0,0.0,0.0,0.0,0.0,0.0,0.0,0.0,0.0,7.3077,7.1728,0.0,0.0,0.0,0.0,0.0,0.0,0.0,0.0,0.0,0.0,0.0,0.0,6.2628,6.6364,6.8853,7.1143,7.3261,7.2852,7.2295,7.1738,6.9818,6.6852,6.278,0.0,0.0,0.0,0.0,0.0,0.0,0.0,0.0,0.0,0.0,0.0,0.0,0.0,0.0,0.0,0.0,0.0,0.0,0.0,0.0,0.0,0.0,0.0,0.0,0.0,4.7515,0.0,0.0,0.0,0.0,0.0,0.0,0.0,0.0,0.0,0.0,5.3425,5.6777,6.0425,6.3194,6.5722,6.7915,6.9194,6.997,0.0,0.0,0.0,0.0,0.0,0.0,0.0,0.0,0.0,0.0,0.0,0.0,0.0,0.0,5.5647,5.1996,5.1593,5.1753,5.1612,0.0,0.0,0.0,0.0,0.0,0.0,0.0,0.0,0.0,0.0,0.0,0.0,0.0,0.0,7.4721,7.3677,7.3218,0.0,0.0,0.0,0.0,0.0,0.0,0.0,0.0,7.6564,7.6986,7.7311,7.6013,7.4811,7.3646,7.1286,6.7936,0.0,0.0,0.0,0.0,0.0,0.0,0.0,0.0,6.4285,6.7987,7.0474,7.2748,7.4762,7.4364,7.3983,7.3585,7.112,6.8044,6.4401,6.1666,5.869,0.0,0.0,0.0,0.0,0.0,0.0,0.0,0.0,0.0,0.0,0.0,0.0,0.0,0.0,0.0,0.0,0.0,0.0,0.0,0.0,0.0,0.0,0.0,4.9293,0.0,0.0,0.0,0.0,0.0,0.0,0.0,0.0,0.0,5.4086,5.709,6.052,6.3944,6.6044,6.7843,6.939,0.0,0.0,0.0,0.0,0.0,0.0,0.0,6.7457,6.6812,6.6934,6.7032,6.6799,6.5814,6.4629,6.3429,0.0,0.0,5.7541,5.6927,5.7305,5.7185,5.7026,5.6824,5.649,5.6089,5.5712,0.0,0.0,0.0,0.0,7.8511,0.0,0.0,0.0,7.8527,7.8434,0.0,7.6763,0.0,0.0,0.0,0.0,7.5689,7.7029,0.0,0.0,8.019,8.084,8.084,8.0022,7.9035,7.7857,7.5494,7.37,7.2202,6.5448,6.1261,0.0,0.0,0.0,0.0,0.0,6.6479,6.9506,7.1987,7.3969,7.5383,7.542,7.5022,7.4136,7.1674,6.9235,6.6916,6.5059,6.2583,5.9249,5.6068,0.0,0.0,0.0,0.0,0.0,0.0,0.0,0.0,0.0,0.0,0.0,0.0,0.0,0.0,0.0,0.0,0.0,0.0,0.0,0.0,5.0708,0.0,0.0,0.0,0.0,0.0,0.0,0.0,0.0,0.0,5.7869,5.8116,6.0926,6.4001,6.6617,0.0,0.0,0.0,0.0,7.1801,7.1801,7.1801,7.166,7.1106,7.0034,6.9603,7.0536,0.0,0.0,7.0991,7.0334,6.9646,6.9564,6.9813,6.8405,6.293,6.2386,6.2635,6.2668,6.2668,6.2489,6.2048,6.1426,6.0954,8.7585,0.0,0.0,0.0,0.0,8.3865,8.3714,8.3653,8.3536,8.2846,8.1768,8.1371,0.0,0.0,0.0,0.0,0.0,0.0,8.2407,8.3682,8.4086,8.448,8.5,8.3507,8.2281,8.1218,7.9289,7.7487,7.5799,7.2092,6.8666,6.5706,0.0,0.0,0.0,0.0,6.9136,7.1115,7.3517,7.5263,7.6232,7.6269,7.5748,7.4669,7.2839,7.1154,6.9644,6.6948,6.4446,6.2313,5.9212,0.0,0.0,0.0,0.0,0.0,0.0,0.0,0.0,0.0,0.0,0.0,0.0,0.0,0.0,0.0,0.0,0.0,0.0,0.0,5.5394,5.4784,5.3936,0.0,0.0,0.0,0.0,0.0,0.0,0.0,0.0,0.0,6.4735,6.5211,6.6534,0.0,0.0,7.1053,7.2269,7.3236,7.375,7.3797,7.4236,0.0,7.3641,7.3399,7.3581,7.4317,7.5271,7.5927,7.5595,7.5312,7.4808,7.3952,7.3862,7.3194,7.1331,6.9379,6.8372,6.8356,6.8208,6.7992,6.7627,6.691,6.6177,9.2866,9.1083,8.9094,8.8204,8.8166,8.7972,8.7958,8.8041,8.7613,8.6914,8.5986,8.5409,8.4495,8.3376,8.32,0.0,0.0,0.0,8.5998,8.7234,8.744,8.7601,8.7712,8.6264,8.507,8.4025,8.1955,8.0362,7.9213,7.6827,7.4522,7.2282,0.0,6.8007,6.8911,7.0206,7.1568,7.3056,7.4863,7.6162,7.684,7.6817,7.6263,7.5184,7.3939,7.2642,7.1301,6.9078,6.6972,6.5022,6.251,5.9852,0.0,0.0,0.0,0.0,0.0,0.0,0.0,0.0,0.0,0.0,0.0,4.7392,4.8093,0.0,0.0,0.0,5.5671,5.7999,5.9537,5.8589,0.0,0.0,0.0,0.0,0.0,0.0,0.0,6.1415,6.3729,6.6459,6.9767,6.9685,7.02,7.2665,7.2734,7.3071,7.4187,0.0,7.5608,7.5912,7.6589,7.6995,7.686,7.6757,7.6927,7.7355,7.8491,7.9206,7.8809,7.8602,7.8308,7.7587,7.7216,7.6844,7.6187,7.4637,7.3176,7.2429,7.2161,7.1949,7.1682,7.0835,7.0086,9.7573,9.7908,9.3567,9.1554,9.1168,9.113,9.1348,9.1717,9.1046,9.0679,9.0494,8.8975,8.7984,8.7406,8.6772,0.0,8.7406,8.8225,8.8878,8.9533,9.0239,9.0202,8.9459,8.8377,8.7364,8.6315,8.3871,8.2569,8.215,7.9984,7.8908,7.8811,7.366,7.1425,7.2078,7.2816,7.3867,7.5242,7.6125,7.6838,7.7316,7.7228,7.6669,7.5603,7.4801,7.3634,7.2,7.1126,6.9536,6.7172,6.5565,6.3248,6.0134,0.0,0.0,0.0,0.0,0.0,0.0,0.0,0.0,0.0,0.0,0.0,0.0,0.0,0.0,5.6186,5.9685,0.0,6.2952,6.2337,0.0,0.0,0.0,6.0587,6.0587,6.2159,6.4348,6.7129,0.0,0.0,7.3439,7.4069,7.4478,7.5306,7.5072,7.5134,7.5879,7.6724,7.7502,7.8145,7.8889,7.96,7.9989,7.9851,7.958,7.9679,8.0399,8.0829,8.0829,8.0664,8.0474,8.0353,7.9936,7.9276,7.8567,7.7918,7.7204,7.5187,7.4743,7.4633,7.4291,7.3467,7.2676,9.9597,9.9708,9.8553,9.7059,9.5376,9.4574,9.4362,9.4444,9.4258,9.385,9.3219,9.2847,9.191,9.06,9.0446,9.0111,8.9745,9.0526,9.0977,9.113,9.1316,9.1316,9.1056,8.9391,8.8117,8.7239,8.5725,8.4312,8.3104,8.1929,8.1044,8.0383,7.8504,7.6764,7.533,7.5477,7.5971,7.6747,7.7468,7.7856,7.781,7.7814,7.7024,7.5479,7.4679,7.3416,7.1692,7.0314,6.9044,6.7824,6.6229,6.4162,6.1598,5.9128,0.0,0.0,0.0,0.0,0.0,0.0,0.0,0.0,0.0,5.2536,5.4315,0.0,5.8799,0.0,6.4317,6.6767,6.742,6.688,0.0,0.0,6.5308,6.5636,6.5672,6.727,6.8932,7.0427,7.1663,7.3258,7.547,7.665,7.774,7.9046,7.8021,7.7435,7.8213,7.9431,8.031,8.0513,8.1088,8.1697,8.1815,8.1903,8.1717,8.1371,8.1856,8.2353,8.2353,8.233,8.2217,8.1925,8.1416,8.0738,8.0018,7.8999,7.8039,7.7196,7.6653,7.6209,7.5838,7.4975,7.4211,10.1121,10.1347,10.0975,10.0082,9.8848,9.7592,9.6852,9.6517,9.6517,9.6034,9.5254,9.4883,9.4214,9.3359,9.2988,9.2579,9.2171,9.2245,9.2282,9.2282,9.2282,9.2096,9.165,9.0165,8.9,8.8088,8.6642,8.5411,8.4462,8.3324,8.2517,8.2076,8.0901,7.9685,7.8492,7.8088,7.8027,7.828,7.856,7.8585,7.842,7.8092,7.7225,7.5825,7.4337,7.2894,7.1531,7.0009,6.8814,6.8017,6.7148,6.5736,6.3708,6.1734,5.9927,0.0,0.0,0.0,0.0,0.0,0.0,0.0,0.0,0.0,0.0,0.0,6.3107,6.6161,6.8629,7.0307,7.0913,7.0665,7.0061,6.9071,6.9457,6.998,7.0572,7.1573,7.2832,7.4455,7.5028,7.604,7.7979,7.8759,7.9698,8.119,8.0851,8.0479,8.0615,8.1325,8.19,8.2238,8.2611,8.2945,8.3004,8.3121,8.3008,8.2488,8.2618,8.2883,8.2883,8.2883,8.2827,8.2623,8.2213,8.1647,8.0976,7.9717,7.8641,7.8048,7.7382,7.6791,7.6556,7.5974,7.5342,10.2382,10.2796,10.1978,10.1607,10.1384,10.0009,9.8895,9.804,9.7929,9.7483,9.6703,9.6034,9.5663,9.5514,9.4697,9.4288,9.414,9.3359,9.2988,9.2988,9.2988,9.2616,9.1836,9.086,8.9917,8.8901,8.7188,8.6173,8.5747,8.4389,8.3654,8.3508,8.215,8.1452,8.1452,8.0755,8.0181,7.9767,7.9712,7.9512,7.9269,7.8579,7.7604,7.6309,7.4175,7.2509,7.1386,6.9973,6.8808,6.7945,6.7945,6.7329,6.5808,6.4367,6.3373,0.0,6.0663,0.0,0.0,0.0,0.0,0.0,0.0,0.0,0.0,6.4685,6.7517,7.141,7.244,7.3148,7.3777,7.3843,7.3555,7.2689,7.3093,7.3942,7.5066,7.5345,7.6193,7.8259,7.7977,7.8434,8.0238,8.058,8.1105,8.2202,8.2893,8.2994,8.2709,8.266,8.2949,8.3558,8.3727,8.3973,8.4094,8.403,8.3743,8.3218,8.295,8.2883,8.2883,8.2883,8.2883,8.2883,8.2623,8.2222,8.1661,8.0451,7.9357,7.8624,7.7649,7.6872,7.6783,7.6467,7.6239,10.365,10.3687,10.2833,10.2127,10.1495,10.1161,10.0232,9.882,9.8189,9.7817,9.7632,9.7483,9.7037,9.6331,9.5514,9.4808,9.4177,9.3359,9.2988,9.2988,9.2988,9.2914,9.2691,9.1579,9.0597,8.9713,8.8414,8.7103,8.5783,8.549,8.5013,8.4389,8.4058,8.3911,8.3911,0.0,0.0,0.0,8.1798,8.1661,8.0765,8.0548,7.9135,7.6384,7.5261,0.0,7.0734,6.9684,6.8488,6.7148,6.7655,0.0,0.0,0.0,0.0,0.0,0.0,0.0,0.0,0.0,0.0,0.0,6.8958,6.8791,6.817,7.0478,7.2512,7.3781,7.4629,7.5331,7.5913,7.6388,7.6503,7.6187,7.6961,7.7676,7.7944,7.8154,7.8635,7.9406,7.9751,8.0139,8.0833,8.1825,8.2561,8.2651,8.3268,8.3637,8.3591,8.3847,8.4181,8.4437,8.4911,8.5371,8.5538,8.5047,8.4512,8.3915,8.3281,8.295,8.2883,8.2883,8.2883,8.2883,8.2827,8.268,8.2255,8.1063,7.9997,7.9552,7.8191,7.7064,7.6839,7.6524,7.6264,10.4207,10.3799,10.3242,10.2537,0.0,10.1389,10.05,9.9388,9.875,9.8263,9.7892,9.7892,9.7669,9.7186,9.596,9.518,9.4734,9.3545,9.2988,9.2988,9.2988,9.2955,9.2818,9.1835,9.0781,8.9799,8.8817,8.7686,8.6407,8.5967,8.56,8.5196,8.4792,8.4609,8.4609,8.4471,8.3898,8.2784,8.3115,8.2756,8.1744,8.1309,7.9752,7.7,7.5732,0.0,0.0,0.0,0.0,0.0,0.0,0.0,0.0,6.9286,6.9372,6.9313,6.9149,6.9588,7.0673,7.1396,7.2402,7.3904,7.5182,7.4999,7.2762,7.4571,7.6225,7.7157,7.7651,7.8059,7.8469,7.8764,7.8796,7.8485,7.8925,7.929,7.9465,7.9793,8.0247,8.0672,8.1071,8.1493,8.1922,8.2435,8.2999,8.3226,8.3507,8.3942,8.4298,8.4695,8.5121,8.5635,8.6027,8.6303,8.622,8.5773,8.5169,8.4385,8.3792,8.3314,8.295,8.2883,8.2883,8.2883,8.2883,8.2827,8.2614,8.1355,8.0254,7.9955,7.8625,7.7399,7.7199,7.6863,7.6467,10.461,10.3832,10.3493,10.2862,10.2049,10.1421,10.0572,9.9649,9.9017,0.0,0.0,9.7787,9.7822,9.7746,9.6112,9.5369,9.5291,9.3698,9.2955,9.2955,9.2922,9.2822,9.2613,9.1949,9.0929,8.9696,8.8964,8.8088,8.6995,8.6334,8.6004,8.5967,8.5343,8.5013,8.5049,8.4843,8.4635,8.4423,8.4172,8.3593,8.2758,8.207,8.0585,7.8195,7.671,7.5152,7.3414,7.2581,7.2042,7.1902,7.201,7.2018,7.1896,7.2584,7.3024,7.3178,7.3684,7.4618,7.6013,7.6078,7.6887,7.8895,8.0081,7.9539,7.671,7.7731,7.8993,8.0126,8.0225,8.0267,8.0474,8.0517,8.0479,8.0212,8.0305,8.0455,8.0789,8.1117,8.1521,8.1783,8.1999,8.234,8.2805,8.2858,8.3063,8.3609,8.3843,8.4233,8.4958,8.5314,8.5759,8.6598,8.6856,8.6868,8.669,8.6365,8.5805,8.4854,8.4361,8.3915,8.3228,8.294,8.294,8.2883,8.2883,8.2883,8.2817,8.1689,8.0629,8.0563,7.9287,7.8113,7.8058,7.7646,7.7163,10.5348,10.4415,10.3637,10.2862,10.2086,10.2012,10.1089,9.9575,9.8171,9.7469,9.7395,9.7358,9.7466,9.757,9.5867,9.5266,9.5257,9.3563,9.2717,9.2754,9.2582,9.2479,9.2407,9.2157,9.1204,8.9735,8.9413,8.8463,8.7142,8.6885,8.6848,8.6811,8.6738,8.6664,8.663,8.6454,8.6243,8.6064,8.5155,8.4609,8.4352,8.4243,8.3048,8.073,7.968,7.8122,7.5877,7.5044,7.4185,7.3369,7.3982,7.4242,7.4108,7.4723,7.5657,7.6875,7.6793,7.7352,7.8918,7.9391,8.0288,8.1634,8.2015,8.1381,7.9681,8.0245,8.076,8.0794,8.0657,8.0448,8.0535,8.0841,8.1274,8.169,8.216,8.2577,8.2938,8.2897,8.2682,8.2342,8.2653,8.2751,8.2519,8.291,8.3376,8.3872,8.4138,8.457,8.5821,8.6049,8.6242,8.6868,8.7036,8.719,8.7319,8.7176,8.6574,8.5521,8.5034,8.4467,8.3509,8.3254,8.3165,8.294,8.2883,8.2883,8.2883,8.2254,8.1602,8.1414,8.0464,7.9825,7.9704,7.929,7.8576,10.5884,10.503,10.4062,10.3172,10.2325,10.1037,10.0043,9.9233,9.7651,9.7101,9.7285,9.7285,9.7321,9.7282,9.5692,9.4987,9.4983,9.3322,9.2547,9.2547,9.2444,9.2303,9.2233,9.2127,9.143,9.0257,9.0077,8.9234,8.7802,8.7655,8.7435,8.7068,8.6891,8.6786,8.668,8.6465,8.632,8.6247,8.5773,8.5262,8.4714,8.4678,8.3772,8.1817,8.1382,8.0295,7.834,7.7905,7.7223,7.6221,7.6546,7.6587,7.6339,7.7413,7.8305,7.8907,7.9458,8.0394,8.1833,8.2701,8.3437,8.4053,8.4088,8.3754,8.2954,8.2427,8.2068,8.2015,8.2107,8.2126,8.2059,8.2488,8.2924,8.3058,8.3342,8.3492,8.3407,8.3652,8.35,8.2979,8.3215,8.3327,8.2854,8.3297,8.3749,8.401,8.4573,8.5492,8.633,8.6613,8.6945,8.7568,8.7692,8.7768,8.7895,8.7811,8.7333,8.6517,8.5871,8.5192,8.4289,8.3777,8.331,8.3108,8.2996,8.2883,8.2883,8.2287,8.1889,8.1724,8.1138,8.0598,8.0476,8.0142,7.9355,10.619,10.5302,10.4329,10.3329,10.2228,10.0062,9.9108,9.8961,9.7383,9.6876,9.7138,9.7138,9.7175,9.7064,9.5477,9.4739,9.4553,9.3076,9.2303,9.234,9.2268,9.2199,9.2056,9.202,9.1507,9.0702,9.0629,8.9858,8.861,8.8463,8.8024,8.7257,8.7007,8.6719,8.6429,8.621,8.61,8.61,8.6063,8.5697,8.5004,8.4968,8.4279,8.2976,8.2831,8.2143,8.0839,8.073,8.0297,7.9504,7.9432,7.9214,7.8915,7.9987,8.0662,8.0756,8.1728,8.2897,8.4157,8.5003,8.5596,8.5771,8.5596,8.547,8.5345,8.4169,8.332,8.3354,8.3578,8.3658,8.3586,8.3893,8.4281,8.4225,8.4294,8.4151,8.3839,8.425,8.4333,8.3765,8.3838,8.3965,8.3865,8.4048,8.4341,8.4672,8.56,8.6362,8.6494,8.6984,8.746,8.7846,8.7962,8.7962,8.802,8.802,8.7711,8.7223,8.6677,8.6063,8.5304,8.4345,8.3688,8.3599,8.3152,8.2973,8.285,8.2486,8.2154,8.2088,8.1724,8.1238,8.116,8.085,8.0063,10.6107,10.5096,10.4284,10.2999,10.1531,9.9842,9.9145,9.8888,9.7419,9.6685,9.6799,9.6724,9.6838,9.6805,9.5258,9.4594,9.4628,9.2935,9.2091,9.2091,9.1948,9.184,9.184,9.184,9.1399,9.0702,9.0665,9.0225,8.9308,8.9235,8.8797,8.7886,8.7632,8.7122,8.6466,8.6174,8.61,8.61,8.5986,8.5875,8.5801,8.5764,8.5366,8.4497,8.446,8.4062,8.312,8.3157,8.2936,8.2562,8.238,8.226,8.1798,8.1937,8.229,8.3004,8.3484,8.4227,8.524,8.5466,8.5877,8.6439,8.5947,8.5785,8.6102,8.5251,8.4623,8.4611,8.4444,8.43,8.4287,8.4198,8.4481,8.5018,8.5087,8.513,8.5173,8.5344,8.5304,8.5127,8.4845,8.4902,8.5087,8.5044,8.5268,8.5798,8.6494,8.7057,8.7057,8.7216,8.7349,8.7408,8.7408,8.7467,8.7434,8.7611,8.7545,8.72,8.725,8.6926,8.6231,8.5426,8.4634,8.4177,8.354,8.3016,8.2883,8.2817,8.2751,8.2618,8.2552,8.2529,8.2213,8.176,8.0818,10.6276,10.5789,10.4981,10.3696,10.2081,10.0503,9.9548,9.8998,9.7897,9.7163,9.6722,9.6606,9.657,9.6537,9.477,9.4001,9.3967,9.2316,9.1546,9.1546,9.162,9.1583,9.1657,9.1767,9.162,9.1326,9.1326,9.0813,8.9971,8.935,8.8765,8.8252,8.7703,8.7191,8.6716,8.6241,8.5986,8.595,8.5911,8.5909,8.5909,8.5909,8.5728,8.5438,8.5402,8.5004,8.4279,8.4059,8.3654,8.2953,8.2766,8.2535,8.2219,8.2647,8.3213,8.3869,8.5037,8.5842,8.6158,8.6649,8.7035,8.7386,8.6966,8.6744,8.6751,8.622,8.5853,8.5672,8.518,8.4855,8.4924,8.5136,8.5501,8.5777,8.5846,8.5783,8.5498,8.589,8.5951,8.5418,8.5415,8.5504,8.5554,8.5641,8.6056,8.666,8.7123,8.7289,8.7289,8.7289,8.7289,8.7289,8.7289,8.7289,8.7349,8.7493,8.7562,8.7528,8.7471,8.7285,8.7049,8.6187,8.5393,8.4812,8.3995,8.3314,8.295,8.2916,8.2883,8.2883,8.2883,8.2827,8.2713,8.2482,8.1892,10.6376,10.6229,10.5238,10.399,10.2595,10.098,9.9842,9.9035,9.8227,9.7417,9.6606,9.6375,9.6256,9.6034,9.4601,9.3832,9.3431,9.2154,9.1389,9.1243,9.1358,9.1397,9.1397,9.1546,9.1657,9.1657,9.1583,9.1216,9.0519,8.9784,8.9196,8.8753,8.795,8.7328,8.6959,8.6271,8.5909,8.5909,8.5909,8.5909,8.5909,8.5909,8.5909,8.5909,8.5909,8.5619,8.5076,8.4779,8.4297,8.3564,8.3298,8.3061,8.2897,8.3611,8.4379,8.5082,8.6241,8.7019,8.7,8.7562,8.7925,8.7878,8.7643,8.7405,8.7082,8.6838,8.6593,8.6275,8.5811,8.5501,8.557,8.5984,8.6294,8.6294,8.6244,8.6061,8.5874,8.6282,8.6375,8.608,8.6354,8.633,8.6187,8.6364,8.6693,8.7123,8.7256,8.7289,8.7289,8.7289,8.7289,8.7289,8.7289,8.7289,8.7349,8.7434,8.7611,8.7687,8.7635,8.7629,8.7552,8.6811,8.5938,8.5211,8.4504,8.3802,8.3082,8.2883,8.295,8.2916,8.2916,8.295,8.2827,8.285,8.2737,10.6376,10.6156,10.4651,10.3513,10.2595,10.1017,9.9879,9.9145,9.83,9.7376,9.656,9.6213,9.5935,9.574,9.4988,9.4342,9.354,9.2663,9.1861,9.1204,9.117,9.1206,9.1206,9.1208,9.1244,9.1282,9.1282,9.1171,9.106,9.0868,9.0388,8.9625,8.8633,8.7756,8.7068,8.6308,8.5909,8.5909,8.5909,8.5909,8.5909,8.5909,8.5909,8.5909,8.5909,8.5873,8.5763,8.5574,8.527,8.5075,8.4876,8.4635,8.4574,8.5252,8.6112,8.6993,8.707,8.7266,8.7714,8.789,8.7878,8.7878,8.7643,8.7405,8.7117,8.6789,8.6543,8.6329,8.6294,8.626,8.621,8.6313,8.6347,8.6347,8.6111,8.62,8.6505,8.6481,8.6792,8.7448,8.7486,8.7337,8.7487,8.7368,8.7216,8.7315,8.7289,8.7289,8.7289,8.7289,8.7289,8.7289,8.7289,8.7289,8.7289,8.7349,8.7434,8.7578,8.7654,8.7737,8.7628,8.7352,8.6445,8.563,8.4878,8.4133,8.3248,8.295,8.3082,8.3115,8.3082,8.3082,8.2916,8.2883,8.2827,10.6376,10.6229,10.4614,10.3733,10.3293,10.1751,10.0613,9.9879,9.9426,9.8467,9.725,9.6705,9.6245,9.5658,9.5322,9.445,9.3216,9.238,9.1581,9.0892,9.0936,9.1014,9.1014,9.113,9.1206,9.1206,9.1206,9.113,9.1014,9.0819,9.0556,9.012,8.8882,8.8007,8.7611,8.6525,8.5909,8.5909,8.5909,8.5909,8.5909,8.5909,8.5909,8.5909,8.5909,8.5909,8.5909,8.5531,8.5513,8.5938,8.5652,8.5656,8.6073,8.6525,8.6895,8.715,8.7452,8.7655,8.7854,8.7925,8.7831,8.7643,8.7405,8.713,8.6838,8.6593,8.6394,8.6398,8.6777,8.6933,8.6765,8.6714,8.6714,8.6782,8.6954,8.7002,8.7113,8.7361,8.7722,8.7955,8.8082,8.8123,8.777,8.7611,8.7493,8.7349,8.7289,8.7289,8.7289,8.7289,8.7289,8.7289,8.7289,8.7289,8.7289,8.7289,8.7349,8.7467,8.7519,8.7662,8.762,8.7587,8.6871,8.6205,8.5442,8.4904,8.4241,8.401,8.3976,8.3645,8.3612,8.3281,8.2983,8.2983,8.2916,10.6376,10.6119,10.4577,10.388,10.3696,10.211,10.0973,10.0236,9.996,9.9066,9.7811,9.7164,9.6562,9.597,9.5591,9.4529,9.308,9.2428,9.1632,9.0654,9.074,9.0819,9.0819,9.0936,9.1014,9.1014,9.1014,9.0936,9.0819,9.0661,9.0436,9.011,8.8843,8.8043,8.7531,8.641,8.5759,8.5682,8.5759,8.5797,8.5797,8.5871,8.5835,8.5797,8.5797,8.5797,8.5759,8.5667,8.579,8.6213,8.6209,8.6459,8.7123,8.7346,8.7416,8.7438,8.7701,8.7925,8.7878,8.7831,8.769,8.7501,8.7165,8.6922,8.6691,8.6444,8.6398,8.6708,8.6986,8.7212,8.7367,8.7451,8.7415,8.7296,8.7428,8.7624,8.7647,8.8014,8.8278,8.8361,8.8453,8.8381,8.8045,8.7812,8.7611,8.7434,8.7408,8.7289,8.7289,8.7289,8.7289,8.7289,8.7289,8.7289,8.7289,8.7289,8.7289,8.7408,8.7467,8.7552,8.7611,8.7611,8.7319,8.6721,8.6264,8.5791,8.5467,8.5202,8.4838,8.444,8.401,8.3678,8.338,8.3049,8.2983,10.6376,10.6156,10.4614,10.388,10.3618,10.1987,10.0765,10.0102,9.9823,9.914,9.8177,9.733,9.6841,9.6419,9.573,9.4529,9.3298,9.3044,9.2102,9.069,9.0657,9.0694,9.073,9.0657,9.0618,9.0618,9.0581,9.0581,9.0541,9.0541,9.0216,8.9455,8.8659,8.7782,8.6794,8.6036,8.5417,8.5336,8.5417,8.5531,8.5569,8.5829,8.5902,8.5714,8.5675,8.5711,8.5639,8.6053,8.6285,8.6337,8.6698,8.7159,8.7655,8.7604,8.7664,8.8002,8.7983,8.7925,8.7948,8.776,8.7688,8.765,8.7124,8.6983,8.6954,8.672,8.6777,8.7278,8.7349,8.7383,8.8017,8.8243,8.8218,8.7799,8.7639,8.7851,8.8184,8.8189,8.8294,8.8835,8.8847,8.8586,8.8448,8.8103,8.7728,8.7611,8.7434,8.7289,8.7289,8.7289,8.7289,8.7289,8.7289,8.7289,8.7289,8.7289,8.7289,8.7349,8.7349,8.7408,8.7408,8.7375,8.7268,8.6744,8.6645,8.6262,8.603,8.5765,8.5533,8.5136,8.4639,8.4109,8.3711,8.338,8.3016,10.6376,10.6192,10.4577,10.3834,10.3489,10.1904,10.0939,10.0553,10.0342,9.9699,9.885,9.7924,9.718,9.6527,9.5724,9.4819,9.3877,9.3768,9.2682,9.0907,9.0654,9.0943,9.1193,9.071,9.0295,9.0213,9.0208,9.0172,9.0213,9.0335,9.0191,8.9672,8.8602,8.7801,8.7209,8.6017,8.5258,8.5218,8.5258,8.5549,8.6053,8.6204,8.6456,8.6921,8.6917,8.6913,8.6751,8.6383,8.6701,8.7586,8.7699,8.7899,8.8224,8.8088,8.7967,8.7947,8.7971,8.8124,8.858,8.8413,8.8418,8.8656,8.845,8.82,8.8033,8.7863,8.795,8.8209,8.8415,8.8687,8.8662,8.8953,8.8803,8.83,8.8367,8.8562,8.8765,8.8756,8.8835,8.9004,8.9016,8.879,8.8425,8.8078,8.7846,8.7493,8.7375,8.7289,8.7289,8.7289,8.7289,8.7289,8.7289,8.7289,8.7289,8.7289,8.7289,8.7289,8.7289,8.7289,8.7289,8.7256,8.709,8.6958,8.6892,8.6759,8.656,8.6362,8.6163,8.5798,8.5302,8.4705,8.4109,8.3645,8.3281,10.6376,10.6229,10.4908,10.4049,10.3473,10.2072,10.1173,10.0743,10.0449,10.0108,9.9448,9.8346,9.7535,9.6883,9.5905,9.4964,9.4276,9.4203,9.3225,9.1704,9.1487,9.1772,9.2053,9.1408,9.0773,9.0474,9.0432,9.0252,9.0001,9.0089,8.9945,8.9395,8.8325,8.7493,8.7007,8.5818,8.5167,8.5374,8.5526,8.5925,8.6572,8.6832,8.7048,8.7434,8.7505,8.7526,8.7497,8.7103,8.7282,8.8134,8.8357,8.8481,8.8622,8.8598,8.8544,8.8428,8.8615,8.9001,8.934,8.9087,8.9019,8.9274,8.9079,8.8775,8.8622,8.8605,8.8674,8.8898,8.898,8.9126,8.911,8.9211,8.9113,8.874,8.8879,8.9128,8.9106,8.9106,8.9072,8.9072,8.8959,8.8733,8.8448,8.8078,8.7904,8.7493,8.7408,8.7289,8.7289,8.7289,8.7289,8.7289,8.7289,8.7289,8.7289,8.7289,8.7289,8.7289,8.7289,8.7289,8.7289,8.7289,8.719,8.719,8.7123,8.709,8.6925,8.6991,8.6858,8.6395,8.5931,8.5335,8.4705,8.3943,8.348,10.6376,10.6266,10.5458,10.4525,10.3613,10.2603,10.1624,10.0667,10.0412,10.0288,9.9853,9.8477,9.7789,9.7427,9.6086,9.5,9.442,9.4384,9.3981,9.3293,9.3034,9.2952,9.2448,9.2237,9.1756,9.1031,9.0959,9.06,8.9911,8.9959,8.96,8.8947,8.8157,8.7254,8.6547,8.5432,8.5381,8.5752,8.5989,8.6424,8.7175,8.7418,8.7526,8.7467,8.7539,8.7741,8.8036,8.8221,8.8178,8.8242,8.8639,8.873,8.879,8.9127,8.9166,8.9037,8.9774,9.0055,9.0134,8.9794,8.9603,8.9727,8.9308,8.8708,8.8915,8.9019,8.9174,8.9395,8.9214,8.9164,8.947,8.9431,8.9263,8.9297,8.9229,8.9106,8.9072,8.9072,8.9016,8.8959,8.879,8.8529,8.8448,8.7987,8.7787,8.7611,8.7434,8.7349,8.7289,8.7289,8.7289,8.7289,8.7289,8.7289,8.7289,8.7289,8.7289,8.7289,8.7289,8.7289,8.7289,8.7289,8.7289,8.7289,8.7289,8.7289,8.7289,8.7289,8.7289,8.6991,8.6461,8.5931,8.5169,8.4341,8.3579,10.6376,10.6302,10.5458,10.4808,10.4173,10.332,10.2259,10.121,10.1129,10.0722,9.9962,9.8513,9.7789,9.7608,9.6123,9.5253,9.5072,9.5036,9.491,9.453,9.4494,9.3517,9.2611,9.2733,9.2136,9.0895,9.0752,9.028,8.9529,8.9664,8.9521,8.9171,8.8482,8.7932,8.7308,8.6517,8.6133,8.6096,8.6139,8.6573,8.7291,8.7477,8.7718,8.8251,8.8346,8.854,8.8782,8.9483,8.9447,8.8738,8.8659,8.886,8.9163,8.9248,8.9447,8.9844,9.009,9.0476,9.08,9.0513,9.0508,9.0964,9.04,9.0226,9.0226,9.0226,9.0277,9.0326,9.0006,8.9935,9.0385,9.0199,9.0177,9.0493,8.9816,8.9207,8.914,8.8903,8.8733,8.8677,8.8506,8.8219,8.7987,8.7846,8.7611,8.7467,8.7408,8.7289,8.7289,8.7289,8.7289,8.7289,8.7289,8.7289,8.7289,8.7289,8.7289,8.7289,8.7289,8.7289,8.7289,8.7289,8.7289,8.7289,8.7289,8.7289,8.7289,8.7289,8.7289,8.7289,8.6792,8.613,8.5302,8.4473,8.3745,10.6376,10.6376,10.5741,10.5119,10.4444,10.3846,10.2745,10.16,10.141,10.094,9.9998,9.8513,9.7825,9.7644,9.6123,9.5356,9.5272,9.5235,9.5065,9.4893,9.4691,9.4048,9.329,9.3408,9.2631,9.1105,9.0962,9.0319,8.9499,8.945,8.9371,8.9185,8.8628,8.8143,8.7698,8.705,8.6672,8.671,8.6692,8.7081,8.7834,8.7905,8.8082,8.8551,8.8712,8.8872,8.9432,9.0312,9.0526,9.0001,8.974,8.9689,8.98,8.9952,9.016,9.0652,9.0968,9.1389,9.1572,9.1281,9.1239,9.147,9.1126,9.0865,9.0778,9.0812,9.0794,9.0995,9.0706,9.0844,9.1169,9.0946,9.0922,9.1034,9.0527,8.9884,8.9613,8.8992,8.8677,8.8506,8.8219,8.7962,8.7728,8.7611,8.7434,8.7349,8.7349,8.7289,8.7289,8.7289,8.7322,8.7389,8.7355,8.7355,8.7322,8.7322,8.7289,8.7289,8.7289,8.7289,8.7289,8.7289,8.7289,8.7289,8.7289,8.7289,8.7289,8.7289,8.7289,8.7157,8.6818,8.6229,8.5401,8.4805,8.4043,10.6334,10.6291,10.6041,10.5422,10.4655,10.4289,10.323,10.1781,10.1628,10.1085,10.0034,9.8585,9.8078,9.7825,9.6593,9.5561,9.5383,9.5571,9.5246,9.5027,9.4777,9.4348,9.4357,9.3953,9.3112,9.189,9.1675,9.0783,8.982,8.9427,8.932,8.9178,8.8571,8.8156,8.7983,8.7291,8.7125,8.7364,8.7372,8.7654,8.8194,8.83,8.8325,8.8442,8.8734,8.9411,9.0221,9.1022,9.1331,9.1438,9.1112,9.0657,9.0564,9.1029,9.1332,9.1529,9.2056,9.2547,9.2603,9.2275,9.204,9.2077,9.1594,9.1054,9.1226,9.133,9.143,9.1643,9.1385,9.1485,9.1727,9.1646,9.1734,9.1744,9.1541,9.1068,9.0436,8.9397,8.863,8.8506,8.7987,8.7728,8.7611,8.7493,8.7289,8.7349,8.7289,8.7289,8.7389,8.7521,8.7554,8.7587,8.7521,8.7455,8.7422,8.7355,8.7322,8.7289,8.7289,8.7289,8.7289,8.7289,8.7289,8.7289,8.7289,8.7289,8.7289,8.7289,8.7289,8.7256,8.7024,8.6295,8.55,8.5136,8.454,10.578,10.5743,10.5699,10.5449,10.5162,10.4999,10.3992,10.2352,10.2316,10.1483,10.0215,9.9129,9.873,9.8658,9.7644,9.7116,9.6755,9.6711,9.6678,9.6157,9.5357,9.5152,9.5018,9.4453,9.3505,9.2613,9.189,9.114,9.0319,8.9713,8.932,8.932,8.9099,8.8905,8.8658,8.8375,8.8072,8.8023,8.7875,8.7899,8.8005,8.811,8.811,8.8216,8.8883,9.0057,9.1339,9.181,9.2106,9.2141,9.1411,9.0881,9.1147,9.1262,9.1635,9.2267,9.2899,9.3355,9.3411,9.3545,9.3709,9.3347,9.2964,9.282,9.2606,9.2502,9.2533,9.2468,9.2172,9.2089,9.2314,9.2784,9.2861,9.2793,9.2489,9.2116,9.1662,9.0269,8.913,8.8429,8.7887,8.7408,8.7441,8.7541,8.7422,8.7322,8.7322,8.7322,8.7521,8.7753,8.7919,8.8018,8.8084,8.8051,8.772,8.7554,8.7322,8.7289,8.7289,8.7289,8.7289,8.7289,8.7289,8.7289,8.7289,8.7289,8.7289,8.7289,8.7289,8.7289,8.719,8.6395,8.5699,8.5368,8.4672,10.6158,10.6077,10.566,10.538,10.529,10.5117,10.4155,10.2832,10.2569,10.1664,10.0288,9.9346,9.902,9.8948,9.8187,9.7623,9.7404,9.7138,9.6868,9.644,9.599,9.5806,9.5467,9.5037,9.4357,9.3238,9.2648,9.196,9.1165,9.0363,8.9891,8.982,8.9534,8.9403,8.9476,8.9369,8.9108,8.8788,8.865,8.8405,8.7995,8.7925,8.8124,8.8674,8.9659,9.1023,9.1788,9.2282,9.2588,9.255,9.1996,9.1534,9.1789,9.188,9.2232,9.2934,9.332,9.3847,9.4112,9.4261,9.425,9.4008,9.3711,9.3411,9.3196,9.3123,9.3167,9.3155,9.2959,9.2782,9.3011,9.3233,9.3571,9.3537,9.3233,9.2827,9.2237,9.1,8.9877,8.9299,8.8887,8.8589,8.8403,8.8084,8.7952,8.8018,8.7885,8.7885,8.7885,8.815,8.8482,8.8647,8.878,8.8647,8.8217,8.7819,8.7355,8.7289,8.7289,8.7289,8.7289,8.7289,8.7289,8.7289,8.7289,8.7289,8.7289,8.7289,8.7289,8.7289,8.7024,8.6362,8.5798,8.5335,8.444,10.6834,10.6643,10.5807,10.539,10.5199,10.498,10.4127,10.2895,10.2606,10.1773,10.0469,9.9527,9.931,9.9056,9.8585,9.8057,9.7793,9.7471,9.734,9.7166,9.7008,9.6561,9.6078,9.5745,9.5295,9.4007,9.335,9.2753,9.2092,9.1281,9.072,9.0569,9.0105,9.0089,9.0268,9.0285,9.0105,8.9785,8.9481,8.906,8.8416,8.8299,8.8639,8.9611,9.0597,9.1503,9.1973,9.2431,9.2819,9.2854,9.2765,9.2653,9.2653,9.2688,9.3004,9.3741,9.4022,9.4443,9.49,9.4942,9.4825,9.4374,9.4145,9.3826,9.3645,9.3675,9.3732,9.364,9.3577,9.3349,9.3562,9.3571,9.3571,9.3571,9.3571,9.3267,9.2633,9.1782,9.1186,9.0296,8.9706,8.9281,8.9199,8.9012,8.8846,8.868,8.8548,8.8482,8.8482,8.8714,8.9111,8.9376,8.9509,8.8945,8.8415,8.7819,8.7389,8.7289,8.7289,8.7289,8.7289,8.7289,8.7289,8.7289,8.7289,8.7289,8.7289,8.7289,8.7289,8.7289,8.709,8.666,8.5997,8.5268,8.4341,10.6792,10.6176,10.6021,10.5586,10.5006,10.4924,10.438,10.3511,10.2823,10.2062,10.1157,10.036,9.9926,9.9889,9.9889,9.9612,9.9172,9.883,9.8718,9.8519,9.8216,9.766,9.7039,9.6587,9.6177,9.565,9.4633,9.3617,9.3012,9.2199,9.1745,9.147,9.1176,9.1203,9.1221,9.1157,9.1103,9.0814,9.0287,8.9725,8.9421,8.9388,8.973,9.0678,9.1323,9.178,9.2224,9.247,9.2526,9.2632,9.3109,9.3355,9.346,9.346,9.3882,9.4478,9.504,9.5391,9.5707,9.6253,9.6223,9.6012,9.5572,9.5338,9.5047,9.4917,9.4627,9.426,9.3883,9.3612,9.3596,9.3571,9.3571,9.3571,9.3571,9.3503,9.3334,9.3005,9.2205,9.1085,9.04,8.9973,8.9929,8.984,8.9608,8.9442,8.9277,8.9244,8.9244,8.9575,9.0072,9.0237,9.0337,8.9442,8.8548,8.7885,8.7355,8.7289,8.7289,8.7289,8.7289,8.7289,8.7289,8.7289,8.7289,8.7289,8.7289,8.7289,8.7289,8.7289,8.7157,8.6991,8.6262,8.55,8.4805,10.7712,10.7278,10.6481,10.5902,10.5503,10.5069,10.4453,10.3656,10.2895,10.2135,10.1338,10.0577,10.0179,10.0179,10.0179,10.0046,9.9867,9.9696,9.9559,9.9324,9.9127,9.8677,9.809,9.7636,9.7442,9.7051,9.6119,9.5289,9.4711,9.3729,9.2987,9.2353,9.1979,9.1783,9.2139,9.2157,9.2021,9.1823,9.1367,9.0804,9.0464,9.0574,9.1164,9.1432,9.1899,9.2273,9.2372,9.2512,9.2512,9.2653,9.3215,9.3776,9.4163,9.4619,9.497,9.5356,9.5742,9.6164,9.6393,9.6833,9.659,9.6219,9.6093,9.5804,9.553,9.5275,9.5121,9.4614,9.4155,9.3747,9.363,9.3571,9.3571,9.3571,9.3571,9.3571,9.3571,9.3571,9.2769,9.1808,9.161,9.1281,9.0825,9.0635,9.037,9.0204,9.0039,9.0006,8.9972,9.0271,9.0701,9.0739,9.0639,8.975,8.8791,8.8063,8.7395,8.7263,8.7289,8.7289,8.7289,8.7289,8.7289,8.7289,8.7289,8.7289,8.7289,8.7289,8.7289,8.7289,8.7223,8.6991,8.6395,8.5765,8.5103,10.8618,10.8364,10.7133,10.6409,10.601,10.5431,10.4706,10.391,10.3185,10.2533,10.1809,10.1121,10.0759,10.065,10.0497,10.0344,10.0093,10.0057,9.9741,9.9696,9.9714,9.9442,9.8945,9.878,9.8585,9.8078,9.7854,9.7478,9.6306,9.5466,9.4607,9.39,9.2818,9.255,9.305,9.3032,9.2977,9.285,9.2581,9.2016,9.1584,9.1786,9.2247,9.2187,9.2704,9.2841,9.2941,9.2632,9.2512,9.2758,9.3355,9.4127,9.4794,9.5637,9.6129,9.6129,9.6129,9.655,9.6814,9.6817,9.6554,9.6254,9.5967,9.5695,9.542,9.5254,9.5087,9.458,9.4179,9.3889,9.3747,9.363,9.3571,9.3571,9.3571,9.3571,9.3571,9.3571,9.3394,9.2894,9.2856,9.2298,9.1574,9.1231,9.0933,9.0867,9.0734,9.0734,9.0734,9.0734,9.0937,9.1007,9.0747,8.9957,8.9132,8.8339,8.7612,8.7143,8.723,8.7289,8.7289,8.7289,8.7289,8.7289,8.7289,8.7289,8.7289,8.7289,8.7289,8.7289,8.7289,8.7123,8.6726,8.6262,8.5666,10.9125,10.8473,10.8292,10.7423,10.6264,10.601,10.5503,10.4706,10.3873,10.3547,10.3185,10.2606,10.2171,10.199,10.1447,10.1221,10.0968,10.0416,10.0091,10.0046,10.0054,9.9773,9.9085,9.8976,9.9093,9.8875,9.8839,9.8238,9.752,9.7144,9.6426,9.5566,9.4948,9.4742,9.4133,9.3846,9.3852,9.371,9.3129,9.2601,9.2347,9.2407,9.3049,9.3534,9.3519,9.3326,9.3651,9.3222,9.2807,9.2828,9.3952,9.4619,9.5005,9.6234,9.6831,9.6971,9.7006,9.7006,9.7008,9.68,9.6501,9.6147,9.5912,9.5695,9.542,9.5199,9.5031,9.4885,9.4374,9.4005,9.3889,9.3747,9.363,9.3571,9.3571,9.3571,9.3571,9.3571,9.3453,9.3156,9.2822,9.2459,9.1958,9.1778,9.1529,9.1496,9.143,9.1397,9.1364,9.1202,9.1107,9.1081,9.0727,8.9973,8.9182,8.8424,8.776,8.7095,8.705,8.723,8.7289,8.7289,8.7289,8.7289,8.7289,8.7289,8.7289,8.7289,8.7289,8.7289,8.7289,8.7289,8.7223,8.6726,8.6163,10.9886,10.9125,10.869,10.8111,10.7386,10.6517,10.5902,10.5358,10.4236,10.3692,10.3547,10.2932,10.2569,10.2497,10.1773,10.141,10.1229,10.0614,10.0303,10.0355,10.0318,10.0137,9.9919,9.9811,9.9803,9.968,9.9636,9.9556,9.8881,9.8287,9.7649,9.6803,9.6149,9.5549,9.5109,9.4491,9.4222,9.4034,9.3729,9.345,9.343,9.374,9.4182,9.4622,9.4585,9.4641,9.4503,9.4355,9.3925,9.4037,9.4935,9.5391,9.5672,9.6445,9.7112,9.7112,9.7112,9.7008,9.6852,9.6554,9.6289,9.6021,9.5749,9.551,9.5365,9.5254,9.5087,9.4885,9.4659,9.4374,9.4063,9.3889,9.3747,9.3689,9.3571,9.3571,9.3571,9.3571,9.3453,9.3156,9.2822,9.2459,9.212,9.1811,9.1625,9.1529,9.1496,9.1496,9.1434,9.1246,9.115,9.109,9.0604,8.9987,8.9133,8.8313,8.7775,8.7177,8.687,8.705,8.7289,8.7289,8.7289,8.7289,8.7289,8.7289,8.7289,8.7289,8.7289,8.7289,8.7289,8.7289,8.7289,8.7223,8.666,11.0827,11.0211,10.9451,10.8871,10.8364,10.6988,10.63,10.5938,10.4634,10.4018,10.3873,10.3475,10.3221,10.2968,10.2461,10.2026,10.17,10.0912,10.0572,10.0558,10.0535,10.0542,10.0426,10.0499,10.0369,10.0303,10.007,10.0034,9.9881,9.9395,9.862,9.7817,9.7199,9.6526,9.605,9.5333,9.4733,9.424,9.406,9.4031,9.4316,9.4816,9.5176,9.5545,9.5759,9.5851,9.5688,9.5159,9.4975,9.503,9.5442,9.5778,9.5953,9.6585,9.7077,9.7112,9.7112,9.6904,9.666,9.6307,9.604,9.5804,9.5585,9.5455,9.54,9.5365,9.531,9.5087,9.4885,9.4545,9.4236,9.4097,9.383,9.3689,9.3571,9.3571,9.3571,9.3571,9.3453,9.3156,9.2822,9.2459,9.212,9.1811,9.1625,9.1562,9.1562,9.1562,9.1437,9.1345,9.1156,9.0996,9.0674,8.9962,8.8955,8.8232,8.7667,8.7286,8.6919,8.693,8.723,8.7289,8.7289,8.7289,8.7289,8.7289,8.7289,8.7289,8.7289,8.7289,8.7289,8.7289,8.7289,8.7289,8.7024,11.1986,11.1878,11.1044,10.9886,10.8509,10.7604,10.6807,10.6155,10.5177,10.4743,10.4706,10.467,10.4525,10.4417,10.362,10.2968,10.2425,10.1887,10.1139,10.0717,10.0707,10.0713,10.0707,10.0621,10.0528,10.0398,10.0303,10.0215,10.0179,10.0026,9.9483,9.8904,9.8287,9.7837,9.7208,9.631,9.5405,9.4831,9.4499,9.4648,9.4994,9.5458,9.5958,9.672,9.6506,9.6292,9.6848,9.602,9.5512,9.5447,9.5844,9.6058,9.6269,9.6901,9.7287,9.7322,9.7463,9.7202,9.6797,9.6393,9.604,9.5804,9.5585,9.54,9.54,9.54,9.54,9.5344,9.5143,9.4806,9.45,9.4213,9.3981,9.3689,9.3571,9.3571,9.3571,9.3512,9.3394,9.3156,9.2762,9.2398,9.2058,9.1749,9.1625,9.1562,9.1562,9.1562,9.1562,9.1408,9.1093,9.0902,9.0711,8.9933,8.8798,8.8083,8.7616,8.7208,8.6896,8.7029,8.723,8.7289,8.7289,8.7289,8.7289,8.7289,8.7289,8.7289,8.7289,8.7289,8.7289,8.7289,8.7289,8.7289,8.6991,11.3346,11.3273,11.2437,11.1263,10.9813,10.8075,10.7133,10.6662,10.5467,10.4887,10.4887,10.4887,10.4887,10.467,10.4054,10.3294,10.2578,10.1862,10.1248,10.0882,10.0755,10.0797,10.0791,10.0707,10.0578,10.0398,10.0223,10.0179,10.0179,10.0179,10.0107,9.9664,9.9142,9.8744,9.8078,9.736,9.6482,9.5952,9.5627,9.5821,9.5851,9.6422,9.6921,9.7314,9.7873,9.7646,9.775,9.7229,9.6875,9.6675,9.6633,9.6636,9.6761,9.7428,9.7779,9.7884,9.813,9.8024,9.7353,9.6738,9.6021,9.564,9.5455,9.54,9.54,9.54,9.54,9.5344,9.5323,9.5078,9.4591,9.4385,9.4155,9.3806,9.3571,9.3571,9.3512,9.3453,9.3156,9.2822,9.252,9.2153,9.1906,9.1687,9.1625,9.1562,9.1562,9.1562,9.1562,9.1437,9.1123,9.0902,9.0647,9.0161,8.8993,8.8278,8.7625,8.7317,8.7032,8.7101,8.7296,8.7289,8.7289,8.7289,8.7289,8.7289,8.7289,8.7289,8.7289,8.7289,8.7289,8.7289,8.7289,8.7289,8.7024,11.429,11.3999,11.316,11.2168,11.0888,10.8819,10.7767,10.7248,10.6005,10.5151,10.4924,10.4887,10.4887,10.4706,10.4344,10.3656,10.2977,10.2306,10.1648,10.1203,10.0974,10.087,10.0755,10.0707,10.0535,10.0311,10.0215,10.0179,10.0179,10.0179,10.0143,9.9962,9.9672,9.9419,9.9077,9.8331,9.7479,9.6985,9.6685,9.6808,9.6718,9.71,9.7671,9.7849,9.8349,9.8479,9.8273,9.7909,9.7647,9.7517,9.7474,9.7479,9.7709,9.8095,9.8516,9.8797,9.899,9.9128,9.8313,9.7236,9.6046,9.5544,9.5455,9.54,9.54,9.5434,9.5434,9.5779,9.5668,9.5375,9.4841,9.4737,9.4301,9.3858,9.3664,9.3571,9.3394,9.3275,9.2883,9.252,9.2153,9.1844,9.1596,9.1437,9.15,9.15,9.1562,9.1562,9.1562,9.1437,9.1186,9.0966,9.0711,9.0096,8.935,8.886,8.8431,8.7995,8.7709,8.7266,8.7275,8.7296,8.7289,8.7289,8.7289,8.7289,8.7289,8.7289,8.7289,8.7289,8.7289,8.7289,8.7289,8.7289,8.7289,11.474,11.3926,11.3123,11.2358,11.1519,10.9951,10.8738,10.7955,10.6789,10.5807,10.5006,10.4887,10.4887,10.4887,10.4706,10.4236,10.352,10.2931,10.2265,10.159,10.0961,10.0828,10.0713,10.0621,10.0492,10.0485,10.0311,10.0179,10.0179,10.0179,10.0179,10.0135,9.999,9.9954,9.999,9.9126,9.8109,9.7264,9.7037,9.7202,9.7397,9.7599,9.7992,9.8349,9.8563,9.8622,9.8429,9.8136,9.7909,9.7971,9.8021,9.8112,9.834,9.8972,9.9359,9.9429,9.9534,9.9268,9.8518,9.7273,9.6477,9.5903,9.5917,9.5813,9.5572,9.5572,9.5827,9.6322,9.6222,9.5903,9.5559,9.5234,9.4543,9.4138,9.3918,9.3537,9.3392,9.2943,9.2581,9.2276,9.1873,9.1533,9.1282,9.1156,9.1312,9.1437,9.1562,9.1562,9.1596,9.1533,9.1312,9.106,9.0839,9.0549,8.9965,8.9604,8.9204,8.8798,8.8292,8.7722,8.7408,8.7362,8.7355,8.7322,8.7289,8.7289,8.7289,8.7289,8.7289,8.7289,8.7289,8.7289,8.7289,8.7289,8.7289,11.5285,11.4479,11.3673,11.2867,11.1943,11.0088,10.9112,10.8592,10.7244,10.5971,10.5262,10.5016,10.4887,10.4887,10.4851,10.4489,10.3728,10.2977,10.2314,10.1728,10.1015,10.0651,10.0578,10.0492,10.0442,10.0311,10.0215,10.0135,10.0179,10.0135,10.0135,10.0135,10.0074,10.0046,10.0099,9.9721,9.9298,9.8758,9.8529,9.8498,9.8289,9.8277,9.842,9.8741,9.8777,9.8765,9.8607,9.8299,9.8227,9.8379,9.8532,9.8674,9.9043,9.9745,10.0166,10.0342,10.0482,10.0388,9.9548,9.8562,9.7902,9.7271,9.6779,9.6745,9.6883,9.6917,9.6977,9.6875,9.6807,9.6519,9.6077,9.5722,9.5161,9.4759,9.4409,9.3823,9.3439,9.2754,9.2181,9.203,9.172,9.1219,9.0902,9.0902,9.1029,9.1249,9.1375,9.15,9.1596,9.1596,9.1437,9.1186,9.1029,9.0839,9.0578,9.0247,8.9886,8.9544,8.8782,8.7953,8.7738,8.7554,8.7355,8.7289,8.7289,8.7289,8.7289,8.7289,8.7289,8.7289,8.7289,8.7289,8.7289,8.7289,8.7289,11.5369,11.4341,11.3791,11.2946,11.1874,11.0543,10.9668,10.8847,10.7389,10.6234,10.5435,10.5108,10.4934,10.4934,10.4851,10.4743,10.4054,10.333,10.2615,10.1959,10.1197,10.0761,10.0507,10.0398,10.0311,10.0179,10.0091,10.0046,10.0002,9.9957,9.9912,9.9858,10.0029,10.021,10.0228,10.0003,9.9578,9.915,9.901,9.8906,9.8801,9.8884,9.9098,9.9241,9.9384,9.9465,9.9136,9.8923,9.8814,9.8967,9.9182,9.9253,9.9885,10.0447,10.0939,10.1184,10.1127,10.1014,10.0224,9.9784,9.9099,9.8595,9.809,9.771,9.7676,9.739,9.7517,9.7517,9.7388,9.6979,9.6503,9.6108,9.5703,9.5296,9.4741,9.4154,9.3735,9.302,9.2367,9.2148,9.1441,9.0935,9.0551,9.0583,9.0711,9.0966,9.1219,9.1408,9.1596,9.1596,9.15,9.1375,9.1249,9.1186,9.0994,9.0796,9.0497,9.0196,8.9367,8.8438,8.7904,8.7687,8.7488,8.7289,8.7289,8.7289,8.7289,8.7289,8.7289,8.7289,8.7289,8.7289,8.7289,8.7289,8.7289,11.5039,11.3681,11.3607,11.2689,11.1368,11.1104,11.0091,10.8412,10.7607,10.6539,10.5371,10.529,10.5153,10.4934,10.4887,10.4851,10.4598,10.3946,10.3258,10.2615,10.1898,10.1165,10.0577,10.036,10.0235,10.0082,9.9957,9.9786,9.9741,9.965,9.9513,9.9673,10.0141,10.0428,10.0356,10.0166,9.9786,9.9717,9.967,9.9528,9.9396,9.9633,9.9883,10.0062,10.0263,10.0315,10.0102,9.9921,9.9808,9.9937,10.0185,10.0465,10.0833,10.1325,10.1571,10.1727,10.1579,10.1464,10.1095,10.0756,10.0298,9.9723,9.8642,9.8055,9.7838,9.7907,9.7974,9.7981,9.7823,9.7405,9.6981,9.6479,9.6007,9.5518,9.4996,9.4574,9.4286,9.3635,9.2914,9.2201,9.1229,9.0714,9.0392,9.0392,9.0585,9.0812,9.11,9.1219,9.1408,9.1596,9.1562,9.1562,9.15,9.15,9.1371,9.1147,9.1077,9.0747,8.985,8.889,8.8449,8.7852,8.7488,8.7289,8.7289,8.7289,8.7289,8.7289,8.7289,8.7289,8.7289,8.7289,8.7289,8.7289,8.7289,11.5039,11.3652,11.375,11.2786,11.1331,11.1221,11.0223,10.8705,10.8207,10.7227,10.578,10.5425,10.5281,10.5153,10.498,10.4887,10.4598,10.4163,10.3692,10.3113,10.2533,10.1683,10.1086,10.0707,10.0327,9.9912,9.9595,9.9549,9.9513,9.9421,9.9678,10.0051,10.0326,10.059,10.0709,10.0697,10.0673,10.0614,10.0578,10.0326,10.0253,10.0525,10.0704,10.0798,10.0828,10.0842,10.0554,10.0299,10.013,10.0431,10.05,10.0763,10.143,10.1641,10.1816,10.2589,10.2865,10.2994,10.244,10.1887,10.1289,10.0655,9.9711,9.9319,9.9007,9.8729,9.8563,9.8369,9.8138,9.7645,9.7215,9.6712,9.6331,9.5877,9.5353,9.4962,9.4668,9.4172,9.3451,9.2305,9.1331,9.0815,9.0489,9.0261,9.0457,9.075,9.0911,9.097,9.1156,9.1345,9.1596,9.1562,9.1562,9.1562,9.1562,9.1434,9.1368,9.1198,9.0204,8.9376,8.8912,8.8316,8.762,8.7289,8.7289,8.7289,8.7289,8.7289,8.7289,8.7289,8.7289,8.7289,8.7289,8.7289,8.7289,11.5175,11.386,11.3971,11.3006,11.1463,11.1316,11.0501,10.9349,10.8778,10.7585,10.6064,10.5603,10.538,10.5244,10.5016,10.4887,10.4851,10.4489,10.4054,10.3547,10.3166,10.2342,10.1745,10.1282,10.0747,10.0141,9.9724,9.9642,9.9416,9.9573,9.9826,10.0053,10.0518,10.11,10.1467,10.1788,10.2002,10.1766,10.148,10.123,10.1181,10.1297,10.1404,10.1326,10.1319,10.1244,10.0936,10.0676,10.0818,10.0992,10.1009,10.1184,10.1781,10.1957,10.2518,10.3221,10.3572,10.3484,10.2962,10.264,10.1983,10.1231,10.0525,9.9877,9.9426,9.9042,9.8779,9.8572,9.8242,9.7845,9.7409,9.7,9.6648,9.6292,9.5832,9.5404,9.5008,9.461,9.3623,9.2475,9.1695,9.1109,9.0781,9.0521,9.0325,9.0554,9.062,9.0488,9.0775,9.1093,9.1375,9.1562,9.1562,9.1562,9.1562,9.1562,9.1529,9.1165,9.0204,8.9509,8.921,8.8482,8.7521,8.7289,8.7289,8.7289,8.7289,8.7289,8.7289,8.7289,8.7289,8.7289,8.7289,8.7289,8.7289,11.5407,11.3934,11.3998,11.2995,11.1687,11.1453,11.0845,11.0017,10.9239,10.7862,10.6327,10.5736,10.5514,10.5335,10.5062,10.4887,10.4887,10.4743,10.4407,10.3791,10.3643,10.3034,10.2306,10.1961,10.1305,10.0791,10.0183,9.9599,9.9301,9.9408,9.9728,10.0013,10.1261,10.1975,10.231,10.2724,10.2766,10.2573,10.1932,10.1398,10.1483,10.1768,10.216,10.2015,10.2253,10.2524,10.2158,10.1981,10.1945,10.1784,10.1676,10.1641,10.2062,10.2799,10.3502,10.3958,10.4344,10.4184,10.3751,10.337,10.2573,10.1784,10.0899,10.0386,10.0001,9.9385,9.9049,9.8751,9.8386,9.7976,9.7566,9.721,9.6821,9.6395,9.5901,9.5703,9.5538,9.4944,9.3892,9.2842,9.209,9.1595,9.1427,9.1166,9.1135,9.0874,9.052,9.0326,9.0456,9.0809,9.1093,9.1375,9.1562,9.1562,9.1562,9.1562,9.1562,9.1066,9.0237,8.9641,8.9376,8.8449,8.7355,8.7289,8.7289,8.7289,8.7289,8.7289,8.7289,8.7289,8.7289,8.7289,8.7289,8.7289,8.7289,11.5148,11.4034,11.2731,11.1994,11.1784,11.1404,11.0788,11.001,10.979,10.8719,10.7239,10.6152,10.5567,10.547,10.5062,10.4887,10.4887,10.4887,10.4676,10.4402,10.4189,10.352,10.2742,10.2454,10.1844,10.097,10.0266,9.9526,9.8976,9.9171,9.9747,10.0479,10.1547,10.2238,10.2887,10.3178,10.299,10.2801,10.243,10.1918,10.2024,10.2237,10.2469,10.2365,10.2509,10.2352,10.2052,10.1891,10.1784,10.1676,10.1676,10.1992,10.2589,10.3888,10.4625,10.4941,10.5271,10.5072,10.4658,10.4148,10.344,10.2692,10.1931,10.1321,10.0676,9.9894,9.9322,9.8989,9.8582,9.8167,9.7778,9.7386,9.6991,9.6529,9.6001,9.6001,9.6001,9.5079,9.4058,9.3335,9.2577,9.2243,9.2139,9.1939,9.1874,9.1453,9.0872,9.0551,9.0522,9.0717,9.068,9.1029,9.1471,9.1562,9.1562,9.1562,9.1562,9.1331,9.0668,9.0072,8.9509,8.8349,8.7289,8.7289,8.7289,8.7289,8.7289,8.7289,8.7289,8.7289,8.7289,8.7289,8.7289,8.7289,8.7289,11.4809,11.4292,11.2908,11.2349,11.2312,11.1637,11.1015,11.0524,11.0157,10.9452,10.8332,10.6919,10.5968,10.5542,10.5026,10.4887,10.4887,10.4887,10.4748,10.4597,10.436,10.3868,10.3374,10.2964,10.24,10.1525,10.0236,9.9376,9.8845,9.9349,10.0164,10.0889,10.1756,10.241,10.3026,10.2872,10.2717,10.2613,10.2457,10.2352,10.2299,10.2404,10.2457,10.2352,10.2211,10.2052,10.1891,10.1765,10.173,10.1851,10.2027,10.301,10.3747,10.466,10.5292,10.5622,10.586,10.5946,10.5367,10.4831,10.4085,10.3203,10.2574,10.1797,10.095,10.0233,10.0023,9.9649,9.9161,9.8708,9.8118,9.7723,9.7259,9.6763,9.6201,9.5936,9.5706,9.5112,9.4155,9.3363,9.2998,9.3056,9.2852,9.2425,9.2327,9.2101,9.1453,9.0741,9.0714,9.0619,9.0587,9.0647,9.1093,9.1437,9.1562,9.1562,9.1562,9.1297,9.0999,9.0039,8.9144,8.8084,8.7289,8.7289,8.7289,8.7289,8.7289,8.7289,8.7289,8.7289,8.7289,8.7289,8.7289,8.7289,8.7289,11.4692,11.4544,11.3794,11.3372,11.3093,11.2055,11.1544,11.1221,11.048,10.9907,10.9319,10.7808,10.6562,10.5644,10.5016,10.4887,10.4877,10.4831,10.4727,10.4443,10.4252,10.3853,10.3657,10.3387,10.2702,10.1789,10.0593,9.9825,9.9218,9.9824,10.0514,10.136,10.1978,10.2561,10.2597,10.2509,10.2457,10.2264,10.2105,10.1945,10.2033,10.2193,10.2193,10.2105,10.2052,10.1891,10.1819,10.1762,10.1762,10.2218,10.2725,10.3762,10.459,10.5257,10.5566,10.593,10.5956,10.5715,10.533,10.4907,10.4108,10.3314,10.2714,10.2103,10.1349,10.0967,10.0751,10.0363,9.9774,9.9281,9.8686,9.8056,9.7592,9.6863,9.6366,9.5805,9.5408,9.4976,9.4247,9.3454,9.3514,9.367,9.3371,9.2975,9.2781,9.2554,9.2068,9.1323,9.0775,9.0585,9.0424,9.0424,9.0583,9.0996,9.1375,9.1437,9.1437,9.1401,9.0974,8.9878,8.8846,8.7952,8.7389,8.7289,8.7289,8.7289,8.7289,8.7289,8.7289,8.7289,8.7289,8.7289,8.7289,8.7289,8.7289,11.4936,11.4899,11.4339,11.4133,11.3856,11.2772,11.222,11.1984,11.1035,11.0197,10.9422,10.8783,10.7688,10.6189,10.5233,10.4831,10.4691,10.468,10.4312,10.3974,10.3974,10.3729,10.353,10.3345,10.273,10.1837,10.0964,10.0392,9.983,10.0237,10.073,10.117,10.1858,10.2264,10.2544,10.2404,10.2158,10.1998,10.1891,10.173,10.1765,10.1873,10.1819,10.1819,10.1784,10.1765,10.1797,10.2069,10.2224,10.2658,10.3484,10.4436,10.5088,10.5601,10.5838,10.5806,10.5831,10.5482,10.5095,10.4737,10.3944,10.355,10.3109,10.2733,10.2242,10.2085,10.1798,10.1441,10.0847,10.0151,9.9552,9.8587,9.7923,9.6995,9.6301,9.5606,9.5076,9.4672,9.4203,9.3767,9.3695,9.3756,9.3724,9.3493,9.3493,9.3202,9.2781,9.2036,9.1259,9.0874,9.0422,9.0294,9.0293,9.0647,9.1093,9.1156,9.1123,9.1216,9.0949,8.9858,8.8923,8.8018,8.7554,8.7355,8.7289,8.7289,8.7289,8.7289,8.7289,8.7289,8.7289,8.7289,8.7289,8.7349,8.7349]}]]